[[{"header":{"parameterUnit":"m.s-1","parameterCategory":1,"la1":30.6,"la2":29.2853,"lo1":-89.7004,"lo2":-87.6739,"dx":0.0162,"dy":0.0183,"nx":112,"ny":82,"refTime":"2023-02-21T18:00:00:Z","depth":0,"parameterNumber":2,"parameterNumberName":"U-component_of_WINDS"},"data":[0.0,0.0,0.0,0.0,0.0,0.0,0.0,0.0,0.0,0.0,0.0,0.0,0.0,0.0,0.0,0.0,0.0,0.0,0.0,0.0,0.0,0.0,0.0,0.0,0.0,0.0,0.0,0.0,0.0,0.0,0.0,0.0,0.0,0.0,0.0,0.0,0.0,0.0,0.0,0.0,0.0,0.0,0.0,0.0,0.0,0.0,0.0,0.0,0.0,0.0,0.0,0.0,0.0,0.0,0.0,0.0,0.0,0.0,0.0,0.0,0.0,0.0,0.0,0.0,0.0,0.0,0.0,0.0,0.0,0.0,0.0,0.0,0.0,0.0,0.0,0.0,0.0,0.0,0.0,0.0,0.0,0.0,0.0,0.0,0.0,0.0,0.0,0.0,0.0,0.0,-3.418,-3.3301,-3.3086,-3.3008,-3.2988,-3.2994,-3.2992,-3.2979,0.0,0.0,0.0,0.0,0.0,0.0,0.0,0.0,0.0,0.0,0.0,0.0,0.0,0.0,0.0,0.0,0.0,0.0,0.0,0.0,0.0,0.0,0.0,0.0,0.0,0.0,0.0,0.0,0.0,0.0,0.0,0.0,0.0,0.0,0.0,0.0,0.0,0.0,0.0,0.0,0.0,0.0,0.0,0.0,0.0,0.0,0.0,0.0,0.0,0.0,0.0,0.0,0.0,0.0,0.0,0.0,0.0,0.0,0.0,0.0,0.0,0.0,0.0,0.0,0.0,0.0,0.0,0.0,0.0,0.0,0.0,0.0,0.0,0.0,0.0,0.0,0.0,0.0,0.0,0.0,0.0,0.0,0.0,0.0,0.0,0.0,0.0,0.0,0.0,0.0,0.0,0.0,0.0,0.0,0.0,0.0,0.0,0.0,0.0,0.0,0.0,0.0,0.0,0.0,-3.3281,-3.2461,-3.1719,-3.1229,-3.1115,-3.1719,-3.2064,-3.2021,0.0,0.0,0.0,0.0,0.0,0.0,0.0,0.0,0.0,0.0,0.0,0.0,0.0,0.0,0.0,0.0,0.0,0.0,0.0,0.0,0.0,0.0,0.0,0.0,0.0,0.0,0.0,0.0,0.0,0.0,0.0,0.0,0.0,0.0,0.0,0.0,0.0,0.0,0.0,0.0,0.0,0.0,0.0,0.0,0.0,0.0,0.0,0.0,0.0,0.0,0.0,0.0,0.0,0.0,0.0,0.0,0.0,0.0,0.0,0.0,0.0,0.0,0.0,0.0,0.0,0.0,0.0,0.0,0.0,0.0,0.0,0.0,0.0,0.0,0.0,0.0,0.0,0.0,0.0,0.0,0.0,0.0,0.0,0.0,0.0,0.0,0.0,0.0,0.0,0.0,0.0,0.0,0.0,0.0,0.0,0.0,0.0,0.0,0.0,0.0,0.0,0.0,0.0,-3.2754,-3.2422,-3.1582,-3.1133,-3.0878,-3.0815,-3.1077,-3.1215,-3.1149,-3.1741,0.0,0.0,0.0,0.0,0.0,0.0,0.0,0.0,0.0,0.0,0.0,0.0,0.0,0.0,0.0,0.0,0.0,0.0,0.0,0.0,0.0,0.0,0.0,0.0,0.0,0.0,0.0,0.0,0.0,0.0,0.0,0.0,0.0,0.0,0.0,0.0,0.0,0.0,0.0,0.0,0.0,0.0,0.0,0.0,0.0,0.0,0.0,0.0,0.0,0.0,0.0,0.0,0.0,0.0,0.0,0.0,0.0,0.0,0.0,0.0,0.0,0.0,0.0,0.0,0.0,0.0,0.0,0.0,0.0,0.0,0.0,0.0,0.0,0.0,0.0,0.0,0.0,0.0,0.0,0.0,0.0,0.0,0.0,0.0,0.0,0.0,0.0,0.0,0.0,0.0,0.0,0.0,0.0,0.0,0.0,0.0,0.0,0.0,0.0,0.0,0.0,0.0,-3.1894,-3.1641,-3.0976,-3.0898,-3.0898,-3.0898,-3.0771,-3.0675,-3.0609,-3.066,0.0,0.0,0.0,0.0,0.0,0.0,0.0,0.0,0.0,0.0,0.0,0.0,0.0,0.0,0.0,0.0,0.0,0.0,0.0,0.0,0.0,0.0,0.0,0.0,0.0,0.0,0.0,0.0,0.0,0.0,0.0,0.0,0.0,0.0,0.0,0.0,0.0,0.0,0.0,0.0,0.0,0.0,0.0,0.0,0.0,0.0,0.0,0.0,0.0,0.0,0.0,0.0,0.0,0.0,0.0,0.0,0.0,0.0,0.0,0.0,0.0,0.0,0.0,0.0,0.0,0.0,0.0,0.0,0.0,0.0,0.0,0.0,0.0,0.0,0.0,0.0,0.0,0.0,0.0,0.0,0.0,0.0,0.0,0.0,0.0,0.0,0.0,0.0,0.0,0.0,0.0,0.0,0.0,0.0,0.0,0.0,0.0,0.0,0.0,0.0,0.0,0.0,-3.0996,-3.0976,-3.0918,-3.0898,-3.0898,-3.0898,-3.0771,-3.0675,-3.0609,-3.0144,0.0,0.0,0.0,0.0,0.0,0.0,0.0,0.0,0.0,0.0,0.0,0.0,0.0,0.0,0.0,0.0,0.0,0.0,0.0,0.0,0.0,0.0,0.0,0.0,0.0,0.0,0.0,0.0,0.0,0.0,0.0,0.0,0.0,0.0,0.0,0.0,0.0,0.0,0.0,0.0,0.0,0.0,0.0,0.0,0.0,0.0,0.0,0.0,0.0,0.0,0.0,0.0,0.0,0.0,0.0,0.0,0.0,0.0,0.0,0.0,0.0,0.0,0.0,0.0,0.0,0.0,0.0,0.0,0.0,0.0,0.0,0.0,0.0,0.0,0.0,0.0,0.0,0.0,0.0,0.0,0.0,0.0,0.0,0.0,0.0,0.0,0.0,0.0,0.0,0.0,0.0,0.0,0.0,0.0,0.0,0.0,0.0,0.0,0.0,0.0,0.0,0.0,-3.0771,-3.0771,-3.0771,-3.0857,-3.0898,-3.0898,-3.0858,-3.0761,-3.0611,0.0,0.0,0.0,0.0,0.0,0.0,0.0,0.0,0.0,0.0,0.0,0.0,0.0,0.0,0.0,0.0,0.0,0.0,0.0,0.0,0.0,0.0,0.0,0.0,0.0,0.0,0.0,0.0,0.0,0.0,0.0,0.0,0.0,0.0,0.0,0.0,0.0,0.0,0.0,0.0,0.0,0.0,0.0,0.0,0.0,0.0,0.0,0.0,0.0,0.0,0.0,0.0,0.0,0.0,0.0,0.0,0.0,0.0,0.0,0.0,0.0,0.0,0.0,0.0,0.0,0.0,0.0,0.0,0.0,0.0,0.0,0.0,0.0,0.0,0.0,0.0,0.0,0.0,0.0,0.0,0.0,0.0,0.0,0.0,0.0,0.0,0.0,0.0,0.0,0.0,0.0,0.0,0.0,0.0,0.0,0.0,0.0,0.0,0.0,0.0,0.0,0.0,-3.0753,-3.0673,-3.0679,-3.0693,-3.0771,-3.0858,-3.0898,-3.0898,-3.0811,-3.0614,0.0,0.0,0.0,0.0,0.0,0.0,0.0,0.0,0.0,0.0,0.0,0.0,0.0,0.0,0.0,0.0,0.0,0.0,0.0,0.0,0.0,0.0,0.0,0.0,0.0,0.0,0.0,0.0,0.0,0.0,0.0,0.0,0.0,0.0,0.0,0.0,0.0,0.0,0.0,0.0,0.0,0.0,0.0,0.0,0.0,0.0,0.0,0.0,0.0,0.0,0.0,0.0,0.0,0.0,0.0,0.0,0.0,0.0,0.0,0.0,0.0,0.0,0.0,0.0,0.0,0.0,0.0,0.0,0.0,0.0,0.0,0.0,0.0,0.0,0.0,0.0,0.0,0.0,0.0,0.0,0.0,0.0,0.0,0.0,0.0,0.0,0.0,0.0,0.0,0.0,0.0,0.0,0.0,0.0,0.0,0.0,0.0,0.0,0.0,0.0,0.0,0.0,-3.0611,-3.0603,-3.0614,-3.0689,-3.0695,-3.0747,-3.0898,-3.0898,-3.0811,0.0,0.0,0.0,0.0,0.0,0.0,0.0,0.0,0.0,0.0,0.0,0.0,0.0,0.0,0.0,0.0,0.0,0.0,0.0,0.0,0.0,0.0,0.0,0.0,0.0,0.0,0.0,0.0,0.0,0.0,0.0,0.0,0.0,0.0,0.0,0.0,0.0,0.0,0.0,0.0,0.0,0.0,0.0,0.0,0.0,0.0,0.0,0.0,0.0,0.0,0.0,0.0,0.0,0.0,0.0,0.0,0.0,0.0,0.0,0.0,0.0,0.0,0.0,0.0,0.0,0.0,0.0,0.0,0.0,0.0,0.0,0.0,0.0,0.0,0.0,0.0,0.0,0.0,0.0,0.0,0.0,0.0,0.0,0.0,0.0,0.0,0.0,0.0,0.0,0.0,0.0,0.0,0.0,0.0,0.0,0.0,0.0,0.0,0.0,0.0,0.0,0.0,0.0,-3.0533,-3.0529,-3.0541,-3.0551,-3.0633,-3.0718,-3.0767,-3.0857,-3.0811,-3.0614,0.0,0.0,0.0,0.0,0.0,0.0,0.0,0.0,0.0,0.0,0.0,0.0,0.0,0.0,0.0,0.0,0.0,0.0,0.0,0.0,0.0,0.0,0.0,0.0,0.0,0.0,0.0,0.0,0.0,0.0,0.0,0.0,0.0,0.0,0.0,0.0,0.0,0.0,0.0,0.0,0.0,0.0,0.0,0.0,0.0,0.0,0.0,0.0,0.0,0.0,0.0,0.0,0.0,0.0,0.0,0.0,0.0,0.0,0.0,0.0,0.0,0.0,0.0,0.0,0.0,0.0,0.0,0.0,0.0,0.0,0.0,0.0,0.0,0.0,0.0,0.0,0.0,0.0,0.0,0.0,0.0,0.0,0.0,0.0,0.0,0.0,0.0,0.0,0.0,0.0,0.0,0.0,0.0,0.0,0.0,0.0,0.0,0.0,0.0,0.0,0.0,0.0,-3.0467,-3.0462,-3.0463,-3.0494,-3.0575,-3.0633,-3.0692,-3.0771,-3.0761,-3.0655,0.0,0.0,0.0,0.0,0.0,0.0,0.0,0.0,0.0,0.0,0.0,0.0,0.0,0.0,0.0,0.0,0.0,0.0,0.0,0.0,0.0,0.0,0.0,0.0,0.0,0.0,0.0,0.0,0.0,0.0,0.0,0.0,0.0,0.0,0.0,0.0,0.0,0.0,0.0,0.0,0.0,0.0,0.0,0.0,0.0,0.0,0.0,0.0,0.0,0.0,0.0,0.0,0.0,0.0,0.0,0.0,0.0,0.0,0.0,0.0,0.0,0.0,0.0,0.0,0.0,0.0,0.0,0.0,0.0,0.0,0.0,0.0,0.0,0.0,0.0,0.0,0.0,0.0,0.0,0.0,0.0,0.0,0.0,0.0,0.0,0.0,0.0,0.0,0.0,0.0,0.0,0.0,0.0,0.0,0.0,0.0,0.0,0.0,0.0,0.0,0.0,0.0,-3.0402,-3.0404,-3.0417,-3.0472,-3.0494,-3.054,-3.0677,-3.069,-3.0697,-3.0684,0.0,0.0,0.0,0.0,0.0,0.0,0.0,0.0,0.0,0.0,0.0,0.0,0.0,0.0,0.0,0.0,0.0,0.0,0.0,0.0,0.0,0.0,0.0,0.0,0.0,0.0,0.0,0.0,0.0,0.0,0.0,0.0,0.0,0.0,0.0,0.0,0.0,0.0,0.0,0.0,0.0,0.0,0.0,0.0,0.0,0.0,0.0,0.0,0.0,0.0,0.0,0.0,0.0,0.0,0.0,0.0,0.0,0.0,0.0,0.0,-3.4851,-3.5147,0.0,0.0,0.0,0.0,0.0,0.0,0.0,0.0,0.0,0.0,0.0,0.0,0.0,0.0,0.0,0.0,0.0,0.0,0.0,0.0,0.0,0.0,0.0,0.0,0.0,0.0,0.0,0.0,0.0,0.0,0.0,0.0,0.0,0.0,0.0,0.0,0.0,0.0,0.0,0.0,-3.041,-3.0404,-3.0416,-3.0411,-3.0477,-3.0501,-3.0548,-3.065,-3.0672,-3.0624,-3.0664,0.0,0.0,0.0,0.0,0.0,0.0,0.0,0.0,0.0,0.0,0.0,0.0,0.0,0.0,0.0,0.0,0.0,0.0,0.0,0.0,0.0,0.0,0.0,0.0,0.0,0.0,0.0,0.0,0.0,0.0,0.0,0.0,0.0,0.0,0.0,0.0,0.0,0.0,0.0,0.0,0.0,0.0,0.0,0.0,0.0,0.0,0.0,0.0,0.0,0.0,0.0,0.0,0.0,0.0,0.0,0.0,0.0,0.0,0.0,-3.4582,-3.4822,0.0,0.0,0.0,0.0,0.0,0.0,0.0,0.0,0.0,0.0,0.0,0.0,0.0,0.0,0.0,0.0,0.0,0.0,0.0,0.0,0.0,0.0,0.0,0.0,0.0,0.0,0.0,0.0,0.0,0.0,0.0,0.0,0.0,0.0,0.0,0.0,0.0,0.0,0.0,0.0,-3.0404,-3.0404,-3.0404,-3.0404,-3.0439,-3.0453,-3.0494,-3.0561,-3.0602,-3.0596,-3.0625,0.0,0.0,0.0,0.0,0.0,0.0,0.0,0.0,0.0,0.0,0.0,0.0,0.0,0.0,0.0,0.0,0.0,0.0,0.0,0.0,0.0,0.0,0.0,0.0,0.0,0.0,0.0,0.0,0.0,0.0,0.0,0.0,0.0,0.0,0.0,0.0,0.0,0.0,0.0,0.0,0.0,0.0,0.0,0.0,0.0,0.0,0.0,0.0,0.0,0.0,0.0,0.0,0.0,-3.4126,-3.3978,-3.3719,-3.4,-3.3862,-3.3406,-3.3908,-3.4139,-3.4235,-3.4745,0.0,0.0,0.0,0.0,0.0,0.0,0.0,0.0,0.0,0.0,0.0,0.0,0.0,0.0,0.0,0.0,0.0,0.0,0.0,0.0,0.0,0.0,-3.4362,-3.3403,-3.3185,-3.3294,-3.3647,0.0,0.0,0.0,0.0,0.0,0.0,0.0,0.0,0.0,0.0,0.0,-3.0286,-3.0305,-3.0323,-3.0323,-3.0367,-3.0417,-3.0477,-3.049,-3.0521,-3.0578,-3.0594,-3.0604,0.0,0.0,0.0,0.0,0.0,0.0,0.0,0.0,0.0,0.0,0.0,0.0,0.0,0.0,0.0,0.0,0.0,0.0,0.0,0.0,0.0,0.0,0.0,0.0,0.0,0.0,0.0,0.0,0.0,0.0,0.0,0.0,-3.2724,-3.2601,0.0,0.0,0.0,0.0,0.0,0.0,0.0,0.0,0.0,0.0,0.0,0.0,0.0,-3.1379,-3.1343,-3.1665,-3.1844,-3.1844,-3.1844,-3.182,-3.1771,-3.1802,-3.1796,-3.1727,-3.1808,0.0,-3.42,-3.4281,0.0,0.0,0.0,0.0,0.0,0.0,0.0,0.0,0.0,0.0,0.0,0.0,0.0,0.0,0.0,0.0,0.0,0.0,0.0,0.0,0.0,0.0,-3.2542,-3.2401,-3.2354,-3.2183,-3.1562,-3.1943,-3.2181,-3.1395,-3.1151,-3.0863,0.0,0.0,0.0,0.0,0.0,0.0,-2.9815,-2.9939,-3.0042,-3.0042,-3.026,-3.039,-3.0414,-3.0477,-3.0507,-3.0501,-3.0565,-3.0601,-3.0605,-3.0658,0.0,0.0,0.0,0.0,0.0,0.0,0.0,0.0,0.0,0.0,0.0,0.0,0.0,0.0,0.0,0.0,0.0,0.0,0.0,0.0,0.0,0.0,0.0,0.0,0.0,0.0,0.0,0.0,0.0,-3.2696,-3.2401,-3.2127,-3.2516,-3.2809,0.0,0.0,0.0,0.0,0.0,0.0,0.0,0.0,0.0,-3.0772,-3.0636,-3.0563,-3.0563,-3.0704,-3.0774,-3.0774,-3.0774,-3.0774,-3.0774,-3.0774,-3.0774,-3.0774,-3.0774,-3.1247,-3.2051,-3.2617,-3.294,-3.3077,0.0,0.0,0.0,0.0,-3.403,-3.4412,-3.4412,-3.4412,-3.4337,-3.3899,0.0,0.0,0.0,0.0,0.0,0.0,0.0,-3.2685,-3.2538,-3.2235,-3.1819,-3.1222,-3.1067,-3.0863,-3.0052,-3.0155,-3.0379,-3.0291,-3.018,-3.0049,-2.9853,-2.9829,0.0,0.0,0.0,-2.9796,-2.9713,-2.9771,-2.9829,-2.9829,-3.0032,-3.0182,-3.0182,-3.0339,-3.0446,-3.0446,-3.0507,-3.0549,-3.0541,-3.0609,-3.0657,0.0,0.0,0.0,0.0,0.0,0.0,0.0,0.0,0.0,0.0,0.0,0.0,0.0,0.0,0.0,0.0,0.0,0.0,0.0,0.0,0.0,0.0,0.0,0.0,0.0,0.0,0.0,0.0,-3.2004,-3.2039,-3.1678,-3.2057,-3.2333,0.0,0.0,0.0,0.0,0.0,0.0,-3.0935,-3.0035,-2.9565,-2.965,-2.9583,-2.9538,-2.9538,-2.9629,-2.9692,-2.9692,-2.9692,-2.9692,-2.9692,-2.9692,-2.9692,-2.9692,-2.9692,-2.9692,-2.9781,-3.1059,-3.1568,-3.1568,-3.1667,-3.205,-3.2595,-3.2595,-3.2966,-3.3486,-3.3486,-3.3486,-3.3375,-3.2781,-3.2595,-3.2511,-3.2127,0.0,0.0,0.0,0.0,-3.1613,-3.1314,-3.1162,-3.0839,-2.9856,-2.9679,-2.9594,-2.8979,-2.8851,-2.8966,-2.9427,-2.9395,-2.9363,-2.9589,-2.9616,0.0,-2.9616,-2.9616,-2.9607,-2.9523,-2.957,-2.9616,-2.9616,-2.9796,-2.9924,-2.9924,-3.0102,-3.0235,-3.0299,-3.034,-3.0414,-3.0498,-3.0556,-3.0611,-3.0677,0.0,0.0,0.0,0.0,0.0,0.0,0.0,0.0,0.0,0.0,0.0,0.0,0.0,0.0,0.0,0.0,0.0,0.0,0.0,0.0,0.0,0.0,0.0,0.0,0.0,0.0,0.0,0.0,0.0,-3.123,-3.1584,0.0,0.0,0.0,0.0,-3.145,-3.0064,-2.9334,-2.9673,-2.8269,-2.7594,-2.7911,-2.763,-2.7454,-2.7454,-2.783,-2.8021,-2.8021,-2.8021,-2.8021,-2.8021,-2.8021,-2.8021,-2.8021,-2.8021,-2.8021,-2.817,-3.0138,-3.0953,-3.098,-3.1296,-3.144,-3.1477,-3.1477,-3.1513,-3.155,-3.155,-3.155,-3.1532,-3.1495,-3.1477,-3.1477,-3.1464,-3.1446,0.0,0.0,-3.0894,-3.0204,-2.9818,-2.9435,-2.8949,-2.8205,-2.8251,-2.8487,-2.8433,-2.8433,-2.8552,-2.8957,-2.904,-2.91,-2.9372,0.0,-2.9423,-2.9423,-2.9423,-2.933,-2.9067,-2.9257,-2.9423,-2.9423,-2.9598,-2.9722,-2.9722,-2.9731,-2.9832,-3.0006,-3.0028,-3.0171,-3.049,-3.0507,-3.0541,-3.0609,-3.0609,0.0,0.0,0.0,0.0,0.0,0.0,0.0,0.0,0.0,0.0,0.0,0.0,0.0,0.0,0.0,0.0,0.0,0.0,0.0,0.0,0.0,0.0,0.0,0.0,0.0,0.0,0.0,0.0,-3.119,-3.1332,0.0,-3.1411,-3.0895,-3.0557,-3.0557,-2.9128,-2.8321,-2.8442,-2.7469,-2.6977,-2.7097,-2.6977,-2.6923,-2.6923,-2.7051,-2.7131,-2.7131,-2.7131,-2.7131,-2.7131,-2.7131,-2.7131,-2.7131,-2.7131,-2.7131,-2.7197,-2.8185,-2.8744,-2.8973,-2.9111,-2.9606,-3.0212,-2.9999,-3.0396,-3.1048,-3.0774,-3.0689,-3.0614,-3.0078,-2.9575,-2.9152,-2.9152,-2.9152,-2.9152,-2.9152,-2.8937,-2.8681,-2.854,-2.8398,-2.8228,-2.7968,-2.7978,-2.8075,-2.8075,-2.8075,-2.8116,-2.8255,-2.8676,-2.904,-2.9134,-2.9145,-2.9145,-2.9145,-2.9145,-2.9112,-2.9017,-2.9078,-2.9145,-2.9145,-2.9363,-2.9504,-2.9504,-2.9635,-2.9739,-2.9796,-2.9931,-3.0044,-3.0177,-3.0337,-3.0472,-3.0537,-3.0537,-3.057,0.0,0.0,0.0,0.0,0.0,0.0,0.0,0.0,0.0,0.0,0.0,0.0,0.0,0.0,0.0,0.0,0.0,0.0,0.0,0.0,0.0,0.0,0.0,0.0,0.0,-3.119,-3.119,-3.119,-3.119,-3.119,-3.119,-3.0531,-3.0006,-2.9753,-2.8517,-2.7689,-2.7435,-2.6962,-2.6691,-2.6691,-2.6691,-2.6691,-2.6691,-2.6691,-2.6691,-2.6691,-2.6691,-2.6691,-2.6691,-2.6691,-2.6691,-2.6691,-2.6691,-2.6691,-2.6725,-2.7004,-2.7239,-2.7515,-2.7779,-2.8368,-2.899,-2.877,-2.9198,-2.9865,-2.9585,-2.9497,-2.9408,-2.8862,-2.8333,-2.7897,-2.7897,-2.7897,-2.7897,-2.7897,-2.7897,-2.7869,-2.7722,-2.7811,-2.784,-2.756,-2.7589,-2.7692,-2.7692,-2.7692,-2.7754,-2.7883,-2.8281,-2.8626,-2.8626,-2.8725,-2.8797,-2.8797,-2.8917,-2.9005,-2.9005,-2.9005,-2.9005,-2.9005,-2.9167,-2.9267,-2.9267,-2.9395,-2.9495,-2.9598,-2.9712,-2.9829,-2.9901,-3.0129,-3.0297,-3.0323,-3.0414,-3.0498,-3.0561,0.0,0.0,0.0,0.0,0.0,0.0,0.0,0.0,0.0,0.0,0.0,0.0,0.0,0.0,0.0,0.0,0.0,0.0,0.0,0.0,0.0,0.0,0.0,-3.0975,-3.1151,-3.1151,-3.1151,-3.1151,-3.1171,-3.1151,-3.0492,-2.9766,-2.9022,-2.8227,-2.7468,-2.6725,-2.6691,-2.6674,-2.6657,-2.6657,-2.6657,-2.6657,-2.6657,-2.6657,-2.6657,-2.6657,-2.6657,-2.6674,-2.6657,-2.6674,-2.6691,-2.6691,-2.6691,-2.6691,-2.6691,-2.6691,-2.6775,-2.756,-2.7869,-2.7883,-2.7869,-2.7869,-2.7869,-2.7869,-2.7869,-2.7869,-2.7869,-2.7869,-2.7869,-2.7869,-2.7869,-2.7869,-2.7869,-2.7869,-2.7765,-2.7378,-2.756,-2.7681,-2.689,-2.6987,-2.7288,-2.7288,-2.7288,-2.7411,-2.7797,-2.7869,-2.7869,-2.7897,-2.817,-2.8376,-2.8376,-2.8725,0.0,-2.897,-2.897,-2.897,-2.8982,-2.8982,-2.8994,-2.9005,-2.9005,-2.9112,-2.9372,-2.9402,-2.9484,-2.9678,-2.9885,-2.9999,-3.0006,-3.0254,-3.0419,-3.0498,0.0,0.0,0.0,0.0,0.0,0.0,0.0,0.0,0.0,0.0,0.0,0.0,0.0,0.0,0.0,0.0,0.0,0.0,0.0,0.0,0.0,-2.9518,-2.9518,-2.9848,-2.9892,-2.9892,-2.9892,-3.0272,-3.0393,-2.9935,-2.9613,-2.9164,-2.8542,-2.7794,-2.7044,-2.6386,-2.6338,-2.6113,-2.5633,-2.5617,-2.5617,-2.5617,-2.5617,-2.5617,-2.5617,-2.5617,-2.5817,-2.6191,-2.5799,-2.6016,-2.6674,-2.6332,-2.6384,-2.6691,-2.6691,-2.6691,-2.6725,-2.6938,-2.721,-2.7424,-2.7131,-2.7019,-2.7019,-2.7019,-2.7019,-2.7019,-2.7019,-2.7019,-2.7019,-2.7019,-2.7019,-2.7019,-2.7019,-2.7019,-2.7003,-2.689,-2.6955,-2.6971,-2.6758,-2.6774,-2.6857,-2.6857,-2.6857,-2.6906,-2.7003,-2.7019,-2.7225,-2.7811,-2.7982,-2.8034,-2.8034,-2.8134,-2.8201,-2.8201,-2.8201,-2.8295,-2.854,-2.8565,-2.8682,-2.8982,-2.9005,-2.904,-2.91,-2.9289,-2.9414,-2.9474,-2.9678,-2.9853,-2.9999,-3.0075,-3.0233,0.0,0.0,0.0,0.0,0.0,0.0,0.0,0.0,0.0,0.0,0.0,0.0,0.0,0.0,0.0,0.0,0.0,0.0,0.0,0.0,0.0,0.0,-2.881,-2.8662,-2.8662,-2.9088,-2.9406,-2.9406,-2.9717,-2.9783,-2.9429,-2.9324,-2.9016,-2.8345,-2.7902,-2.7354,-2.6668,-2.6616,-2.6429,-2.6054,-2.6039,-2.6039,-2.6039,-2.6039,-2.6039,-2.6023,-2.5755,-2.5783,-2.607,-2.548,-2.5524,-2.6052,-2.5781,-2.5817,-2.607,-2.607,-2.607,-2.6105,0.0,0.0,0.0,0.0,-2.6691,-2.6691,-2.6691,-2.6691,-2.6691,-2.6691,-2.6691,-2.6691,-2.6691,-2.6691,-2.6691,-2.6691,-2.6691,-2.6691,-2.6691,-2.6691,-2.6691,-2.6691,-2.6691,-2.6691,-2.6691,-2.6691,-2.6691,-2.6691,-2.6691,0.0,-2.7319,-2.7547,-2.7648,-2.7648,-2.7797,-2.7897,-2.7897,-2.7897,-2.7964,-2.817,-2.8197,-2.8329,-2.8725,-2.8749,0.0,0.0,0.0,-2.9278,-2.9402,-2.9513,0.0,0.0,0.0,-3.0016,-3.029,-3.0207,0.0,0.0,-3.0507,-3.0507,0.0,0.0,0.0,0.0,0.0,0.0,0.0,0.0,0.0,0.0,0.0,0.0,0.0,0.0,0.0,0.0,-2.7944,-2.76,-2.76,-2.8519,-2.9203,-2.9203,-2.9248,-2.9271,-2.9203,-2.9248,-2.9016,-2.8269,-2.8221,-2.7898,-2.7173,-2.7142,0.0,0.0,0.0,-2.7031,-2.7031,-2.7031,-2.7031,-2.7015,-2.6419,-2.6159,-2.6204,-2.5532,-2.5277,-2.531,-2.5236,-2.5208,-2.5202,-2.5202,-2.5202,-2.5281,-2.6245,-2.6657,-2.6691,-2.6691,-2.6691,-2.6691,-2.6691,0.0,0.0,-2.6691,-2.6691,-2.6691,-2.6691,-2.6691,-2.6691,-2.6691,-2.6691,-2.6691,-2.6691,-2.6691,-2.6691,-2.6691,-2.6691,-2.6691,-2.6691,-2.6691,-2.6691,-2.6691,-2.6691,-2.6691,-2.6691,-2.7004,-2.7241,-2.7241,-2.7547,-2.7751,-2.7751,-2.7751,-2.7783,-2.7826,-2.784,0.0,-2.8298,-2.8381,-2.8552,-2.8917,-2.8964,-2.9112,-2.9351,-2.9361,-2.9445,-2.9661,-2.9661,-2.9773,-2.9969,-2.978,-2.9904,-3.0311,-3.0413,-3.0423,0.0,0.0,0.0,0.0,0.0,0.0,0.0,0.0,0.0,0.0,0.0,0.0,0.0,0.0,0.0,-2.776,-2.7675,-2.76,-2.76,-2.7795,-2.7944,-2.7944,-2.8391,-2.8472,-2.7993,-2.8391,-2.8401,-2.7771,-2.7746,-2.7434,-2.6743,-2.6713,-2.647,-2.5925,-2.5909,-2.5909,-2.5909,-2.5909,-2.5909,-2.5909,-2.5773,0.0,-2.6352,-2.5764,-2.5704,-2.5983,-2.5555,-2.5307,-2.5202,-2.5202,-2.5202,-2.5259,-2.589,-2.6367,-2.6691,-2.6691,-2.6691,-2.6691,-2.6691,-2.6691,-2.6691,-2.6691,-2.6691,-2.6691,-2.6691,-2.6691,0.0,-2.6691,-2.6691,-2.6691,-2.6691,-2.6691,-2.6691,-2.6691,-2.6691,-2.6691,-2.6691,-2.6691,-2.6691,-2.6691,-2.6691,-2.6691,-2.6691,-2.6758,-2.6825,-2.6825,-2.6873,-2.6939,-2.6939,-2.6939,-2.7051,-2.7378,-2.7426,-2.7574,-2.795,-2.8232,-2.8433,-2.8515,-2.8827,-2.901,-2.9085,-2.9078,-2.9192,-2.9454,-2.9464,-2.957,-2.9765,-2.9722,-2.9748,-2.984,-3.0028,-3.0209,0.0,0.0,0.0,0.0,0.0,0.0,0.0,0.0,0.0,0.0,0.0,-2.76,0.0,0.0,-2.76,-2.76,-2.76,-2.76,-2.76,-2.76,-2.76,-2.76,-2.786,-2.7919,-2.7625,-2.7885,-2.7919,-2.7625,-2.76,-2.745,-2.7121,-2.7106,-2.6956,-2.6602,-2.6587,-2.6587,-2.6587,-2.6587,-2.6587,-2.6587,-2.6258,-2.6236,-2.6488,-2.589,-2.5705,-2.5867,-2.5618,-2.528,-2.4864,-2.4544,-2.4572,-2.4831,-2.5089,-2.5672,-2.6367,-2.6607,-2.6691,-2.6691,-2.6691,-2.6691,-2.6691,-2.6691,-2.6691,-2.6691,-2.6691,-2.6691,-2.6691,-2.6691,-2.6691,-2.6691,-2.6691,-2.6691,-2.6691,-2.6691,-2.6691,-2.6691,-2.6691,-2.6691,-2.6691,-2.6691,-2.6691,-2.6691,-2.6691,-2.6691,-2.6691,-2.6691,-2.6691,-2.6691,-2.6691,-2.6691,-2.6775,-2.6988,-2.6987,-2.7162,-2.7577,-2.8084,-2.8407,-2.8407,-2.8773,-2.9005,-2.9005,-2.9005,-2.9055,-2.9211,-2.9192,-2.9312,-2.9542,-2.9425,-2.9456,-2.9705,-2.9705,-2.9823,0.0,0.0,0.0,0.0,0.0,0.0,0.0,0.0,-2.76,-2.76,-2.76,-2.76,-2.76,-2.76,-2.76,-2.76,-2.76,-2.76,-2.76,-2.76,-2.76,-2.76,-2.76,-2.76,-2.76,-2.76,-2.76,-2.76,-2.76,-2.76,-2.76,-2.76,-2.76,-2.76,-2.76,-2.76,-2.76,-2.76,-2.76,-2.7585,-2.7061,-2.6782,-2.6791,-2.6228,-2.5914,-2.5794,-2.5674,-2.5277,-2.4754,-2.4223,-2.4176,-2.4461,-2.455,-2.5041,-2.5744,-2.6228,-2.6402,-2.6402,-2.6402,-2.6402,-2.6402,-2.6402,-2.6487,-2.6556,-2.6556,-2.6641,-2.6691,-2.6691,-2.6691,-2.6691,-2.6691,-2.6691,-2.6691,-2.6691,-2.6691,-2.6691,-2.6691,-2.6691,-2.6691,-2.6691,-2.6691,-2.6691,-2.6691,-2.6691,-2.6691,-2.6691,-2.6691,-2.6691,-2.6691,-2.6691,-2.6691,-2.6691,-2.6691,-2.6857,-2.7272,-2.783,-2.8219,-2.8303,-2.8608,-2.8815,-2.8875,-2.8875,-2.8917,-2.9005,-2.9005,-2.9112,-2.932,-2.91,-2.9195,-2.9561,-2.9404,-2.9455,-2.7408,-2.76,-2.76,-2.76,-2.76,-2.76,0.0,0.0,-2.76,-2.76,-2.76,-2.76,-2.76,-2.76,-2.76,-2.76,-2.76,-2.76,-2.76,-2.76,-2.76,-2.76,-2.76,-2.76,-2.76,-2.76,-2.76,-2.76,-2.76,-2.76,-2.76,-2.76,-2.76,-2.76,-2.76,-2.76,-2.76,-2.76,-2.76,-2.76,-2.7525,-2.748,-2.748,-2.7405,-2.7061,-2.6437,-2.5869,-2.557,-2.5472,-2.542,-2.5054,-2.4604,-2.5115,-2.501,-2.4637,-2.5166,-2.5373,-2.5373,-2.5373,-2.5373,-2.5373,-2.5373,-2.5689,-2.6085,-2.6085,-2.6367,-2.6691,-2.6691,-2.6691,-2.6691,-2.6691,-2.6691,-2.6691,-2.6691,-2.6691,-2.6691,-2.6691,-2.6691,-2.6691,-2.6691,-2.6691,-2.6691,-2.6691,-2.6691,-2.6691,-2.6691,-2.6691,-2.6691,-2.6691,-2.6691,-2.6691,-2.6691,-2.6691,-2.6857,-2.7272,-2.7378,-2.7574,-2.7922,-2.7996,-2.8161,-2.8446,-2.8458,-2.8645,-2.8994,-2.9005,-2.8998,-2.9033,-2.8998,-2.904,-2.9089,-2.9055,-2.9272,-2.6878,-2.728,-2.7484,0.0,-2.728,-2.76,-2.76,-2.76,-2.76,-2.76,-2.7914,-2.8173,-2.8173,-2.8513,-2.8768,0.0,-2.8768,-2.8768,-2.8768,-2.8438,-2.8173,-2.8173,-2.7839,-2.76,-2.76,-2.76,-2.76,-2.76,-2.76,-2.76,-2.76,-2.76,-2.76,-2.76,-2.76,-2.76,-2.76,-2.76,-2.76,-2.76,-2.76,-2.76,-2.76,-2.76,-2.745,-2.7151,-2.6467,-2.6183,-2.6153,-2.5764,-2.5427,-2.5196,-2.5432,-2.5363,-2.5109,-2.5155,-2.5202,-2.5202,-2.5202,-2.5202,-2.5202,-2.5202,-2.5354,-2.5524,-2.5524,-2.5672,-2.5819,-2.5819,-2.5819,-2.5819,-2.5819,-2.5819,-2.5908,-2.621,-2.6297,-2.6367,-2.6641,-2.6691,-2.6691,-2.6691,-2.6691,-2.6691,-2.6691,-2.6691,-2.6691,-2.6691,-2.6691,-2.6691,-2.6691,-2.6691,-2.6691,-2.6691,-2.6691,-2.6775,-2.6939,-2.7162,-2.7363,-2.753,-2.7783,-2.795,-2.8102,-2.8102,-2.8277,-2.8645,-2.8469,-2.8576,-2.9005,-2.8761,-2.8773,-2.9005,-2.9005,-2.9104,-2.6203,-2.6575,0.0,-2.6336,-2.6733,-2.735,-2.7528,-2.7742,-2.7929,-2.8109,-2.8558,-2.8876,-2.8876,-2.9265,-2.9606,-2.9606,-2.9606,-2.9606,-2.9606,-2.9175,-2.8876,-2.8876,-2.8453,-2.8079,-2.7899,-2.7705,-2.76,-2.76,-2.76,-2.76,-2.76,-2.76,-2.76,-2.76,-2.76,-2.76,-2.76,-2.76,-2.76,-2.76,-2.76,-2.76,-2.76,-2.76,-2.76,-2.757,-2.7091,-2.6881,-2.6851,-2.6348,-2.6033,-2.5884,-2.5884,-2.5764,-2.5573,-2.5377,-2.5188,-2.5019,-2.4835,-2.4772,-2.4772,-2.4772,-2.4871,-2.4973,-2.4973,-2.507,-2.5202,-2.5202,-2.5202,-2.5202,-2.5202,-2.5202,-2.5297,-2.5689,-2.5781,-2.5924,-2.6401,-2.6385,-2.6333,-2.647,-2.6401,-2.6298,-2.6298,-2.6298,-2.6333,-2.6487,-2.6505,-2.6539,-2.6674,-2.6691,-2.6691,-2.6691,-2.6691,-2.6691,-2.6691,-2.6971,-2.7131,-2.7131,-2.7409,-2.7619,-2.7739,-2.7722,-2.7908,-2.8264,-2.802,-2.8161,-2.8688,-2.8412,-2.8412,-2.8688,-2.8803,-2.8839,0.0,0.0,-2.5453,-2.5425,-2.5987,-2.6695,-2.7355,-2.8057,-2.8742,-2.9412,-2.9562,-2.9577,-2.9577,-2.9592,-2.9606,-2.9606,-2.9606,-2.9606,-2.9606,-2.9592,-2.9577,-2.9577,-2.9562,-2.9292,-2.8622,-2.7989,-2.76,-2.76,-2.76,-2.76,-2.76,-2.76,-2.76,-2.76,-2.76,-2.76,-2.76,-2.76,-2.76,-2.76,-2.76,-2.76,-2.76,-2.76,-2.76,-2.76,-2.757,-2.757,-2.757,-2.754,-2.7165,-2.6557,-2.6557,-2.6168,-2.56,-2.5578,-2.5182,-2.4515,-2.3863,-2.3659,-2.3659,-2.3659,-2.3991,-2.443,-2.443,-2.4792,-2.5202,-2.5202,-2.5202,-2.5202,-2.5202,-2.5202,-2.5186,-2.5221,-2.5221,-2.5373,-2.5906,-2.5615,-2.5392,-2.5924,-2.5615,-2.5259,-2.5259,-2.5259,-2.5411,-2.5943,-2.6031,-2.6191,-2.6641,-2.6691,-2.6691,-2.6691,-2.6691,-2.6691,-2.6691,-2.6708,-2.6725,-2.6725,-2.6725,-2.6906,-2.7303,-2.7334,-2.7517,-2.7911,-2.7911,-2.7911,-2.794,-2.7926,-2.7926,-2.794,-2.8264,-2.842,0.0,0.0,-2.5287,-2.4794,-2.5925,-2.7214,-2.7458,-2.841,-2.9337,-2.9562,-2.9909,-3.0193,-3.0193,-3.0567,-3.0853,-3.0853,-3.0409,-3.025,-3.0781,-3.0011,-2.9405,-2.9405,-2.8997,0.0,0.0,-2.8332,-2.8094,-2.763,-2.76,-2.76,-2.76,-2.76,-2.76,-2.76,-2.76,-2.76,-2.76,-2.76,-2.76,-2.76,-2.76,-2.76,-2.76,-2.76,-2.76,-2.76,-2.76,-2.76,-2.76,-2.76,-2.7465,-2.727,-2.727,-2.7136,-2.6881,-2.6422,-2.6123,-2.5779,-2.4634,-2.4261,-2.4186,-2.3744,-2.3709,-2.3879,-2.3879,-2.4006,-2.4137,-2.4137,-2.4137,-2.4137,-2.4137,-2.4137,-2.4241,-2.4592,-2.4672,-2.4831,-2.5354,-2.5335,-2.5259,-2.543,-2.5316,-2.5202,-2.5202,-2.5202,-2.5259,-2.543,-2.605,-2.6505,-2.6674,-2.6691,-2.6691,-2.6691,-2.6691,-2.6691,-2.6691,-2.6691,-2.6691,-2.6691,-2.6691,-2.6758,-2.689,-2.6906,-2.7083,-2.7485,-2.7241,-2.738,-2.7897,-2.7619,-2.7634,-2.7911,-2.8024,-2.8197,0.0,-2.4221,-2.452,-2.4262,-2.5663,-2.7228,-2.7641,-2.8877,-2.9983,-3.0223,-3.0597,-3.0866,-3.0866,-3.1212,-3.1511,-3.1511,-3.1058,-3.0807,-3.1029,-3.0514,-2.9841,-2.9261,-2.9098,-2.8915,0.0,0.0,-2.8702,-2.8338,-2.8319,-2.8214,-2.7974,-2.7959,-2.7854,-2.76,-2.76,-2.76,-2.76,-2.76,-2.76,-2.76,-2.76,-2.76,-2.76,-2.76,-2.76,-2.76,-2.76,-2.76,-2.76,-2.76,-2.76,-2.76,-2.76,-2.76,-2.754,-2.7121,-2.6971,-2.6776,-2.5412,-2.4963,-2.4889,-2.4462,-2.4163,-2.3969,-2.3969,-2.3789,-2.3595,-2.3595,-2.3595,-2.3595,-2.3595,-2.3595,-2.3702,-2.4032,-2.4116,-2.4266,-2.4796,-2.4756,-2.4677,-2.4875,-2.4772,-2.4632,-2.4632,-2.4792,-2.4914,-2.4914,-2.5783,-2.6453,-2.6453,-2.6607,-2.6691,-2.6691,-2.6691,-2.6691,-2.6691,-2.6691,-2.6691,-2.6691,-2.6691,-2.6691,-2.6691,-2.6691,-2.6808,-2.7083,-2.6824,-2.6938,-2.747,-2.721,-2.7225,-2.747,-2.7619,-2.7808,-2.3108,-2.3133,-2.3283,-2.3866,-2.5263,-2.6783,-2.7933,-2.942,-3.0746,-3.1376,-3.1511,-3.1511,0.0,0.0,-3.1511,-3.1511,-3.1438,-3.1117,-3.0389,-3.0866,-3.0748,0.0,0.0,0.0,0.0,0.0,-2.9305,-2.955,-2.9582,-2.931,-2.8682,-2.8652,-2.8338,-2.7675,-2.7645,-2.763,-2.76,-2.76,-2.76,-2.76,-2.76,-2.76,-2.76,-2.76,-2.76,-2.76,-2.76,-2.76,-2.76,-2.76,-2.76,-2.76,-2.76,-2.76,-2.76,-2.76,-2.76,-2.742,-2.6138,-2.5689,-2.5659,-2.5615,-2.5173,-2.4649,-2.4649,-2.4201,-2.3699,-2.3699,-2.3699,-2.3684,-2.3655,-2.3655,-2.364,-2.361,-2.3595,-2.3745,-2.4246,-2.3964,-2.3752,-2.4266,-2.3948,-2.3595,-2.3595,-2.4012,-2.4348,-2.4348,-2.5259,-2.5941,-2.5979,-2.6401,-2.6691,-2.6691,-2.6691,-2.6691,-2.6691,-2.6691,-2.6691,-2.6691,-2.6691,-2.6691,-2.6691,-2.6691,-2.6691,-2.6691,-2.6691,-2.6691,-2.6691,-2.6691,-2.6691,-2.6708,-2.7083,-2.7288,-2.3108,-2.3421,-2.3816,-2.3966,-2.5888,-2.7809,-2.8127,-2.9782,-3.1286,-3.1466,-3.1511,-3.1511,0.0,0.0,0.0,-3.1511,-3.045,0.0,-3.0238,-2.9348,0.0,-2.8971,0.0,-2.8566,-2.9031,-2.8484,0.0,-2.9116,-2.9431,-2.9532,-2.9367,-2.9367,-2.9052,-2.8368,-2.8338,-2.8124,-2.76,-2.76,-2.76,-2.76,-2.76,-2.76,-2.76,-2.76,-2.76,-2.76,-2.76,-2.76,-2.76,-2.76,-2.76,-2.76,-2.76,-2.76,-2.76,-2.76,-2.76,-2.754,-2.721,-2.6752,-2.6258,-2.5764,-2.5472,-2.5337,-2.5337,-2.5241,-2.5091,-2.5091,-2.5091,-2.4986,-2.447,-2.435,-2.4216,-2.3729,-2.3595,-2.3638,-2.3773,-2.3702,-2.3638,-2.3773,-2.3702,-2.3595,-2.3595,-2.3709,-2.3794,-2.3794,-2.4369,-2.5105,-2.5888,-2.6401,-2.6691,-2.6691,-2.6691,-2.6691,-2.6691,-2.6691,-2.6691,-2.6691,-2.6691,-2.6691,-2.6691,-2.6691,-2.6691,-2.6691,-2.6691,-2.6691,-2.6691,-2.6691,-2.6691,-2.6691,-2.6808,-2.7003,-2.3409,-2.3753,-2.4104,-2.4582,-2.6471,-2.8266,-2.8498,-3.0069,-3.1511,-3.1511,-3.1511,0.0,-3.1511,-3.1511,-3.1511,0.0,0.0,0.0,-2.969,-2.8907,-2.8182,0.0,-2.7769,0.0,-2.8363,-2.7986,-2.8051,-2.8939,-2.9547,-2.9792,-2.9469,-2.9803,-2.9699,-2.9056,-2.8742,-2.8263,-2.76,-2.76,-2.76,-2.76,-2.76,-2.76,-2.76,-2.76,-2.76,-2.76,-2.76,-2.76,-2.76,-2.76,-2.76,-2.76,-2.76,-2.76,-2.76,-2.76,-2.76,-2.76,-2.76,-2.7345,-2.6986,-2.6587,-2.6273,-2.6033,-2.6033,-2.5839,-2.5615,-2.5615,-2.5615,-2.5501,-2.5128,-2.5038,-2.4874,-2.4186,-2.4044,-2.3969,-2.367,-2.3595,-2.3595,-2.3595,-2.3595,-2.3595,-2.3595,-2.3595,-2.3595,-2.3595,-2.4261,-2.4969,-2.5577,-2.6086,-2.6384,-2.6384,-2.659,-2.6691,-2.6691,-2.6691,-2.6691,-2.6691,-2.6691,-2.6691,-2.6691,-2.6691,-2.6691,-2.6691,-2.6691,-2.6691,-2.6691,-2.6691,-2.6691,-2.6691,-2.6691,-2.6808,-2.4008,-2.4248,-2.4621,-2.5557,-2.7128,-2.86,-2.9066,-3.0389,-3.1511,-3.1511,0.0,-3.1511,-3.1511,-3.1409,-3.138,-3.1467,0.0,-2.9721,-2.9097,-2.8812,-2.8182,-2.6816,-2.7196,-2.7571,-2.7703,-2.7604,-2.7855,-2.862,-2.9473,-2.9813,-2.9447,-3.0202,-3.0357,-2.9756,-2.9071,-2.8397,-2.775,-2.7735,-2.769,-2.76,-2.76,-2.76,-2.76,-2.76,-2.76,-2.76,-2.76,-2.76,-2.76,-2.76,-2.76,-2.76,-2.76,-2.76,-2.76,-2.76,-2.76,-2.76,-2.76,-2.76,-2.76,-2.76,-2.721,-2.6722,-2.6722,-2.6318,-2.5869,-2.5869,-2.5869,-2.5854,-2.5764,-2.5734,-2.557,-2.4889,-2.4739,-2.4545,-2.3879,-2.367,-2.3595,-2.3595,-2.3595,-2.3595,-2.3595,-2.3595,-2.3616,-2.3702,-2.4491,-2.5125,-2.5202,-2.5726,-2.6086,-2.6086,-2.6401,-2.6641,-2.6691,-2.6641,-2.6641,-2.6691,-2.6691,-2.6691,-2.6691,-2.6691,-2.6691,-2.6691,-2.6691,-2.6691,-2.6691,-2.6691,-2.6691,-2.6691,-2.6691,-2.6691,-2.4896,-2.5646,-2.6437,-2.6633,-2.8308,-2.9974,-3.0043,-3.0807,0.0,0.0,-3.1511,-3.1511,-3.1511,-3.097,-3.0748,-3.138,-2.9628,-2.833,-2.8907,-2.7802,-2.7061,0.0,-2.704,-2.6973,-2.7637,-2.7095,0.0,-2.6905,-2.7703,-2.8739,-3.005,-3.0896,-3.1017,-3.0357,-2.9744,-2.9086,-2.8427,-2.8427,-2.8154,-2.76,-2.76,-2.76,-2.76,-2.76,-2.76,-2.76,-2.76,-2.76,-2.76,-2.76,-2.76,-2.76,-2.76,-2.76,-2.76,-2.76,-2.76,-2.76,-2.76,-2.76,-2.76,-2.76,-2.7525,-2.742,-2.742,-2.7345,-2.7255,-2.7255,-2.7255,-2.7136,-2.6557,-2.6422,-2.6258,-2.56,-2.5435,-2.5232,-2.4575,-2.3999,-2.3595,-2.3595,-2.3595,-2.3595,-2.3595,-2.3595,-2.3752,-2.4184,-2.443,-2.4712,-2.5144,-2.6016,-2.659,-2.659,-2.6297,-2.6279,-2.6674,-2.6349,-2.6297,-2.6674,-2.6691,-2.6691,-2.6691,-2.6691,-2.6691,-2.6691,-2.6691,-2.6691,-2.6691,-2.6691,-2.6691,-2.6691,-2.6691,-2.6691,-2.6532,-2.7145,-2.7646,-2.7926,-2.917,-3.0299,-3.0299,0.0,0.0,0.0,-3.1511,-3.1511,-3.1511,-3.119,0.0,-3.0866,-2.9473,-2.8363,-2.833,-2.7263,-2.6658,-2.704,-2.6714,-2.6658,-2.704,-2.6714,-2.6499,-2.6499,-2.7263,-2.8279,-2.9535,-3.0807,-3.1009,-2.9913,-3.0013,-2.9759,-2.9116,-2.9116,-2.8771,-2.8113,-2.8113,-2.7944,-2.76,-2.76,-2.76,-2.76,-2.76,-2.76,-2.76,-2.76,-2.76,-2.76,-2.76,-2.76,-2.76,-2.76,-2.76,-2.76,-2.76,-2.76,-2.76,-2.76,-2.76,-2.76,-2.76,-2.76,-2.76,-2.76,-2.76,-2.7525,-2.721,-2.7121,-2.6956,-2.6273,-2.5854,-2.5501,-2.5187,-2.4881,-2.4537,-2.4208,-2.4111,-2.4007,-2.3655,-2.3595,-2.3773,-2.4307,-2.4652,-2.5012,-2.5559,-2.6245,-2.6607,-2.6367,-2.6349,-2.6453,-2.6674,-2.6487,-2.6453,-2.6691,-2.6691,-2.6691,-2.6691,-2.6691,-2.6691,-2.6691,-2.6691,-2.6691,-2.6691,-2.6691,-2.6691,-2.6691,-2.6691,-2.6691,-2.8174,-2.8538,-2.8747,-2.916,-2.9919,-3.0554,-3.0554,-3.1058,0.0,0.0,-3.1511,-3.1511,-3.1511,0.0,-3.1087,0.0,-2.9504,-2.8556,-2.8051,-2.7129,-2.6499,0.0,-2.6499,0.0,-2.6499,-2.6499,0.0,-2.6499,-2.7263,-2.8084,-2.8939,-3.0419,-3.0705,-2.9534,-3.0305,-3.0417,-2.9789,-2.9774,-2.9445,-2.8801,-2.8801,-2.8558,-2.8019,-2.7884,-2.7809,-2.7809,-2.766,-2.76,-2.76,-2.76,-2.76,-2.76,-2.76,-2.76,-2.76,-2.76,-2.76,-2.76,-2.76,-2.76,-2.76,-2.76,-2.76,-2.76,-2.76,-2.76,-2.76,-2.76,-2.76,-2.76,-2.76,-2.76,-2.7465,-2.6941,-2.6303,-2.5809,-2.5809,-2.5704,-2.5427,-2.4918,-2.4814,-2.459,-2.3939,-2.3819,-2.3954,-2.4338,-2.4871,-2.5392,-2.5924,-2.6401,-2.6573,-2.6191,-2.6384,-2.659,-2.6691,-2.6607,-2.659,-2.6691,-2.6691,-2.6691,-2.6691,-2.6691,-2.6691,-2.6691,-2.6691,-2.6691,-2.6691,-2.6691,-2.6691,-2.6691,-2.6691,-2.6691,-2.9172,-2.9646,-3.0136,-3.0149,-3.0807,-3.138,-3.138,0.0,0.0,-3.1511,-3.1511,-3.1511,-3.1511,0.0,0.0,0.0,0.0,-2.8084,-2.878,-2.7517,-2.6499,-2.6499,0.0,0.0,-2.6499,-2.6499,-2.6499,-2.6499,-2.7263,-2.8084,-2.8939,-2.9889,-3.033,-3.0212,-3.0999,-3.1077,-3.0417,-3.0417,-3.0103,-2.9517,-2.9517,-2.9487,-2.9412,-2.8786,-2.8502,-2.8472,-2.7869,-2.76,-2.76,-2.76,-2.76,-2.76,-2.76,-2.76,-2.76,-2.76,-2.76,-2.76,-2.76,-2.76,-2.76,-2.76,-2.76,-2.76,-2.76,-2.76,-2.76,-2.76,-2.76,-2.76,-2.76,-2.76,-2.7585,-2.7525,-2.7001,-2.6497,-2.6497,-2.6033,-2.5576,-2.5516,-2.5501,-2.5315,-2.4619,-2.4515,-2.4475,-2.44,-2.4871,-2.5392,-2.5924,-2.6401,-2.6674,-2.6641,-2.6297,-2.6244,-2.6657,-2.6314,-2.6244,-2.6674,-2.6691,-2.6691,-2.6691,-2.6691,-2.6691,-2.6691,-2.6691,-2.6691,-2.6691,-2.6691,-2.6691,-2.6691,-2.6691,-2.6691,-3.0498,-3.0837,-3.1029,-3.1029,-3.1248,-3.1511,-3.1511,0.0,-3.1511,-3.1511,-3.1511,-3.1511,-3.1511,0.0,0.0,0.0,0.0,0.0,-2.7571,-2.6905,-2.6499,-2.6499,-2.6499,0.0,0.0,0.0,-2.6499,-2.6499,-2.6816,-2.7129,-2.7484,-2.878,-2.9286,-2.8748,-3.0042,-3.0646,-3.0382,-3.0877,-3.0791,-3.0133,-3.0133,-2.9939,-2.9592,-2.931,-2.919,-2.9146,-2.8487,-2.8188,-2.8184,-2.7764,-2.76,-2.76,-2.76,-2.76,-2.76,-2.76,-2.76,-2.76,-2.76,-2.76,-2.76,-2.76,-2.76,-2.76,-2.76,-2.76,-2.76,-2.76,-2.76,-2.76,-2.76,-2.76,-2.76,-2.76,-2.7405,-2.721,-2.721,-2.7001,-2.6677,-2.6273,-2.6198,-2.5989,-2.5307,-2.5187,-2.5153,-2.5006,-2.5458,-2.5854,-2.599,-2.6401,-2.6691,-2.6691,-2.6522,-2.6504,-2.6691,-2.6539,-2.6487,-2.6691,-2.6691,-2.6691,-2.6691,-2.6691,-2.6691,-2.6691,-2.6691,-2.6691,-2.6691,-2.6691,-2.6691,-2.6691,-2.6691,-2.6691,-3.1376,-3.1511,-3.1511,-3.1511,-3.1511,-3.1511,0.0,0.0,0.0,-3.1511,-3.1511,-3.1511,-3.1511,0.0,0.0,0.0,0.0,-2.8214,-2.704,-2.6658,-2.6499,-2.6499,0.0,-2.6499,-2.6499,-2.6499,-2.6499,-2.6499,-2.6714,-2.685,-2.685,-2.8214,-2.8716,-2.8117,-2.9535,-3.0419,-3.0644,-3.1219,-3.1256,-3.0806,-3.0806,-3.0582,-3.0163,-2.9953,-2.9864,-2.9819,-2.9175,-2.8891,-2.8846,-2.8393,-2.8079,-2.7899,-2.7899,-2.7779,-2.76,-2.76,-2.76,-2.76,-2.76,-2.76,-2.76,-2.76,-2.76,-2.76,-2.76,-2.76,-2.76,-2.76,-2.76,-2.76,-2.76,-2.76,-2.76,-2.76,-2.76,-2.76,-2.76,-2.76,-2.7465,-2.7001,-2.6911,-2.6677,-2.6019,-2.5899,-2.5815,-2.5489,-2.5753,-2.5994,-2.6043,-2.6308,-2.6556,-2.6691,-2.6691,-2.6691,-2.6691,-2.6691,-2.6691,-2.6691,-2.6691,-2.6691,-2.6691,-2.6691,-2.6691,-2.6691,-2.6691,-2.6691,-2.6691,-2.6691,-2.6691,-2.6691,-2.6691,-2.6691,-3.1511,-3.1511,-3.1511,-3.1511,-3.1511,-3.1511,0.0,0.0,0.0,-3.1511,-3.1511,-3.1511,-3.1511,0.0,0.0,0.0,0.0,0.0,-2.7703,-2.7007,-2.6499,0.0,0.0,-2.6499,-2.6499,-2.6499,-2.6499,-2.6499,-2.7229,-2.7703,-2.7703,-2.8524,-2.9002,-2.9002,-2.9858,-3.0673,-3.1467,-3.1511,-3.1511,-3.1496,-3.1496,-3.1496,-3.1466,-3.0806,-3.0492,-3.0462,-2.9834,-2.9592,-2.9592,-2.9592,-2.9175,-2.8592,-2.8592,-2.8173,-2.76,-2.76,-2.76,-2.76,-2.76,-2.76,-2.76,-2.76,-2.76,-2.76,-2.76,-2.76,-2.76,-2.76,-2.76,-2.76,-2.76,-2.76,-2.76,-2.76,-2.76,-2.76,-2.76,-2.76,-2.76,-2.7585,-2.7585,-2.7375,-2.6716,-2.6572,-2.6363,-2.5704,-2.549,-2.5591,-2.6134,-2.6089,-2.6191,-2.6657,-2.6691,-2.6691,-2.6691,-2.6691,-2.6691,-2.6691,-2.6691,-2.6691,-2.6691,-2.6691,-2.6691,-2.6691,-2.6691,-2.6691,-2.6691,-2.6691,-2.6691,-2.6691,-2.6691,-2.6691,-3.1511,-3.1511,-3.1511,-3.1511,-3.1511,-3.1511,-3.1511,0.0,0.0,-3.1511,-3.1511,-3.1511,-3.1511,0.0,0.0,0.0,0.0,0.0,0.0,0.0,0.0,-2.6499,-2.6499,-2.6499,-2.6499,-2.6499,-2.6499,-2.6499,-2.6748,-2.7129,-2.767,-2.7953,-2.8363,-2.8971,-2.9858,-3.0419,-3.0673,-3.1219,-3.1511,-3.1511,-3.1511,-3.1511,-3.1496,-3.1271,-3.1182,-3.1137,-3.0507,-3.0223,-3.0178,-2.9786,-2.9487,-2.9265,-2.9265,-2.9157,-2.8978,-2.8978,-2.8693,-2.8278,-2.8278,-2.7989,-2.76,-2.76,-2.76,-2.76,-2.76,-2.76,-2.76,-2.76,-2.76,-2.76,-2.76,-2.76,-2.76,-2.76,-2.76,-2.76,-2.76,-2.76,-2.76,-2.76,-2.76,-2.7525,-2.733,-2.7285,-2.7061,-2.6378,-2.6558,-2.6823,-2.6955,-2.7225,-2.7665,-2.8212,-2.7774,-2.7249,-2.6742,-2.6691,-2.6691,-2.6691,-2.6691,-2.6691,-2.6691,-2.6691,-2.6691,-2.6691,-2.6691,-2.6691,-2.6691,-2.6691,-2.6691,-2.6691,-2.6691,-2.6691,0.0,-3.1511,-3.1511,-3.1511,-3.1511,0.0,0.0,0.0,0.0,0.0,0.0,0.0,0.0,0.0,0.0,0.0,0.0,0.0,0.0,0.0,0.0,-2.6499,-2.6499,0.0,-2.6499,-2.6499,-2.6499,-2.6499,-2.6782,-2.7162,-2.767,-2.833,-2.8939,-2.9473,-3.0011,-3.045,-3.0748,-3.1248,-3.1511,-3.1511,-3.1511,-3.1511,-3.1511,-3.1511,-3.1511,-3.1481,-3.1047,-3.0896,0.0,-3.0477,-3.0163,-2.9924,-2.9924,-2.9789,-2.9606,-2.9606,-2.9352,-2.8936,-2.8682,-2.8323,-2.7944,-2.7675,-2.76,-2.76,-2.76,-2.76,-2.76,-2.76,-2.76,-2.76,-2.76,-2.76,-2.76,-2.76,-2.76,-2.76,-2.76,-2.76,-2.76,-2.76,-2.7785,-2.7959,-2.7959,-2.8125,-2.8141,-2.7726,-2.772,-2.7841,-2.7994,-2.8085,-2.8365,-2.8938,-2.8552,-2.8078,-2.7622,-2.7029,-2.6691,-2.6691,-2.6691,-2.6691,-2.6691,-2.6691,-2.6691,-2.6691,-2.6691,-2.6691,-2.6691,-2.6691,-2.6691,-2.6691,-2.6691,-2.6691,0.0,0.0,0.0,0.0,0.0,0.0,0.0,0.0,0.0,0.0,0.0,0.0,0.0,0.0,0.0,0.0,0.0,0.0,0.0,-2.6499,0.0,0.0,-2.6499,-2.6499,-2.6499,-2.6499,-2.6499,-2.6499,-2.7263,-2.7736,-2.7802,-2.938,-3.0329,-3.0389,-3.0389,-3.0748,-3.1511,-3.1511,-3.1511,-3.1511,-3.1511,-3.1511,-3.1511,-3.1511,-3.1511,-3.1511,-3.1511,-3.1511,-3.1511,-3.1511,-3.1122,-3.0567,-3.0567,-3.0223,-2.9756,-2.9756,-2.9711,-2.9564,-2.8951,-2.8682,-2.8487,-2.7875,-2.7685,-2.7735,-2.7735,-2.7675,-2.76,-2.76,-2.76,-2.76,-2.76,-2.76,-2.76,-2.76,-2.76,-2.76,-2.76,-2.76,-2.76,-2.76,-2.8091,-2.8487,-2.8487,-2.9012,-2.9406,-2.9406,-2.8874,-2.8677,-2.921,-2.8735,-2.8552,-2.909,-2.9111,-2.9077,-2.9077,-2.7723,-2.686,-2.686,-2.681,-2.6776,-2.6776,-2.6725,-2.6691,-2.6691,-2.6691,-2.6691,-2.6691,-2.6691,-2.6691,-2.6691,-2.6691,-2.6691,0.0,0.0,0.0,0.0,0.0,0.0,0.0,0.0,0.0,0.0,0.0,0.0,0.0,0.0,0.0,0.0,0.0,-2.6499,-2.6499,-2.6499,0.0,-2.6499,-2.6499,-2.6499,-2.6499,-2.6499,-2.6499,-2.6499,-2.7263,-2.7986,-2.8652,-2.9721,-3.0584,-3.119,-3.1219,-3.1307,-3.1511,-3.1511,-3.1511,-3.1511,-3.1511,-3.1511,-3.1511,-3.1511,-3.1511,-3.1511,-3.1511,-3.1511,-3.1511,-3.1511,-3.1406,-3.1256,-3.1256,-3.1182,-3.1047,-3.1047,-3.0746,-3.0268,-3.0118,-2.9415,-2.8565,-2.8369,-2.8591,-2.8973,-2.8973,-2.8328,-2.76,-2.76,-2.76,-2.76,-2.76,-2.76,-2.76,-2.76,-2.76,-2.76,-2.76,-2.76,-2.76,-2.76,-2.8091,-2.8487,-2.8487,-2.9012,-2.9406,-2.9406,-2.9262,-2.9371,-2.9967,-2.9897,-3.0024,-3.0627,-3.0176,-2.9837,-2.9837,-2.8975,-2.8468,-2.8468,-2.7892,-2.7536,-2.7536,-2.6996,-2.6691,-2.6691,-2.6691,-2.6691,-2.6691,-2.6691,-2.6691,-2.6691,-2.6691,-2.6691,0.0,0.0,0.0,0.0,0.0,0.0,0.0,0.0,0.0,0.0,0.0,0.0,0.0,0.0,0.0,0.0,-2.7887,0.0,0.0,0.0,-2.6499,-2.6499,-2.6499,-2.6499,-2.6499,-2.6499,-2.6658,-2.704,-2.7451,-2.8084,-2.8939,-2.9827,-3.0494,-3.094,-3.1307,-3.1511,-3.1511,-3.1511,-3.1511,-3.1511,-3.1511,-3.1511,-3.1511,-3.1511,-3.1511,-3.1511,-3.1511,-3.1511,-3.1511,-3.1511,-3.1511,-3.1511,-3.1511,-3.1511,-3.1511,-3.1511,-3.1271,-3.0898,-3.0612,-2.9843,-2.9002,-2.8953,-2.9148,-2.9361,-2.9081,-2.8717,-2.8424,-2.8424,-2.8424,-2.8424,-2.8424,-2.8222,-2.8091,-2.8352,-2.8222,-2.8091,-2.8376,-2.8424,-2.8424,-2.8424,-2.8904,-2.9316,-2.9316,-2.9827,-3.023,-3.023,-3.023,-3.0335,-3.0679,-3.072,-3.0838,-3.1171,-3.0835,-3.0598,-3.0598,-3.0226,-2.9721,-2.9044,-2.8586,-2.8349,-2.8349,-2.796,-2.7571,-2.7215,-2.686,-2.6691,-2.6691,-2.6691,-2.6691,-2.6691,-2.6691,-2.6691,0.0,0.0,0.0,0.0,0.0,0.0,0.0,0.0,0.0,0.0,0.0,0.0,0.0,-3.0748,0.0,0.0,0.0,0.0,-2.6589,-2.6499,-2.6499,-2.6499,-2.6499,-2.6499,-2.6499,-2.6499,-2.685,-2.7637,-2.7835,-2.8266,-2.916,-3.0011,-3.0494,-3.0494,-3.1161,-3.1511,-3.1511,-3.1511,-3.1511,-3.1511,-3.1511,-3.1511,-3.1511,-3.1511,-3.1511,-3.1511,-3.1511,-3.1511,-3.1511,-3.1511,-3.1511,-3.1511,-3.1511,-3.1511,-3.1511,-3.1511,-3.1511,-3.1406,-3.0746,-3.0175,-2.9788,-2.9803,-2.9825,-2.9772,-2.9358,-2.9533,-2.9857,-2.9857,-2.9621,-2.9406,-2.9406,-2.9035,-2.8772,-2.9271,-2.8996,-2.8779,-2.9293,-2.9406,-2.9406,-2.9406,-2.9908,-3.0293,-3.0293,-3.0797,-3.119,-3.119,-3.119,-3.119,-3.119,-3.119,-3.119,-3.119,-3.119,-3.119,-3.119,-3.119,-3.0685,-2.9416,-2.923,-2.9128,-2.8993,-2.8993,-2.867,-2.7993,-2.7249,-2.686,-2.686,-2.6742,-2.6691,-2.6691,-2.6691,-2.6691,-3.1524,-3.1511,-3.1511,0.0,0.0,0.0,0.0,0.0,0.0,0.0,0.0,0.0,0.0,-3.0238,-2.916,0.0,0.0,-2.6658,0.0,0.0,-2.6499,-2.6499,-2.6499,-2.6499,-2.6499,-2.6499,-2.685,-2.7637,-2.8363,-2.9192,-3.0042,-3.0866,-3.1322,-3.1322,-3.1438,-3.1511,-3.1511,-3.1511,-3.1511,-3.1511,-3.1511,-3.1511,-3.1511,-3.1511,-3.1511,-3.1511,-3.1511,-3.1511,-3.1511,-3.1511,-3.1511,-3.1511,-3.1511,-3.1511,-3.1511,-3.1511,-3.1511,-3.1406,-3.0746,-3.0767,-3.1125,-3.1162,-3.1523,-3.2026,-3.2507,-3.2265,-3.1845,-3.1845,-3.0668,-2.9406,-2.9406,-2.9339,-2.9293,-2.9384,-2.9339,-2.9293,-2.9384,-2.9406,-2.9406,-2.9406,-2.9908,-3.0293,-3.0293,-3.0797,-3.119,-3.119,-3.119,-3.119,-3.119,-3.119,-3.119,-3.119,-3.119,-3.119,-3.119,-3.119,-3.1089,-3.0869,-3.0277,-2.9651,-2.9027,-2.8993,-2.8942,-2.8824,-2.8044,-2.7621,-2.7621,-2.6996,-2.6691,-2.6691,-2.6691,-2.6691,-3.1511,-3.1511,-3.1511,0.0,0.0,0.0,0.0,0.0,0.0,0.0,0.0,0.0,0.0,0.0,-2.938,-2.846,0.0,-2.6499,-2.6499,-2.6499,-2.6499,-2.6499,-2.6499,-2.6499,-2.6499,-2.6499,-2.685,-2.7637,-2.8524,-2.938,-3.0238,-3.1058,-3.1511,-3.1511,-3.1511,-3.1511,-3.1511,-3.1511,-3.1511,-3.1511,-3.1511,-3.1511,-3.1511,-3.1511,-3.1511,-3.1511,-3.1511,-3.1511,-3.1511,-3.1511,-3.1511,-3.1511,-3.1511,-3.1511,-3.1511,-3.1511,-3.1511,-3.1466,-3.1137,-3.1195,-3.1429,-3.144,-3.1887,-3.2399,-3.2383,-3.2612,-3.282,-3.2512,-3.1423,-3.0372,-3.0372,-3.0145,-2.9973,-3.0309,-3.0123,-2.9995,-3.0293,-3.0372,-3.0372,-3.0372,-3.0597,-3.0797,-3.0797,-3.1015,-3.119,-3.119,-3.119,-3.119,-3.119,-3.119,-3.119,-3.119,-3.119,-3.119,-3.119,-3.119,-3.119,-3.119,-3.0886,-3.0531,-3.0211,-2.9803,-2.9583,-2.9583,-2.8839,-2.8229,-2.7807,-2.7452,-2.7097,-2.6691,-2.6691,-2.6691,-3.1568,-3.1511,-3.1511,-3.1511,0.0,0.0,0.0,0.0,0.0,0.0,0.0,0.0,0.0,-2.9981,0.0,-2.767,-2.6905,-2.6499,-2.6499,-2.6499,-2.6499,-2.6499,-2.6499,-2.6499,-2.6499,-2.6499,-2.6905,-2.792,-2.862,-2.9473,-3.0524,-3.1161,-3.1511,-3.1511,-3.1511,-3.1511,-3.1511,-3.1511,-3.1511,-3.1511,-3.1511,-3.1511,-3.1511,-3.1511,-3.1511,-3.1511,-3.1511,-3.1511,-3.1511,-3.1511,-3.1511,-3.1511,-3.1511,-3.1511,-3.1524,-3.1697,-3.1768,-3.1768,-3.1951,-3.1943,-3.1945,-3.2087,-3.2497,-3.2869,-3.2557,-3.3011,-3.3558,-3.3112,-3.2366,-3.1715,-3.1715,-3.1243,-3.0887,-3.1365,-3.0975,-3.0638,-3.1095,-3.119,-3.119,-3.119,-3.119,-3.119,-3.119,-3.119,-3.119,-3.119,-3.119,-3.119,-3.119,-3.119,-3.119,-3.119,-3.119,-3.119,-3.119,-3.119,-3.119,-3.119,-3.119,-3.119,-3.119,-3.0666,-3.0362,-3.0362,-2.9634,-2.8941,-2.8331,-2.8162,-2.7689,-2.6962,-2.6962,-2.686,-3.1697,-3.1511,-3.1511,-3.1511,-3.1511,0.0,-3.1511,-3.1511,0.0,-3.1511,0.0,0.0,0.0,-2.8971,-2.7604,-2.6714,-2.6521,-2.6499,-2.6499,-2.6499,-2.6499,-2.6499,-2.6499,-2.6499,-2.6499,-2.6499,-2.7162,-2.878,-2.8971,-2.969,-3.1322,-3.1467,-3.1511,-3.1511,-3.1511,-3.1511,-3.1511,-3.1511,-3.1511,-3.1511,-3.1511,-3.1511,-3.1511,-3.1511,-3.1511,-3.1511,-3.1511,-3.1511,-3.1511,-3.1511,-3.1511,-3.1511,-3.1511,-3.1511,-3.1582,-3.2272,-3.252,-3.2614,-3.3235,-3.3447,-3.3553,-3.4178,-3.4388,-3.4563,-3.5125,-3.4896,-3.4404,-3.4361,-3.3825,-3.3254,-3.3254,-3.2709,-3.2168,-3.2226,-3.1661,-3.1151,-3.119,-3.119,-3.119,-3.119,-3.119,-3.119,-3.119,-3.119,-3.119,-3.119,-3.119,-3.119,-3.119,-3.119,-3.119,-3.119,-3.119,-3.119,-3.119,-3.119,-3.119,-3.119,-3.119,-3.119,-3.119,-3.114,-3.1123,-3.1123,-3.0395,-2.9987,-2.992,-2.9245,-2.8501,-2.7722,-2.7722,-2.735,-3.1697,-3.1511,-3.1511,-3.1511,-3.1511,0.0,0.0,-3.1511,-3.1351,-3.0866,-3.1161,0.0,0.0,0.0,-2.685,-2.6555,-2.6499,-2.6499,-2.6499,-2.6499,-2.6499,-2.6499,-2.6499,-2.6499,-2.6499,-2.6499,-2.6973,-2.8117,-2.8684,-2.9504,-3.0673,-3.1219,-3.1511,-3.1511,-3.1511,-3.1511,-3.1511,-3.1511,-3.1511,-3.1511,-3.1511,-3.1511,-3.1511,-3.1511,-3.1511,-3.1511,-3.1511,-3.1511,-3.1511,-3.1511,-3.1511,-3.1511,-3.1511,-3.1511,-3.1524,-3.1824,-3.2203,-3.2641,-3.2895,-3.3235,-3.3633,-3.3887,-3.426,-3.4664,-3.4894,-3.5075,-3.5177,-3.5177,-3.4974,-3.4551,-3.3643,-3.3186,-3.2983,-3.2983,-3.2763,-3.2577,-3.2577,-3.2577,-3.2577,-3.2577,-3.2577,-3.2577,-3.2577,-3.2577,-3.2577,-3.2577,-3.2577,-3.2577,-3.2577,-3.2154,-3.1887,-3.1887,-3.1461,-3.119,-3.119,-3.119,-3.119,-3.119,-3.119,-3.119,-3.119,-3.119,-3.119,-3.119,-3.092,-3.0565,-3.0108,-2.982,-2.9296,-2.8552,-2.8552,-2.8399,-3.1828,-3.1511,-3.1511,0.0,0.0,0.0,-3.1511,-3.1511,-3.1351,-3.0807,-3.0703,-3.0359,-2.9223,0.0,0.0,-2.6499,-2.6499,-2.6499,-2.6499,-2.6499,-2.6499,-2.6499,-2.6499,-2.6499,-2.6499,-2.6499,-2.685,-2.7637,-2.8524,-2.938,-3.0238,-3.1058,-3.1511,-3.1511,-3.1511,-3.1511,-3.1511,-3.1511,-3.1511,-3.1511,-3.1511,-3.1511,-3.1511,-3.1511,-3.1511,-3.1511,-3.1511,-3.1511,-3.1511,-3.1511,-3.1511,-3.1511,-3.1511,-3.164,-3.1881,-3.2076,-3.2625,-3.3261,-3.3469,-3.3853,-3.4227,-3.4227,-3.4544,-3.4918,-3.4918,-3.523,-3.56,-3.56,-3.56,-3.5363,-3.4349,-3.3931,-3.3744,-3.3744,-3.3575,-3.3406,-3.3406,-3.3406,-3.3406,-3.3406,-3.3406,-3.3406,-3.3406,-3.3406,-3.3406,-3.3406,-3.3406,-3.3406,-3.3406,-3.2949,-3.2666,-3.2666,-3.2005,-3.1565,-3.1565,-3.1326,-3.119,-3.119,-3.119,-3.119,-3.119,-3.119,-3.119,-3.119,-3.119,-3.0954,-3.0446,-3.0446,-3.0074,-2.9365,-2.9365,-2.923,-3.2105,-3.1511,-3.1511,0.0,0.0,0.0,-3.1511,-3.1511,-3.1511,-3.1511,-3.0133,-2.9002,-2.9002,-2.7604,0.0,-2.6499,-2.6499,-2.6499,-2.6499,-2.6499,-2.6499,-2.6499,-2.6512,-2.6512,-2.6512,-2.6512,-2.6863,-2.7663,-2.8505,-2.9393,-3.0283,-3.1073,-3.1525,-3.1525,-3.1511,-3.1511,-3.1511,-3.1511,-3.1511,-3.1511,-3.1511,-3.1511,-3.1511,-3.1511,-3.1511,-3.1511,-3.1511,-3.1511,-3.1511,-3.1511,-3.1511,-3.1511,-3.1511,-3.1966,-3.2668,-3.3365,-3.4037,-3.4688,-3.5362,-3.56,-3.56,-3.56,-3.56,-3.56,-3.56,-3.56,-3.56,-3.56,-3.56,-3.56,-3.56,-3.5064,-3.4506,-3.4506,-3.3947,-3.3423,-3.3423,-3.3423,-3.3423,-3.3423,-3.3423,-3.3423,-3.3423,-3.3423,-3.3423,-3.3423,-3.3423,-3.3423,-3.3423,-3.3423,-3.3406,-3.3406,-3.275,-3.231,-3.231,-3.165,-3.1207,-3.1207,-3.1207,-3.1207,-3.119,-3.119,-3.119,-3.119,-3.119,-3.119,-3.119,-3.119,-3.0818,-3.0106,-3.0106,-2.9719,-3.3358,-3.2272,0.0,-3.1511,0.0,0.0,0.0,-3.1511,0.0,0.0,-2.9286,-2.8084,-2.8084,-2.7229,0.0,-2.6499,-2.6499,-2.6499,-2.6499,-2.6826,-2.7065,-2.7065,-2.7381,-2.762,-2.762,-2.762,-2.7987,-2.8846,-2.974,-3.0667,-3.1516,-3.2415,-3.2916,-3.2916,-3.2437,-3.2183,-3.2183,-3.1735,-3.1511,-3.1511,-3.1511,-3.1511,-3.1511,-3.1511,-3.1511,-3.1511,-3.1511,-3.1511,-3.1511,-3.1511,-3.1511,-3.1553,-3.2064,-3.241,-3.2668,-3.3365,-3.4037,-3.4624,-3.4847,-3.5207,-3.56,-3.56,-3.56,-3.56,-3.56,-3.56,-3.56,-3.56,-3.56,-3.56,-3.56,-3.543,-3.5261,-3.5261,-3.5092,-3.494,-3.494,-3.494,-3.494,-3.494,-3.494,-3.494,-3.494,-3.494,-3.494,-3.494,-3.494,-3.4754,-3.4235,-3.4167,-3.3981,-3.3457,-3.3203,-3.3068,-3.3068,-3.2865,-3.2527,-3.2005,-3.1972,-3.1752,-3.1207,-3.119,-3.119,-3.119,-3.119,-3.119,-3.119,-3.119,-3.1089,-3.0869,-3.0869,-3.0751,-3.4025,-3.2806,0.0,-3.157,-3.1511,-3.1409,-3.1087,0.0,0.0,0.0,-2.8684,-2.7703,-2.7703,-2.704,-2.6499,-2.6499,-2.6499,-2.6562,-2.6788,-2.7115,-2.7369,-2.7582,-2.7896,-2.8109,-2.8109,-2.8109,-2.8303,-2.8853,-3.0063,-3.1032,-3.1575,-3.2788,-3.3499,-3.3499,-3.311,-3.2901,-3.2901,-3.2228,-3.1899,-3.1884,-3.163,-3.1511,-3.1511,-3.1511,-3.1511,-3.1511,-3.1511,-3.1511,-3.1511,-3.1511,-3.1511,-3.1524,-3.1979,-3.2504,-3.3039,-3.3469,-3.4186,-3.4988,-3.4988,-3.5253,-3.56,-3.56,-3.56,-3.56,-3.56,-3.56,-3.56,-3.56,-3.56,-3.56,-3.56,-3.56,-3.56,-3.56,-3.56,-3.56,-3.56,-3.56,-3.56,-3.56,-3.56,-3.56,-3.56,-3.56,-3.56,-3.56,-3.56,-3.543,-3.4996,-3.4945,-3.4776,-3.4315,-3.4015,-3.3846,-3.3846,-3.3575,-3.322,-3.2763,-3.2462,-3.2107,-3.1667,-3.1362,-3.119,-3.119,-3.119,-3.119,-3.119,-3.119,-3.119,-3.119,-3.119,-3.119,-3.4513,-3.3245,0.0,-3.1735,-3.1555,0.0,-3.0389,-3.0178,-2.9919,-2.9066,0.0,-2.767,-2.7604,-2.7007,-2.6499,-2.6499,-2.6537,-2.6738,-2.7241,-2.7369,-2.762,-2.8122,-2.8235,-2.826,-2.826,-2.826,-2.826,-2.826,-2.9947,-3.0963,-3.0963,-3.2695,-3.3679,-3.3679,-3.3619,-3.3589,-3.3589,-3.2931,-3.2572,-3.2497,-3.1884,-3.157,-3.1511,-3.1511,-3.1511,-3.1511,-3.1511,-3.1511,-3.1511,-3.1511,-3.1511,-3.1511,-3.1582,-3.2407,-3.3608,-3.3659,-3.4496,-3.56,-3.56,-3.56,-3.56,-3.56,-3.56,-3.56,-3.56,-3.56,-3.56,-3.56,-3.56,-3.56,-3.56,-3.56,-3.56,-3.56,-3.56,-3.56,-3.56,-3.56,-3.56,-3.56,-3.56,-3.56,-3.56,-3.56,-3.56,-3.56,-3.56,-3.56,-3.56,-3.56,-3.56,-3.56,-3.5013,-3.459,-3.459,-3.3998,-3.3575,-3.3508,-3.2886,-3.2462,-3.2412,-3.1613,-3.119,-3.119,-3.119,-3.119,-3.119,-3.119,-3.119,-3.119,-3.119,-3.119,-3.6238,-3.4355,0.0,0.0,-3.1884,-3.1117,-2.9628,-2.9286,-2.9034,-2.8149,-2.7835,-2.7517,-2.6871,-2.6624,-2.6499,-2.6499,-2.6851,-2.719,-2.7268,-2.8034,-2.8612,-2.87,-2.9151,-2.9428,-2.9428,-2.9428,-2.9428,-2.9428,-3.1175,-3.2206,-3.2206,-3.4035,-3.507,-3.507,-3.4547,-3.4294,-3.4294,-3.3619,-3.3021,-3.2512,-3.2333,-3.2004,-3.1511,-3.1511,-3.1511,-3.1511,-3.1511,-3.1511,-3.1511,-3.1511,-3.1511,-3.1553,-3.2148,-3.2853,-3.3659,-3.4186,-3.4894,-3.56,-3.56,-3.56,-3.56,-3.56,-3.56,-3.56,-3.56,-3.56,-3.56,-3.56,-3.56,-3.56,-3.56,-3.56,-3.56,-3.56,-3.56,-3.56,-3.56,-3.56,-3.56,-3.56,-3.56,-3.56,-3.56,-3.56,-3.56,-3.56,-3.56,-3.56,-3.56,-3.56,-3.56,-3.56,-3.5447,-3.5346,-3.5346,-3.5211,-3.4895,-3.4303,-3.41,-3.3761,-3.3186,-3.1901,-3.119,-3.119,-3.119,-3.119,-3.119,-3.119,-3.119,-3.119,-3.119,-3.119,-3.6982,0.0,0.0,-3.2751,0.0,-3.1161,-2.9919,-2.9628,-2.9254,-2.7953,-2.7384,-2.7007,-2.6589,-2.6499,-2.6499,-2.6499,-2.6952,-2.7369,-2.7645,-2.8398,-2.9001,-2.9315,-2.9616,-2.9792,-2.9792,-2.9792,-2.9792,-2.9792,-3.1119,-3.2141,-3.2558,-3.3973,-3.4986,-3.5472,-3.516,-3.4966,-3.4966,-3.4307,-3.3784,-3.344,-3.314,-3.2647,-3.1959,-3.1645,-3.1511,-3.1511,-3.1511,-3.1511,-3.1511,-3.1511,-3.1511,-3.1539,-3.1923,-3.2489,-3.3156,-3.3505,-3.4276,-3.5121,-3.5121,-3.5339,-3.56,-3.56,-3.56,-3.56,-3.56,-3.56,-3.56,-3.56,-3.56,-3.56,-3.56,-3.56,-3.56,-3.56,-3.56,-3.56,-3.56,-3.56,-3.56,-3.56,-3.56,-3.56,-3.56,-3.56,-3.56,-3.56,-3.56,-3.56,-3.56,-3.56,-3.56,-3.56,-3.56,-3.56,-3.56,-3.56,-3.543,-3.5064,-3.4692,-3.432,-3.3947,-3.2848,-3.2087,-3.1735,-3.1376,-3.119,-3.119,-3.119,-3.119,-3.119,-3.119,-3.119,-3.7473,0.0,-3.5105,-3.3035,-3.2079,0.0,-3.0509,-3.0299,-2.9858,-2.8247,-2.7297,-2.6658,-2.6521,-2.6499,-2.6499,-2.6499,-2.704,-2.7582,-2.8047,-2.8662,-2.9252,-2.9729,-2.9792,-2.9792,-2.9792,-2.9792,-2.9792,-2.9792,-3.0809,-3.1779,-3.2558,-3.3636,-3.4643,-3.5472,-3.5504,-3.5504,-3.5504,-3.4936,-3.4623,-3.4503,-3.3814,-3.3215,-3.2662,-3.2093,-3.172,-3.1511,-3.1511,-3.1511,-3.1511,-3.1511,-3.1511,-3.1496,-3.164,-3.2132,-3.2788,-3.2895,-3.3633,-3.4616,-3.4736,-3.5052,-3.5447,-3.556,-3.56,-3.56,-3.56,-3.56,-3.56,-3.56,-3.56,-3.56,-3.56,-3.56,-3.56,-3.56,-3.56,-3.56,-3.56,-3.56,-3.56,-3.56,-3.56,-3.56,-3.56,-3.56,-3.56,-3.56,-3.56,-3.56,-3.56,-3.56,-3.56,-3.56,-3.56,-3.56,-3.56,-3.56,-3.56,-3.56,-3.503,-3.4692,-3.4692,-3.3981,-3.3305,-3.2699,-3.1836,-3.1326,-3.119,-3.119,-3.119,-3.119,-3.119,-3.119,0.0,0.0,-3.5105,0.0,-3.2422,-3.2005,0.0,0.0,-3.0011,0.0,-2.8149,-2.7317,-2.6624,-2.6499,-2.6499,-2.6499,-2.7318,-2.8021,-2.8097,-2.9013,-2.9704,-2.9779,-2.9792,-2.9792,-2.9792,-2.9792,-2.9792,-2.9792,-3.1402,-3.2464,-3.2593,-3.4308,-3.5359,-3.5504,-3.5504,-3.5504,-3.5504,-3.5415,-3.507,-3.4503,-3.3814,-3.344,-3.3365,-3.3275,-3.2617,-3.1511,-3.1511,-3.1511,-3.1511,-3.1511,-3.1511,-3.1553,-3.2188,-3.2868,-3.3531,-3.4112,-3.4455,-3.4671,-3.5253,-3.5144,-3.4847,-3.5407,-3.56,-3.56,-3.56,-3.56,-3.56,-3.56,-3.56,-3.56,-3.56,-3.56,-3.56,-3.56,-3.56,-3.56,-3.56,-3.56,-3.56,-3.56,-3.56,-3.56,-3.56,-3.56,-3.56,-3.56,-3.56,-3.56,-3.56,-3.56,-3.56,-3.56,-3.56,-3.56,-3.56,-3.56,-3.56,-3.56,-3.5498,-3.5447,-3.5447,-3.4742,-3.4303,-3.4201,-3.2852,-3.1853,-3.119,-3.119,-3.119,-3.119,-3.119,-3.119,-3.9032,-3.7274,-3.5393,0.0,-3.3351,-3.2333,-3.1663,-3.1249,-3.0748,-2.9889,-2.9411,-2.8748,-2.7417,-2.7162,-2.704,-2.6555,-2.7394,-2.8109,-2.8109,-2.9076,-2.9792,-2.9792,-2.9792,-2.9792,-2.9792,-2.9792,-2.9998,-3.0558,-3.1365,-3.2285,-3.3345,-3.4211,-3.4905,-3.5472,-3.5504,-3.5504,-3.5504,-3.5504,-3.5355,-3.504,-3.4367,-3.4038,-3.4038,-3.3664,-3.2976,-3.2049,-3.2049,-3.1854,-3.1511,-3.1511,-3.1511,-3.1582,-3.2299,-3.2761,-3.3119,-3.3786,-3.4284,-3.4624,-3.4941,-3.5098,-3.5207,-3.5492,-3.56,-3.56,-3.56,-3.56,-3.56,-3.56,-3.56,-3.56,-3.56,-3.56,-3.56,-3.56,-3.56,-3.56,-3.56,-3.56,-3.56,-3.56,-3.56,-3.56,-3.56,-3.56,-3.56,-3.56,-3.56,-3.56,-3.56,-3.56,-3.56,-3.56,-3.56,-3.56,-3.56,-3.56,-3.56,-3.56,-3.56,-3.56,-3.56,-3.5301,-3.4928,-3.4506,-3.3457,-3.2763,-3.2425,-3.2022,-3.1819,-3.1819,-3.1396,-3.119,0.0,0.0,-3.6281,-3.5742,-3.4422,-3.3186,0.0,0.0,-3.1589,0.0,-3.073,-3.0133,-2.8652,-2.7986,-2.7556,-2.7084,-2.7635,-2.816,-2.8298,-2.9164,-2.9792,-2.9792,-2.9792,-2.9792,-2.9792,-2.9998,-3.0457,-3.1143,-3.1646,-3.2522,-3.391,-3.4245,-3.4725,-3.5472,-3.5504,-3.5504,-3.5504,-3.5504,-3.5504,-3.5489,-3.4981,-3.4741,-3.4726,-3.4233,-3.3634,-3.3006,-3.2841,-3.2452,-3.2004,-3.2004,-3.2004,-3.2092,-3.2806,-3.3208,-3.345,-3.3934,-3.4438,-3.4888,-3.4849,-3.5075,-3.5362,-3.5538,-3.56,-3.56,-3.56,-3.56,-3.56,-3.56,-3.56,-3.56,-3.56,-3.56,-3.56,-3.56,-3.56,-3.56,-3.56,-3.56,-3.56,-3.56,-3.56,-3.56,-3.56,-3.56,-3.56,-3.56,-3.56,-3.56,-3.56,-3.56,-3.56,-3.56,-3.56,-3.56,-3.56,-3.56,-3.56,-3.56,-3.56,-3.56,-3.56,-3.56,-3.5329,-3.4793,-3.4252,-3.3778,-3.3406,-3.2848,-3.2581,-3.2564,-3.2162,-3.1969,0.0,-3.8821,0.0,-3.6117,-3.5516,0.0,0.0,0.0,-3.2437,-3.2393,-3.187,-3.119,-3.0329,-2.8812,-2.7841,-2.8321,-2.8241,-2.8285,-2.8775,-2.9415,-2.9792,-2.9792,-2.9792,-2.9792,-2.9792,-3.0582,-3.1143,-3.1217,-3.2855,-3.391,-3.3993,-3.4905,-3.5439,-3.5504,-3.5504,-3.5504,-3.5504,-3.5504,-3.5504,-3.5504,-3.5474,-3.5444,-3.5444,-3.5415,-3.5026,-3.4369,-3.3709,-3.3425,-3.3395,-3.3395,-3.3395,-3.3471,-3.4143,-3.4861,-3.5545,-3.5498,-3.5555,-3.563,-3.5568,-3.5144,-3.4759,-3.5385,-3.56,-3.56,-3.56,-3.56,-3.56,-3.56,-3.56,-3.56,-3.56,-3.56,-3.56,-3.56,-3.56,-3.56,-3.56,-3.56,-3.56,-3.56,-3.56,-3.56,-3.56,-3.56,-3.56,-3.56,-3.56,-3.56,-3.56,-3.56,-3.56,-3.56,-3.56,-3.56,-3.56,-3.56,-3.56,-3.56,-3.56,-3.56,-3.56,-3.56,-3.5583,-3.5532,-3.5498,-3.4788,-3.3406,-3.3372,-3.3339,-3.3339,-3.3805,-3.4042,0.0,0.0,0.0,-3.7906,-3.6653,-3.5471,-3.4956,-3.397,-3.314,-3.314,-3.2617,-3.2199,-3.2315,-3.0723,-2.9386,-2.9463,-2.9172,-2.9155,-2.9775,-3.0345,-3.0696,-3.0696,-3.123,-3.1586,-3.1586,-3.1888,-3.2357,-3.2961,-3.3636,-3.4279,-3.4953,-3.5311,-3.5504,-3.5504,-3.5504,-3.5504,-3.5504,-3.5504,-3.5504,-3.5504,-3.5504,-3.5504,-3.5504,-3.5504,-3.537,-3.5147,-3.5368,-3.4713,-3.3499,-3.3499,-3.3804,-3.4355,-3.5015,-3.5732,-3.6443,-3.6912,-3.709,-3.7038,-3.6534,-3.6211,-3.5971,-3.5684,-3.56,-3.56,-3.56,-3.56,-3.56,-3.56,-3.56,-3.56,-3.56,-3.56,-3.56,-3.56,-3.56,-3.5735,-3.6265,-3.596,-3.56,-3.56,-3.56,-3.56,-3.56,-3.56,-3.56,-3.56,-3.56,-3.56,-3.56,-3.56,-3.56,-3.56,-3.56,-3.56,-3.56,-3.56,-3.56,-3.56,-3.56,-3.56,-3.56,-3.56,-3.56,-3.56,-3.56,-3.5346,-3.4805,-3.4336,-3.4117,-3.41,-3.3819,-3.3885,-4.0096,0.0,0.0,0.0,0.0,-3.6261,-3.5993,-3.4851,-3.3829,-3.3829,-3.3305,-3.2976,-3.341,-3.2358,-3.1304,-3.1095,-3.0323,-3.006,-3.1003,-3.1163,-3.1315,-3.1646,-3.2213,-3.2593,-3.2593,-3.289,-3.3345,-3.3959,-3.4312,-3.4806,-3.5472,-3.5504,-3.5504,-3.5504,-3.5504,-3.5504,-3.5504,-3.5504,-3.5504,-3.5504,-3.5504,-3.5504,-3.5504,-3.5504,-3.5504,-3.5537,-3.6038,-3.5599,-3.4577,-3.4835,-3.5268,-3.5794,-3.6218,-3.6864,-3.752,-3.7786,-3.805,-3.8159,-3.7415,-3.7185,-3.7077,-3.6552,-3.6191,-3.6011,-3.6011,-3.5802,-3.56,-3.56,-3.56,-3.56,-3.56,-3.5785,-3.6011,-3.6011,-3.6197,-3.6535,-3.7043,-3.6552,-3.6096,-3.6309,-3.636,-3.636,-3.636,-3.636,-3.636,-3.636,-3.6163,-3.6011,-3.6011,-3.5752,-3.56,-3.56,-3.56,-3.56,-3.56,-3.56,-3.56,-3.56,-3.56,-3.56,-3.56,-3.56,-3.56,-3.56,-3.56,-3.56,-3.56,-3.5115,-3.4861,-3.4861,-3.4546,-3.46,0.0,0.0,0.0,0.0,0.0,0.0,-3.6813,0.0,-3.4565,-3.4533,-3.3978,-3.3529,-3.3559,-3.3544,-3.3444,-3.3194,-3.166,-3.0967,-3.2453,-3.1852,-3.1609,-3.2522,-3.2664,-3.2678,-3.2678,-3.3518,-3.4027,-3.4027,-3.4953,-3.5504,-3.5504,-3.5504,-3.5504,-3.5504,-3.5504,-3.5504,-3.5504,-3.5504,-3.5504,-3.5504,-3.5504,-3.5504,-3.5504,-3.5504,-3.5504,-3.5504,-3.5537,-3.5943,-3.6661,-3.7456,-3.7777,-3.7835,-3.7835,-3.8274,-3.8853,-3.8134,-3.8361,-3.892,-3.8193,-3.7939,-3.7939,-3.7922,-3.7415,-3.6829,-3.6829,-3.6265,-3.5633,-3.5633,-3.5633,-3.5633,-3.565,-3.6248,-3.6829,-3.6829,-3.7381,-3.7922,-3.7939,-3.7364,-3.7083,-3.777,-3.7905,-3.7905,-3.7905,-3.7905,-3.7905,-3.7905,-3.728,-3.6829,-3.6829,-3.6146,-3.565,-3.5633,-3.5633,-3.5616,-3.56,-3.56,-3.56,-3.56,-3.56,-3.56,-3.56,-3.56,-3.56,-3.56,-3.56,-3.56,-3.56,-3.56,-3.56,-3.5622,-3.6161,-3.6395,-4.0096,0.0,0.0,0.0,0.0,0.0,0.0,0.0,-3.589,-3.5334,-3.4681,-3.4352,-3.4861,-3.4547,-3.4364,-3.4777,-3.3437,-3.2647,-3.3482,-3.338,-3.331,-3.3602,-3.4259,-3.4706,-3.4706,-3.492,-3.51,-3.51,-3.5359,-3.5504,-3.5504,-3.5504,-3.5504,-3.5504,-3.5504,-3.5504,-3.5504,-3.5504,-3.5504,-3.5504,-3.5504,-3.5504,-3.5504,-3.5504,-3.5504,-3.5537,-3.6054,-3.6415,-3.6615,-3.6843,-3.76,-3.8608,-3.8608,-3.9059,-3.9723,-3.9538,-3.9598,-3.9706,-3.8937,-3.87,-3.8616,-3.8075,-3.777,-3.7601,-3.7601,-3.706,-3.6451,-3.6451,-3.6451,-3.6586,-3.7127,-3.7432,-3.7601,-3.7601,-3.7753,-3.8058,-3.8582,-3.8531,-3.8278,-3.7973,-3.7905,-3.7905,-3.7905,-3.7905,-3.7905,-3.7905,-3.7736,-3.7601,-3.7601,-3.7415,-3.706,-3.6518,-3.6451,-3.6231,-3.565,-3.56,-3.56,-3.56,-3.56,-3.56,-3.56,-3.56,-3.56,-3.56,-3.56,-3.56,-3.56,-3.56,-3.56,-3.5622,-3.6161,-3.6395,0.0,0.0,0.0,0.0,0.0,0.0,-3.8358,-3.7395,-3.6477,-3.6054,-3.5401,-3.5026,-3.5429,-3.5175,-3.504,-3.5444,-3.4723,-3.4215,-3.4566,-3.4245,-3.4177,-3.4576,-3.5133,-3.5504,-3.5504,-3.5504,-3.5504,-3.5504,-3.5504,-3.5504,-3.5504,-3.5504,-3.5504,-3.5504,-3.5504,-3.5504,-3.5504,-3.5504,-3.5504,-3.5504,-3.5504,-3.5504,-3.5504,-3.5504,-3.5504,-3.5537,-3.5943,-3.6523,-3.7084,-3.7084,-3.7803,-3.8935,-3.9262,-3.9688,-4.0096,-4.0096,-4.0096,-4.0045,-3.9622,-3.9469,-3.9402,-3.8954,-3.8616,-3.8362,-3.8362,-3.7838,-3.7246,-3.7246,-3.7246,-3.7347,-3.7787,-3.8125,-3.8362,-3.8362,-3.8582,-3.8937,-3.9385,-3.9469,-3.9326,-3.8903,-3.8819,-3.8819,-3.8819,-3.8819,-3.8819,-3.8819,-3.8565,-3.8362,-3.8362,-3.8091,-3.7736,-3.7297,-3.7246,-3.6941,-3.618,-3.6096,-3.596,-3.5616,-3.56,-3.56,-3.56,-3.56,-3.56,-3.56,-3.56,-3.56,-3.56,-3.56,-3.56,-3.5622,-3.592,-3.6071,0.0,0.0,0.0,0.0,-3.9542,0.0,-3.8908,-3.7844,-3.6843,-3.6752,-3.6212,-3.5765,-3.5765,-3.5765,-3.5765,-3.5765,-3.5668,-3.5587,-3.5504,-3.4725,-3.4509,-3.5392,-3.5504,-3.5504,-3.5504,-3.5504,-3.5504,-3.5504,-3.5504,-3.5504,-3.5504,-3.5504,-3.5504,-3.5504,-3.5504,-3.5504,-3.5504,-3.5504,-3.5504,-3.5504,-3.5504,-3.5504,-3.5504,-3.5587,-3.5619,-3.5651,-3.5716,-3.6523,-3.7822,-3.7892,-3.8358,-3.9113,-3.9808,-4.0096,-4.0096,-4.0096,-4.0096,-4.0096,-4.0096,-4.0096,-4.0096,-4.0096,-3.9673,-3.9106,-3.9106,-3.8616,-3.8024,-3.8024,-3.8024,-3.8041,-3.8125,-3.8633,-3.9106,-3.9106,-3.9622,-4.0096,-4.0096,-4.0096,-4.0096,-4.0096,-4.0096,-4.0096,-4.0096,-4.0096,-4.0096,-4.0096,-3.9529,-3.9106,-3.9106,-3.8548,-3.8125,-3.8041,-3.8024,-3.7719,-3.6998,-3.6931,-3.6569,-3.5769,-3.5718,-3.5684,-3.56,-3.56,-3.56,-3.56,-3.56,-3.56,-3.56,-3.56,-3.56,-3.56,-3.56,-3.56,0.0,0.0,0.0,0.0,-3.9978,0.0,-3.9059,-3.8674,-3.8286,-3.769,-3.7472,-3.7354,-3.7354,-3.7354,-3.7354,-3.7354,-3.6814,-3.6165,-3.5587,-3.5326,-3.5279,-3.5472,-3.5504,-3.5504,-3.5504,-3.5504,-3.5504,-3.5504,-3.5504,-3.5504,-3.5504,-3.5504,-3.5504,-3.5504,-3.5504,-3.5504,-3.5504,-3.5504,-3.5504,-3.5504,-3.5504,-3.5504,-3.5537,-3.6102,-3.6384,-3.6415,-3.7086,-3.7531,-3.7851,-3.8442,-3.9156,-3.9876,-4.0045,-4.0096,-4.0096,-4.0096,-4.0096,-4.0096,-4.0096,-4.0096,-4.0096,-4.0096,-4.0011,-3.9893,-3.9893,-3.9385,-3.8785,-3.8785,-3.8785,-3.892,-3.9537,-3.9791,-3.9893,-3.9893,-3.9994,-4.0096,-4.0096,-4.0096,-4.0096,-4.0096,-4.0096,-4.0096,-4.0096,-4.0096,-4.0096,-4.0096,-3.9977,-3.9893,-3.9893,-3.9757,-3.9453,-3.8853,-3.8785,-3.8481,-3.7753,-3.7686,-3.7364,-3.6626,-3.6575,-3.6282,-3.5616,-3.56,-3.56,-3.56,-3.56,-3.56,-3.56,-3.56,-3.56,-3.56,-3.56,-3.56,0.0,0.0,-4.0096,-4.0096,-4.0096,0.0,0.0,-3.9193,-3.8799,-3.8414,-3.8064,-3.7793,-3.7793,-3.7793,-3.7793,-3.7793,-3.7456,-3.707,-3.6692,-3.599,-3.5504,-3.5504,-3.5504,-3.5504,-3.5504,-3.5504,-3.5504,-3.5504,-3.5504,-3.5504,-3.5504,-3.5504,-3.5504,-3.5504,-3.5504,-3.5504,-3.5504,-3.5504,-3.5504,-3.5504,-3.5504,-3.5504,-3.5504,-3.5894,-3.6054,-3.6086,-3.6874,-3.7427,-3.7863,-3.8608,-3.9368,-4.0096,-4.0096,-4.0096,-4.0096,-4.0096,-4.0096,-4.0096,-4.0096,-4.0096,-4.0096,-4.0096,-4.0096,-4.0096,-4.0096,-3.9842,-3.9554,-3.9554,-3.9554,-3.9639,-4.0011,-4.0096,-4.0096,-4.0096,-4.0096,-4.0096,-4.0096,-4.0096,-4.0096,-4.0096,-4.0096,-4.0096,-4.0096,-4.0096,-4.0096,-4.0096,-4.0096,-4.0096,-4.0096,-4.0096,-3.996,-3.9605,-3.9554,-3.9242,-3.8514,-3.8447,-3.8125,-3.7398,-3.7347,-3.6992,-3.6231,-3.6197,-3.6011,-3.56,-3.56,-3.56,-3.56,-3.56,-3.56,-3.56,-3.56,-3.56,-4.0096,-4.0096,-4.0096,-4.0096,-4.0096,-4.0096,0.0,0.0,0.0,-3.9139,-3.8652,-3.8234,0.0,-3.8234,-3.8201,-3.8056,-3.8012,-3.7958,-3.783,-3.6721,-3.5941,-3.5941,-3.5941,-3.5878,-3.5733,-3.5587,-3.5504,-3.5504,-3.5504,-3.5504,-3.5504,-3.5504,-3.5504,-3.5504,-3.5504,-3.5504,-3.5504,-3.5504,-3.5504,-3.5504,-3.5504,-3.5504,-3.5504,-3.5636,-3.5701,-3.575,-3.6646,-3.7395,-3.8064,-3.8799,-3.9516,-4.0096,-4.0096,-4.0096,-4.0096,-4.0096,-4.0096,-4.0096,-4.0096,-4.0096,-4.0096,-4.0096,-4.0096,-4.0096,-4.0096,-4.0096,-4.0096,-4.0096,-4.0096,-4.0096,-4.0096,-4.0096,-4.0096,-4.0096,-4.0096,-4.0096,-4.0096,-4.0096,-4.0096,-4.0096,-4.0096,-4.0096,-4.0096,-4.0096,-4.0096,-4.0096,-4.0096,-4.0096,-4.0096,-4.0096,-4.0096,-4.0096,-4.0096,-3.9859,-3.9242,-3.9208,-3.8886,-3.8159,-3.8125,-3.7787,-3.7049,-3.688,-3.6485,-3.5836,-3.5667,-3.56,-3.56,-3.56,-3.56,-3.56,-3.56,-3.56,-4.0096,-4.0096,-4.0096,-4.0096,-4.0096,-4.0096,-4.0096,0.0,-3.9952,-3.9952,0.0,-3.985,0.0,0.0,0.0,0.0,-3.8821,-3.8559,-3.7892,-3.7633,-3.7531,-3.7531,-3.7531,-3.7249,-3.6523,-3.5894,-3.5504,-3.5504,-3.5504,-3.5504,-3.5504,-3.5504,-3.5504,-3.5504,-3.5504,-3.5504,-3.5504,-3.5504,-3.5504,-3.5504,-3.5504,-3.5504,-3.5537,-3.6165,-3.6477,-3.6554,-3.8015,-3.869,-3.8827,-3.9636,-4.002,-4.0096,-4.0096,-4.0096,-4.0096,-4.0096,-4.0096,-4.0096,-4.0096,-4.0096,-4.0096,-4.0096,-4.0096,-4.0096,-4.0096,-4.0096,-4.0096,-4.0096,-4.0096,-4.0096,-4.0096,-4.0096,-4.0096,-4.0096,-4.0096,-4.0096,-4.0096,-4.0096,-4.0096,-4.0096,-4.0096,-4.0096,-4.0096,-4.0096,-4.0096,-4.0096,-4.0096,-4.0096,-4.0096,-4.0096,-4.0096,-4.0096,-4.0096,-4.0079,-3.9994,-3.9977,-3.9673,-3.892,-3.887,-3.8531,-3.7821,-3.7168,-3.6761,-3.6677,-3.596,-3.56,-3.56,-3.56,-3.56,-3.56,-3.56,-3.56,-4.0096,-4.0096,-4.0096,-4.0096,-4.0096,-4.0096,-4.0096,-4.0096,-4.0096,-4.0096,0.0,0.0,0.0,0.0,0.0,0.0,-3.9606,-3.9493,-3.9183,-3.9132,-3.8805,-3.7908,-3.7793,-3.7485,-3.6676,-3.6722,-3.6461,-3.5569,-3.5894,-3.5943,-3.5537,-3.5504,-3.5504,-3.5504,-3.5504,-3.5504,-3.5504,-3.5504,-3.5504,-3.5504,-3.5504,-3.5504,-3.5504,-3.5799,-3.5943,-3.6038,-3.7114,-3.7831,-3.8302,-3.9102,-3.9662,-4.0096,-4.0096,-4.0096,-4.0096,-4.0096,-4.0096,-4.0096,-4.0096,-4.0096,-4.0096,-4.0096,-4.0096,-4.0096,-4.0096,-4.0096,-4.0096,-4.0096,-4.0096,-4.0096,-4.0096,-4.0096,-4.0096,-4.0096,-4.0096,-4.0096,-4.0096,-4.0096,-4.0096,-4.0096,-4.0096,-4.0096,-4.0096,-4.0096,-4.0096,-4.0096,-4.0096,-4.0096,-4.0096,-4.0096,-4.0096,-4.0096,-4.0096,-4.0096,-4.0096,-4.0096,-3.9977,-3.9673,-3.9225,-3.8853,-3.8548,-3.7821,-3.7432,-3.7432,-3.6688,-3.6299,-3.6299,-3.5842,-3.56,-3.56,-3.56,-3.56,-4.0096,0.0,-4.0096,-4.0096,-4.0096,-4.0096,-4.0096,-4.0096,-4.0096,-4.0096,-4.0096,0.0,0.0,0.0,0.0,0.0,0.0,-4.0028,0.0,-3.9977,-3.9679,-3.8569,-3.8234,-3.7876,-3.7306,-3.7587,-3.7235,-3.5894,-3.6306,-3.6275,-3.5537,-3.5504,-3.5504,-3.5504,-3.5504,-3.5504,-3.5504,-3.5504,-3.5504,-3.5504,-3.5504,-3.5504,-3.5504,-3.5504,-3.5504,-3.5537,-3.6275,-3.707,-3.7835,-3.8386,-3.9183,-4.007,-3.9876,-3.9901,-4.0096,-4.0096,-4.0096,-4.0096,-4.0096,-4.0096,-4.0096,-4.0096,-4.0096,-4.0096,-4.0096,-4.0096,-4.0096,-4.0096,-4.0096,-4.0096,-4.0096,-4.0096,-4.0096,-4.0096,-4.0096,-4.0096,-4.0096,-4.0096,-4.0096,-4.0096,-4.0096,-4.0096,-4.0096,-4.0096,-4.0096,-4.0096,-4.0096,-4.0096,-4.0096,-4.0096,-4.0096,-4.0096,-4.0096,-4.0096,-4.0096,-4.0096,-4.0096,-4.0096,-3.9605,-3.9317,-3.9317,-3.8582,-3.821,-3.821,-3.7466,-3.7117,-3.7117,-3.6315,-3.5943,-3.5926,-3.5701,-3.56,0.0,0.0,0.0,-4.0096,-4.0096,-4.0096,-4.0096,-4.0096,-4.0096,-4.0096,-4.0096,-4.0096,0.0,0.0,0.0,0.0,0.0,0.0,0.0,0.0,-4.007,-4.002,-3.9342,-3.8854,-3.8827,-3.8189,-3.7456,-3.6646,-3.6584,-3.6275,-3.5537,-3.5504,-3.5504,-3.5504,-3.5504,-3.5504,-3.5504,-3.5504,-3.5504,-3.5504,-3.5504,-3.5504,-3.5504,-3.5504,-3.5504,-3.5537,-3.6275,-3.707,-3.7793,-3.7822,-3.875,-4.002,-3.9246,-3.9394,-4.0096,-4.0096,-4.0096,-4.0096,-4.0096,-4.0096,-4.0096,-4.0096,-4.0096,-4.0096,-4.0096,-4.0096,-4.0096,-4.0096,-4.0096,-4.0096,-4.0096,-4.0096,-4.0096,-4.0096,-4.0096,-4.0096,-4.0096,-4.0096,-4.0096,-4.0096,-4.0096,-4.0096,-4.0096,-4.0096,-4.0096,-4.0096,-4.0096,-4.0096,-4.0096,-4.0096,-4.0096,-4.0096,-4.0096,-4.0096,-4.0096,-4.0096,-4.0096,-4.0096,-4.0079,-4.0062,-4.0062,-3.9368,-3.8954,-3.8954,-3.8244,-3.7872,-3.7872,-3.711,-3.6761,-3.6745,-3.596,-3.56,0.0,0.0,-4.0096,-4.0096,0.0,0.0,-4.0096,-4.0096,-4.0096,-4.0096,-4.0096,-4.0096,0.0,0.0,0.0,0.0,0.0,0.0,0.0,0.0,-4.0096,-4.0096,-3.9876,-3.9489,-3.8935,-3.9156,-3.8805,-3.7469,-3.786,-3.7555,-3.6306,-3.6228,-3.6006,-3.5504,-3.5504,-3.5504,-3.5504,-3.5504,-3.5504,-3.5504,-3.5504,-3.5504,-3.5504,-3.5504,-3.5504,-3.5504,-3.575,-3.66,-3.7793,-3.7793,-3.8723,-4.007,-3.9808,-3.9876,-4.0096,-4.0096,-4.0096,-4.0096,-4.0096,-4.0096,-4.0096,-4.0096,-4.0096,-4.0096,-4.0096,-4.0096,-4.0096,-4.0096,-4.0096,-4.0096,-4.0096,-4.0096,-4.0096,-4.0096,-4.0096,-4.0096,-4.0096,-4.0096,-4.0096,-4.0096,-4.0096,-4.0096,-4.0096,-4.0096,-4.0096,-4.0096,-4.0096,-4.0096,-4.0096,-4.0096,-4.0096,-4.0096,-4.0096,-4.0096,-4.0096,-4.0096,-4.0096,-4.0096,-4.0096,-4.0096,-4.0096,-3.9859,-3.974,-3.974,-3.8988,-3.8633,-3.8633,-3.7889,-3.7533,-3.7516,-3.7263,-3.6563,-3.9662,-3.9876,0.0,-4.0096,-4.0096,0.0,-4.0096,0.0,-4.0096,-4.0096,-4.0096,-4.0096,0.0,0.0,0.0,0.0,0.0,0.0,0.0,-4.0096,0.0,-4.0096,-4.0096,-3.9901,-3.9368,-3.9808,-3.9558,-3.829,-3.8635,-3.8342,-3.7084,-3.6768,-3.6384,-3.5926,-3.5651,-3.5504,-3.5504,-3.5504,-3.5504,-3.5504,-3.5504,-3.5504,-3.5504,-3.5504,-3.5636,-3.5894,-3.5894,-3.6753,-3.8177,-3.7892,-3.8723,-4.007,-3.9782,-3.985,-4.0096,-4.0096,-4.0096,-4.0096,-4.0096,-4.0096,-4.0096,-4.0096,-4.0096,-4.0096,-4.0096,-4.0096,-4.0096,-4.0096,-4.0096,-4.0096,-4.0096,-4.0096,-4.0096,-4.0096,-4.0096,-4.0096,-4.0096,-4.0096,-4.0096,-4.0096,-4.0096,-4.0096,-4.0096,-4.0096,-4.0096,-4.0096,-4.0096,-4.0096,-4.0096,-4.0096,-4.0096,-4.0096,-4.0096,-4.0096,-4.0096,-4.0096,-4.0096,-4.0096,-4.0096,-4.0096,-4.0096,-4.0096,-4.0096,-4.0096,-3.9639,-3.9402,-3.9402,-3.865,-3.8294,-3.8278,-3.8024,-3.7381]},{"header":{"parameterUnit":"m.s-1","parameterCategory":1,"la1":30.6,"la2":29.2853,"lo1":-89.7004,"lo2":-87.6739,"dx":0.0162,"dy":0.0183,"nx":112,"ny":82,"refTime":"2023-02-21T18:00:00:Z","depth":0,"parameterNumber":3,"parameterNumberName":"V-component_of_WINDS"},"data":[0.0,0.0,0.0,0.0,0.0,0.0,0.0,0.0,0.0,0.0,0.0,0.0,0.0,0.0,0.0,0.0,0.0,0.0,0.0,0.0,0.0,0.0,0.0,0.0,0.0,0.0,0.0,0.0,0.0,0.0,0.0,0.0,0.0,0.0,0.0,0.0,0.0,0.0,0.0,0.0,0.0,0.0,0.0,0.0,0.0,0.0,0.0,0.0,0.0,0.0,0.0,0.0,0.0,0.0,0.0,0.0,0.0,0.0,0.0,0.0,0.0,0.0,0.0,0.0,0.0,0.0,0.0,0.0,0.0,0.0,0.0,0.0,0.0,0.0,0.0,0.0,0.0,0.0,0.0,0.0,0.0,0.0,0.0,0.0,0.0,0.0,0.0,0.0,0.0,0.0,0.0,0.0,0.0,-0.0072,-0.018,-0.1874,-0.2959,-0.3103,0.0,0.0,0.0,0.0,0.0,0.0,0.0,0.0,0.0,0.0,0.0,0.0,0.0,0.0,0.0,0.0,0.0,0.0,0.0,0.0,0.0,0.0,0.0,0.0,0.0,0.0,0.0,0.0,0.0,0.0,0.0,0.0,0.0,0.0,0.0,0.0,0.0,0.0,0.0,0.0,0.0,0.0,0.0,0.0,0.0,0.0,0.0,0.0,0.0,0.0,0.0,0.0,0.0,0.0,0.0,0.0,0.0,0.0,0.0,0.0,0.0,0.0,0.0,0.0,0.0,0.0,0.0,0.0,0.0,0.0,0.0,0.0,0.0,0.0,0.0,0.0,0.0,0.0,0.0,0.0,0.0,0.0,0.0,0.0,0.0,0.0,0.0,0.0,0.0,0.0,0.0,0.0,0.0,0.0,0.0,0.0,0.0,0.0,0.0,0.0,0.0,0.0,0.0,0.0,0.0,0.0,0.0,-0.0307,-0.1053,-0.2218,-0.3229,-0.3967,0.0,0.0,0.0,0.0,0.0,0.0,0.0,0.0,0.0,0.0,0.0,0.0,0.0,0.0,0.0,0.0,0.0,0.0,0.0,0.0,0.0,0.0,0.0,0.0,0.0,0.0,0.0,0.0,0.0,0.0,0.0,0.0,0.0,0.0,0.0,0.0,0.0,0.0,0.0,0.0,0.0,0.0,0.0,0.0,0.0,0.0,0.0,0.0,0.0,0.0,0.0,0.0,0.0,0.0,0.0,0.0,0.0,0.0,0.0,0.0,0.0,0.0,0.0,0.0,0.0,0.0,0.0,0.0,0.0,0.0,0.0,0.0,0.0,0.0,0.0,0.0,0.0,0.0,0.0,0.0,0.0,0.0,0.0,0.0,0.0,0.0,0.0,0.0,0.0,0.0,0.0,0.0,0.0,0.0,0.0,0.0,0.0,0.0,0.0,0.0,0.0,0.0,0.0,0.0,0.0,0.0,0.0,-0.0168,-0.0572,-0.1493,-0.2422,-0.3343,-0.6314,0.0,0.0,0.0,0.0,0.0,0.0,0.0,0.0,0.0,0.0,0.0,0.0,0.0,0.0,0.0,0.0,0.0,0.0,0.0,0.0,0.0,0.0,0.0,0.0,0.0,0.0,0.0,0.0,0.0,0.0,0.0,0.0,0.0,0.0,0.0,0.0,0.0,0.0,0.0,0.0,0.0,0.0,0.0,0.0,0.0,0.0,0.0,0.0,0.0,0.0,0.0,0.0,0.0,0.0,0.0,0.0,0.0,0.0,0.0,0.0,0.0,0.0,0.0,0.0,0.0,0.0,0.0,0.0,0.0,0.0,0.0,0.0,0.0,0.0,0.0,0.0,0.0,0.0,0.0,0.0,0.0,0.0,0.0,0.0,0.0,0.0,0.0,0.0,0.0,0.0,0.0,0.0,0.0,0.0,0.0,0.0,0.0,0.0,0.0,0.0,0.0,0.0,0.0,0.0,0.0,0.0,0.0,0.0,-0.0806,-0.1708,-0.2644,-0.5406,0.0,0.0,0.0,0.0,0.0,0.0,0.0,0.0,0.0,0.0,0.0,0.0,0.0,0.0,0.0,0.0,0.0,0.0,0.0,0.0,0.0,0.0,0.0,0.0,0.0,0.0,0.0,0.0,0.0,0.0,0.0,0.0,0.0,0.0,0.0,0.0,0.0,0.0,0.0,0.0,0.0,0.0,0.0,0.0,0.0,0.0,0.0,0.0,0.0,0.0,0.0,0.0,0.0,0.0,0.0,0.0,0.0,0.0,0.0,0.0,0.0,0.0,0.0,0.0,0.0,0.0,0.0,0.0,0.0,0.0,0.0,0.0,0.0,0.0,0.0,0.0,0.0,0.0,0.0,0.0,0.0,0.0,0.0,0.0,0.0,0.0,0.0,0.0,0.0,0.0,0.0,0.0,0.0,0.0,0.0,0.0,0.0,0.0,0.0,0.0,0.0,0.0,0.0,0.0,0.0,0.0,0.0,0.0,-0.0806,-0.1708,-0.2644,-0.518,0.0,0.0,0.0,0.0,0.0,0.0,0.0,0.0,0.0,0.0,0.0,0.0,0.0,0.0,0.0,0.0,0.0,0.0,0.0,0.0,0.0,0.0,0.0,0.0,0.0,0.0,0.0,0.0,0.0,0.0,0.0,0.0,0.0,0.0,0.0,0.0,0.0,0.0,0.0,0.0,0.0,0.0,0.0,0.0,0.0,0.0,0.0,0.0,0.0,0.0,0.0,0.0,0.0,0.0,0.0,0.0,0.0,0.0,0.0,0.0,0.0,0.0,0.0,0.0,0.0,0.0,0.0,0.0,0.0,0.0,0.0,0.0,0.0,0.0,0.0,0.0,0.0,0.0,0.0,0.0,0.0,0.0,0.0,0.0,0.0,0.0,0.0,0.0,0.0,0.0,0.0,0.0,0.0,0.0,0.0,0.0,0.0,0.0,0.0,0.0,0.0,0.0,0.0806,0.0806,0.0806,0.0337,0.0,0.0,-0.0303,-0.1108,-0.2611,0.0,0.0,0.0,0.0,0.0,0.0,0.0,0.0,0.0,0.0,0.0,0.0,0.0,0.0,0.0,0.0,0.0,0.0,0.0,0.0,0.0,0.0,0.0,0.0,0.0,0.0,0.0,0.0,0.0,0.0,0.0,0.0,0.0,0.0,0.0,0.0,0.0,0.0,0.0,0.0,0.0,0.0,0.0,0.0,0.0,0.0,0.0,0.0,0.0,0.0,0.0,0.0,0.0,0.0,0.0,0.0,0.0,0.0,0.0,0.0,0.0,0.0,0.0,0.0,0.0,0.0,0.0,0.0,0.0,0.0,0.0,0.0,0.0,0.0,0.0,0.0,0.0,0.0,0.0,0.0,0.0,0.0,0.0,0.0,0.0,0.0,0.0,0.0,0.0,0.0,0.0,0.0,0.0,0.0,0.0,0.0,0.0,0.0,0.0,0.0,0.0,0.0,0.1713,0.1742,0.1641,0.134,0.0772,0.0303,0.0034,0.0,-0.0773,-0.2577,0.0,0.0,0.0,0.0,0.0,0.0,0.0,0.0,0.0,0.0,0.0,0.0,0.0,0.0,0.0,0.0,0.0,0.0,0.0,0.0,0.0,0.0,0.0,0.0,0.0,0.0,0.0,0.0,0.0,0.0,0.0,0.0,0.0,0.0,0.0,0.0,0.0,0.0,0.0,0.0,0.0,0.0,0.0,0.0,0.0,0.0,0.0,0.0,0.0,0.0,0.0,0.0,0.0,0.0,0.0,0.0,0.0,0.0,0.0,0.0,0.0,0.0,0.0,0.0,0.0,0.0,0.0,0.0,0.0,0.0,0.0,0.0,0.0,0.0,0.0,0.0,0.0,0.0,0.0,0.0,0.0,0.0,0.0,0.0,0.0,0.0,0.0,0.0,0.0,0.0,0.0,0.0,0.0,0.0,0.0,0.0,0.0,0.0,0.0,0.0,0.0,0.0,0.2611,0.2711,0.2342,0.1441,0.1307,0.0939,0.0101,0.0,-0.0773,0.0,0.0,0.0,0.0,0.0,0.0,0.0,0.0,0.0,0.0,0.0,0.0,0.0,0.0,0.0,0.0,0.0,0.0,0.0,0.0,0.0,0.0,0.0,0.0,0.0,0.0,0.0,0.0,0.0,0.0,0.0,0.0,0.0,0.0,0.0,0.0,0.0,0.0,0.0,0.0,0.0,0.0,0.0,0.0,0.0,0.0,0.0,0.0,0.0,0.0,0.0,0.0,0.0,0.0,0.0,0.0,0.0,0.0,0.0,0.0,0.0,0.0,0.0,0.0,0.0,0.0,0.0,0.0,0.0,0.0,0.0,0.0,0.0,0.0,0.0,0.0,0.0,0.0,0.0,0.0,0.0,0.0,0.0,0.0,0.0,0.0,0.0,0.0,0.0,0.0,0.0,0.0,0.0,0.0,0.0,0.0,0.0,0.0,0.0,0.0,0.0,0.0,0.0,0.358,0.3613,0.3513,0.3245,0.2075,0.1207,0.094,0.0337,-0.0773,-0.2577,0.0,0.0,0.0,0.0,0.0,0.0,0.0,0.0,0.0,0.0,0.0,0.0,0.0,0.0,0.0,0.0,0.0,0.0,0.0,0.0,0.0,0.0,0.0,0.0,0.0,0.0,0.0,0.0,0.0,0.0,0.0,0.0,0.0,0.0,0.0,0.0,0.0,0.0,0.0,0.0,0.0,0.0,0.0,0.0,0.0,0.0,0.0,0.0,0.0,0.0,0.0,0.0,0.0,0.0,0.0,0.0,0.0,0.0,0.0,0.0,0.0,0.0,0.0,0.0,0.0,0.0,0.0,0.0,0.0,0.0,0.0,0.0,0.0,0.0,0.0,0.0,0.0,0.0,0.0,0.0,0.0,0.0,0.0,0.0,0.0,0.0,0.0,0.0,0.0,0.0,0.0,0.0,0.0,0.0,0.0,0.0,0.0,0.0,0.0,0.0,0.0,0.0,0.4519,0.4553,0.4417,0.4048,0.3011,0.2075,0.1374,0.0806,-0.0235,-0.2043,0.0,0.0,0.0,0.0,0.0,0.0,0.0,0.0,0.0,0.0,0.0,0.0,0.0,0.0,0.0,0.0,0.0,0.0,0.0,0.0,0.0,0.0,0.0,0.0,0.0,0.0,0.0,0.0,0.0,0.0,0.0,0.0,0.0,0.0,0.0,0.0,0.0,0.0,0.0,0.0,0.0,0.0,0.0,0.0,0.0,0.0,0.0,0.0,0.0,0.0,0.0,0.0,0.0,0.0,0.0,0.0,0.0,0.0,0.0,0.0,0.0,0.0,0.0,0.0,0.0,0.0,0.0,0.0,0.0,0.0,0.0,0.0,0.0,0.0,0.0,0.0,0.0,0.0,0.0,0.0,0.0,0.0,0.0,0.0,0.0,0.0,0.0,0.0,0.0,0.0,0.0,0.0,0.0,0.0,0.0,0.0,0.0,0.0,0.0,0.0,0.0,0.0,0.5292,0.5395,0.509,0.4215,0.4048,0.3345,0.1675,0.1407,0.0603,-0.1072,0.0,0.0,0.0,0.0,0.0,0.0,0.0,0.0,0.0,0.0,0.0,0.0,0.0,0.0,0.0,0.0,0.0,0.0,0.0,0.0,0.0,0.0,0.0,0.0,0.0,0.0,0.0,0.0,0.0,0.0,0.0,0.0,0.0,0.0,0.0,0.0,0.0,0.0,0.0,0.0,0.0,0.0,0.0,0.0,0.0,0.0,0.0,0.0,0.0,0.0,0.0,0.0,0.0,0.0,0.0,0.0,0.0,0.0,0.0,0.0,0.8689,0.7591,0.0,0.0,0.0,0.0,0.0,0.0,0.0,0.0,0.0,0.0,0.0,0.0,0.0,0.0,0.0,0.0,0.0,0.0,0.0,0.0,0.0,0.0,0.0,0.0,0.0,0.0,0.0,0.0,0.0,0.0,0.0,0.0,0.0,0.0,0.0,0.0,0.0,0.0,0.0,0.0,0.5362,0.5395,0.5329,0.5123,0.4453,0.3846,0.3447,0.211,0.0837,-0.02,-0.1104,0.0,0.0,0.0,0.0,0.0,0.0,0.0,0.0,0.0,0.0,0.0,0.0,0.0,0.0,0.0,0.0,0.0,0.0,0.0,0.0,0.0,0.0,0.0,0.0,0.0,0.0,0.0,0.0,0.0,0.0,0.0,0.0,0.0,0.0,0.0,0.0,0.0,0.0,0.0,0.0,0.0,0.0,0.0,0.0,0.0,0.0,0.0,0.0,0.0,0.0,0.0,0.0,0.0,0.0,0.0,0.0,0.0,0.0,0.0,0.9631,0.8803,0.0,0.0,0.0,0.0,0.0,0.0,0.0,0.0,0.0,0.0,0.0,0.0,0.0,0.0,0.0,0.0,0.0,0.0,0.0,0.0,0.0,0.0,0.0,0.0,0.0,0.0,0.0,0.0,0.0,0.0,0.0,0.0,0.0,0.0,0.0,0.0,0.0,0.0,0.0,0.0,0.5395,0.5395,0.5395,0.5395,0.4957,0.4483,0.4048,0.3145,0.2241,0.1336,0.0067,0.0,0.0,0.0,0.0,0.0,0.0,0.0,0.0,0.0,0.0,0.0,0.0,0.0,0.0,0.0,0.0,0.0,0.0,0.0,0.0,0.0,0.0,0.0,0.0,0.0,0.0,0.0,0.0,0.0,0.0,0.0,0.0,0.0,0.0,0.0,0.0,0.0,0.0,0.0,0.0,0.0,0.0,0.0,0.0,0.0,0.0,0.0,0.0,0.0,0.0,0.0,0.0,0.0,0.9665,1.0105,1.0875,1.0031,1.0555,1.2035,1.0407,1.0112,1.0671,0.9026,0.0,0.0,0.0,0.0,0.0,0.0,0.0,0.0,0.0,0.0,0.0,0.0,0.0,0.0,0.0,0.0,0.0,0.0,0.0,0.0,0.0,0.0,0.8052,0.86,0.8737,0.807,0.5668,0.0,0.0,0.0,0.0,0.0,0.0,0.0,0.0,0.0,0.0,0.0,0.5818,0.5719,0.562,0.562,0.5491,0.509,0.4317,0.4082,0.368,0.2978,0.1369,0.0334,0.0,0.0,0.0,0.0,0.0,0.0,0.0,0.0,0.0,0.0,0.0,0.0,0.0,0.0,0.0,0.0,0.0,0.0,0.0,0.0,0.0,0.0,0.0,0.0,0.0,0.0,0.0,0.0,0.0,0.0,0.0,0.0,1.5043,1.5029,0.0,0.0,0.0,0.0,0.0,0.0,0.0,0.0,0.0,0.0,0.0,0.0,0.0,1.2321,1.2465,1.1564,1.1121,1.1121,1.1121,1.119,1.1329,1.1184,1.1259,1.1509,1.1225,0.0,1.0783,1.0522,0.0,0.0,0.0,0.0,0.0,0.0,0.0,0.0,0.0,0.0,0.0,0.0,0.0,0.0,0.0,0.0,0.0,0.0,0.0,0.0,0.0,0.0,0.834,0.8417,0.8443,0.8323,0.7833,0.8001,0.8173,0.7937,0.7947,0.7731,0.0,0.0,0.0,0.0,0.0,0.0,0.7572,0.6981,0.6523,0.6523,0.5848,0.5359,0.5226,0.4453,0.3949,0.3846,0.2909,0.1637,0.0067,0.0602,0.0,0.0,0.0,0.0,0.0,0.0,0.0,0.0,0.0,0.0,0.0,0.0,0.0,0.0,0.0,0.0,0.0,0.0,0.0,0.0,0.0,0.0,0.0,0.0,0.0,0.0,0.0,0.0,0.0,1.5333,1.5411,1.593,1.5119,1.4522,0.0,0.0,0.0,0.0,0.0,0.0,0.0,0.0,0.0,1.4145,1.364,1.3369,1.3369,1.2993,1.2826,1.2826,1.2826,1.2826,1.2826,1.2826,1.2826,1.2826,1.2826,1.2704,1.2424,1.0914,1.0031,0.9641,0.0,0.0,0.0,0.0,0.9999,1.0153,1.0153,1.0153,1.013,0.9961,0.0,0.0,0.0,0.0,0.0,0.0,0.0,0.872,0.9253,0.9319,0.935,0.9769,0.987,0.9805,0.9584,0.958,0.9324,0.8294,0.8476,0.851,0.7582,0.7437,0.0,0.0,0.0,0.7567,0.7962,0.7665,0.7437,0.7437,0.6658,0.6141,0.6141,0.5315,0.4788,0.4788,0.3949,0.3076,0.227,0.214,0.1272,0.0,0.0,0.0,0.0,0.0,0.0,0.0,0.0,0.0,0.0,0.0,0.0,0.0,0.0,0.0,0.0,0.0,0.0,0.0,0.0,0.0,0.0,0.0,0.0,0.0,0.0,0.0,0.0,1.6219,1.6193,1.6888,1.6114,1.5552,0.0,0.0,0.0,0.0,0.0,0.0,1.4672,1.4246,1.4142,1.4461,1.415,1.3971,1.3971,1.3777,1.3688,1.3688,1.3688,1.3688,1.3688,1.3688,1.3688,1.3688,1.3688,1.3688,1.3494,1.1458,1.0601,1.0601,1.0366,1.0452,1.0669,1.0669,1.0791,1.0961,1.0961,1.0961,1.0925,1.073,1.0669,1.0485,0.9478,0.0,0.0,0.0,0.0,0.9289,1.025,1.0276,1.0319,1.1274,1.1356,1.1139,1.0943,1.0895,1.0471,0.8962,0.9198,0.9364,0.8484,0.8318,0.0,0.8318,0.8318,0.842,0.864,0.8479,0.8318,0.8318,0.7567,0.7046,0.7046,0.6433,0.598,0.5752,0.5077,0.4478,0.4015,0.338,0.2611,0.1675,0.0,0.0,0.0,0.0,0.0,0.0,0.0,0.0,0.0,0.0,0.0,0.0,0.0,0.0,0.0,0.0,0.0,0.0,0.0,0.0,0.0,0.0,0.0,0.0,0.0,0.0,0.0,0.0,0.0,1.794,1.7104,0.0,0.0,0.0,0.0,1.454,1.386,1.3992,1.5201,1.4599,1.475,1.5953,1.4807,1.4178,1.4178,1.3424,1.3066,1.3066,1.3066,1.3066,1.3066,1.3066,1.3066,1.3066,1.3066,1.3066,1.3024,1.2676,1.2545,1.2477,1.1662,1.1327,1.134,1.134,1.1353,1.1366,1.1366,1.1366,1.136,1.1347,1.134,1.134,1.1258,1.1252,0.0,0.0,1.1054,1.1068,1.1859,1.1336,1.0968,1.2521,1.232,1.1763,1.1741,1.1741,1.15,1.0611,1.0498,1.0269,0.9402,0.0,0.9242,0.9242,0.9242,0.953,1.0364,0.9754,0.9242,0.9242,0.8452,0.7929,0.7929,0.7897,0.7507,0.6687,0.6588,0.5796,0.4082,0.3949,0.3513,0.2644,0.2644,0.0,0.0,0.0,0.0,0.0,0.0,0.0,0.0,0.0,0.0,0.0,0.0,0.0,0.0,0.0,0.0,0.0,0.0,0.0,0.0,0.0,0.0,0.0,0.0,0.0,0.0,0.0,0.0,1.8008,1.7681,0.0,1.7501,1.6818,1.6376,1.6376,1.561,1.5337,1.5806,1.5265,1.5185,1.5644,1.5224,1.4962,1.4962,1.4688,1.454,1.454,1.454,1.454,1.454,1.454,1.454,1.454,1.454,1.454,1.4499,1.3899,1.3365,1.2862,1.2545,1.2226,1.1977,1.2503,1.2513,1.2308,1.2826,1.3027,1.2955,1.2767,1.2554,1.2449,1.2449,1.2449,1.2449,1.2449,1.2357,1.2359,1.2632,1.2422,1.2274,1.2856,1.2787,1.2573,1.2573,1.2573,1.2481,1.2212,1.1296,1.0498,1.0174,1.0142,1.0142,1.0142,1.0142,1.0238,1.0561,1.0333,1.0142,1.0142,0.9364,0.8844,0.8844,0.8323,0.7864,0.7567,0.7013,0.642,0.5763,0.5213,0.4486,0.3547,0.3547,0.3247,0.0,0.0,0.0,0.0,0.0,0.0,0.0,0.0,0.0,0.0,0.0,0.0,0.0,0.0,0.0,0.0,0.0,0.0,0.0,0.0,0.0,0.0,0.0,0.0,0.0,1.8008,1.8008,1.8008,1.8008,1.8008,1.8008,1.7627,1.7324,1.7178,1.6506,1.6026,1.588,1.5566,1.541,1.541,1.541,1.541,1.541,1.541,1.541,1.541,1.541,1.541,1.541,1.541,1.541,1.541,1.541,1.541,1.5352,1.4815,1.4293,1.3756,1.3213,1.2779,1.253,1.3074,1.3076,1.2869,1.3405,1.3598,1.3557,1.3344,1.3137,1.3009,1.3009,1.3009,1.3009,1.3009,1.3009,1.307,1.3334,1.3191,1.313,1.3666,1.3606,1.3394,1.3394,1.3394,1.3312,1.3039,1.2151,1.1421,1.1421,1.117,1.0982,1.0982,1.0776,1.0593,1.0593,1.0593,1.0593,1.0593,1.0079,0.9722,0.9722,0.9198,0.8737,0.8452,0.7892,0.7437,0.7144,0.6301,0.5547,0.4938,0.4613,0.4015,0.3145,0.0,0.0,0.0,0.0,0.0,0.0,0.0,0.0,0.0,0.0,0.0,0.0,0.0,0.0,0.0,0.0,0.0,0.0,0.0,0.0,0.0,0.0,0.0,1.8337,1.8076,1.8076,1.8076,1.8076,1.8042,1.8076,1.7693,1.7272,1.6841,1.6421,1.5979,1.5508,1.5488,1.5478,1.5468,1.5468,1.5468,1.5468,1.5468,1.5468,1.5468,1.5468,1.5468,1.5439,1.5468,1.5439,1.541,1.541,1.541,1.541,1.541,1.541,1.5264,1.3666,1.307,1.3039,1.307,1.307,1.307,1.307,1.307,1.307,1.307,1.307,1.307,1.307,1.307,1.307,1.307,1.307,1.3243,1.4025,1.3666,1.3463,1.5021,1.4805,1.4243,1.4243,1.4243,1.4004,1.3221,1.307,1.307,1.3009,1.2358,1.1826,1.1826,1.117,0.0,1.0688,1.0688,1.0688,1.0656,1.0656,1.0624,1.0593,1.0593,1.0238,0.9402,0.9306,0.8909,0.8091,0.7209,0.6719,0.6687,0.5881,0.4954,0.4015,0.0,0.0,0.0,0.0,0.0,0.0,0.0,0.0,0.0,0.0,0.0,0.0,0.0,0.0,0.0,0.0,0.0,0.0,0.0,0.0,0.0,2.043,2.043,1.9944,1.9879,1.9879,1.9879,1.9332,1.9177,1.9814,1.8911,1.849,1.8981,1.8659,1.8199,1.7672,1.764,1.7448,1.7006,1.6996,1.6996,1.6996,1.6996,1.6996,1.6996,1.6996,1.6726,1.6208,1.6754,1.6415,1.5439,1.5979,1.5892,1.541,1.541,1.541,1.5352,1.4894,1.4392,1.3936,1.454,1.4746,1.4746,1.4746,1.4746,1.4746,1.4746,1.4746,1.4746,1.4746,1.4746,1.4746,1.4746,1.4746,1.4776,1.5021,1.4903,1.4835,1.5294,1.5225,1.5079,1.5079,1.5079,1.4991,1.4776,1.4746,1.4362,1.3191,1.2826,1.2665,1.2665,1.2489,1.2336,1.2336,1.2336,1.212,1.1531,1.1469,1.1226,1.0656,1.0593,1.0498,1.0269,0.9658,0.9204,0.8941,0.8091,0.734,0.6719,0.6461,0.5569,0.0,0.0,0.0,0.0,0.0,0.0,0.0,0.0,0.0,0.0,0.0,0.0,0.0,0.0,0.0,0.0,0.0,0.0,0.0,0.0,0.0,0.0,2.1416,2.1647,2.1647,2.1037,2.059,2.059,2.0139,2.0042,2.0558,1.9919,1.9572,1.9893,1.9674,1.9332,1.8847,1.8854,1.8678,1.8328,1.8317,1.8317,1.8317,1.8317,1.8317,1.8306,1.8076,1.7761,1.7337,1.7512,1.7135,1.6358,1.6782,1.6726,1.633,1.633,1.633,1.6273,0.0,0.0,0.0,0.0,1.541,1.541,1.541,1.541,1.541,1.541,1.541,1.541,1.541,1.541,1.541,1.541,1.541,1.541,1.541,1.541,1.541,1.541,1.541,1.541,1.541,1.541,1.541,1.541,1.541,0.0,1.4183,1.3734,1.3485,1.3485,1.3221,1.3009,1.3009,1.3009,1.2818,1.2358,1.2297,1.1989,1.117,1.1108,0.0,0.0,0.0,0.969,0.9306,0.8812,0.0,0.0,0.0,0.6551,0.5137,0.5496,0.0,0.0,0.3949,0.3949,0.0,0.0,0.0,0.0,0.0,0.0,0.0,0.0,0.0,0.0,0.0,0.0,0.0,0.0,0.0,0.0,2.2628,2.3108,2.3108,2.1834,2.0878,2.0878,2.0814,2.0782,2.0878,2.0814,2.0602,2.0304,2.027,2.0084,1.9652,1.9629,0.0,0.0,0.0,1.9549,1.9549,1.9549,1.9549,1.9538,1.9063,1.8788,1.8691,1.8254,1.7906,1.7723,1.7794,1.7733,1.7605,1.7605,1.7605,1.7457,1.6083,1.5468,1.541,1.541,1.541,1.541,1.541,0.0,0.0,1.541,1.541,1.541,1.541,1.541,1.541,1.541,1.541,1.541,1.541,1.541,1.541,1.541,1.541,1.541,1.541,1.541,1.541,1.541,1.541,1.541,1.541,1.4815,1.4332,1.4332,1.3734,1.3274,1.3274,1.3274,1.3252,1.3161,1.313,0.0,1.2012,1.1865,1.15,1.0776,1.0649,1.0238,0.9466,0.9434,0.9037,0.8156,0.8156,0.7735,0.685,0.7632,0.7214,0.5686,0.4749,0.4683,0.0,0.0,0.0,0.0,0.0,0.0,0.0,0.0,0.0,0.0,0.0,0.0,0.0,0.0,0.0,2.2884,2.3017,2.3108,2.3108,2.2811,2.2628,2.2628,2.2032,2.1896,2.2567,2.2032,2.1892,2.2438,2.2469,2.2265,2.1753,2.1728,2.1531,2.1087,2.1075,2.1075,2.1075,2.1075,2.1075,2.1075,2.0964,0.0,2.0038,2.0539,1.9857,1.8363,1.8953,1.8598,1.7605,1.7605,1.7605,1.7523,1.6613,1.5921,1.541,1.541,1.541,1.541,1.541,1.541,1.541,1.541,1.541,1.541,1.541,1.541,0.0,1.541,1.541,1.541,1.541,1.541,1.541,1.541,1.541,1.541,1.541,1.541,1.541,1.541,1.541,1.541,1.541,1.5255,1.5177,1.5177,1.505,1.4932,1.4932,1.4932,1.4688,1.4025,1.3974,1.3636,1.2848,1.2166,1.1741,1.1593,1.0958,1.0523,1.0371,1.0333,0.9945,0.9075,0.9043,0.8619,0.7767,0.7929,0.7832,0.7474,0.6588,0.5906,0.0,0.0,0.0,0.0,0.0,0.0,0.0,0.0,0.0,0.0,0.0,2.3108,0.0,0.0,2.3108,2.3108,2.3108,2.3108,2.3108,2.3108,2.3108,2.3108,2.2763,2.2659,2.3078,2.2732,2.2659,2.3078,2.3108,2.2982,2.2706,2.2694,2.2569,2.2322,2.2309,2.2309,2.2309,2.2309,2.2309,2.2309,2.2033,2.1724,2.1354,2.1437,2.0955,2.0029,2.0378,2.0019,1.9122,1.8834,1.8474,1.8124,1.7731,1.6912,1.5921,1.5555,1.541,1.541,1.541,1.541,1.541,1.541,1.541,1.541,1.541,1.541,1.541,1.541,1.541,1.541,1.541,1.541,1.541,1.541,1.541,1.541,1.541,1.541,1.541,1.541,1.541,1.541,1.541,1.541,1.541,1.541,1.541,1.541,1.541,1.541,1.5264,1.4844,1.4805,1.4481,1.3674,1.2504,1.1803,1.1803,1.1045,1.0593,1.0593,1.0593,1.0396,0.9951,0.9945,0.9524,0.8646,0.9102,0.8865,0.7994,0.7994,0.754,0.0,0.0,0.0,0.0,0.0,0.0,0.0,0.0,2.3108,2.3108,2.3108,2.3108,2.3108,2.3108,2.3108,2.3108,2.3108,2.3108,2.3108,2.3108,2.3108,2.3108,2.3108,2.3108,2.3108,2.3108,2.3108,2.3108,2.3108,2.3108,2.3108,2.3108,2.3108,2.3108,2.3108,2.3108,2.3108,2.3108,2.3108,2.3095,2.2656,2.2472,2.2431,2.2008,2.1744,2.1644,2.1543,2.1257,2.0817,2.0326,1.9709,1.9068,1.8923,1.8068,1.6838,1.6112,1.5825,1.5825,1.5825,1.5825,1.5825,1.5825,1.5719,1.5604,1.5604,1.5497,1.541,1.541,1.541,1.541,1.541,1.541,1.541,1.541,1.541,1.541,1.541,1.541,1.541,1.541,1.541,1.541,1.541,1.541,1.541,1.541,1.541,1.541,1.541,1.541,1.541,1.541,1.541,1.5079,1.4273,1.3014,1.2197,1.205,1.1413,1.0989,1.0832,1.0832,1.0776,1.0593,1.0593,1.0238,0.9562,1.0269,0.9875,0.8511,0.9236,0.9005,2.3305,2.3108,2.3108,2.3108,2.3108,2.3108,0.0,0.0,2.3108,2.3108,2.3108,2.3108,2.3108,2.3108,2.3108,2.3108,2.3108,2.3108,2.3108,2.3108,2.3108,2.3108,2.3108,2.3108,2.3108,2.3108,2.3108,2.3108,2.3108,2.3108,2.3108,2.3108,2.3108,2.3108,2.3108,2.3108,2.3108,2.3108,2.3108,2.3108,2.3045,2.3007,2.3007,2.2945,2.2656,2.2184,2.1707,2.1455,2.1421,2.133,2.0976,2.0418,1.9755,1.9061,1.8355,1.7622,1.7357,1.7357,1.7357,1.7357,1.7357,1.7357,1.6922,1.6379,1.6379,1.5921,1.541,1.541,1.541,1.541,1.541,1.541,1.541,1.541,1.541,1.541,1.541,1.541,1.541,1.541,1.541,1.541,1.541,1.541,1.541,1.541,1.541,1.541,1.541,1.541,1.541,1.541,1.541,1.5079,1.4273,1.4025,1.3636,1.2909,1.2795,1.2428,1.171,1.1679,1.132,1.0624,1.0593,1.0555,1.046,1.0555,1.0498,1.0301,1.0396,0.9582,2.3884,2.3454,2.3215,0.0,2.3454,2.3108,2.3108,2.3108,2.3108,2.3108,2.3371,2.364,2.364,2.3873,2.4086,0.0,2.4086,2.4086,2.4086,2.381,2.364,2.364,2.3308,2.3108,2.3108,2.3108,2.3108,2.3108,2.3108,2.3108,2.3108,2.3108,2.3108,2.3108,2.3108,2.3108,2.3108,2.3108,2.3108,2.3108,2.3108,2.3108,2.3108,2.3108,2.2982,2.2732,2.2209,2.197,2.1945,2.1619,2.1383,2.1142,2.0825,2.0539,2.0107,1.8276,1.7605,1.7605,1.7605,1.7605,1.7605,1.7605,1.7385,1.7135,1.7135,1.6912,1.6687,1.6687,1.6687,1.6687,1.6687,1.6687,1.6585,1.614,1.6036,1.5921,1.5497,1.541,1.541,1.541,1.541,1.541,1.541,1.541,1.541,1.541,1.541,1.541,1.541,1.541,1.541,1.541,1.541,1.5264,1.4932,1.4481,1.4055,1.3726,1.3252,1.2848,1.2512,1.2512,1.2112,1.132,1.1756,1.1545,1.0593,1.1076,1.1045,1.0593,1.0593,1.0199,2.4595,2.4192,0.0,2.4452,2.4018,2.3463,2.3615,2.3485,2.3384,2.3534,2.391,2.423,2.423,2.4556,2.4788,2.4788,2.4788,2.4788,2.4788,2.4481,2.423,2.423,2.3822,2.3509,2.3358,2.3195,2.3108,2.3108,2.3108,2.3108,2.3108,2.3108,2.3108,2.3108,2.3108,2.3108,2.3108,2.3108,2.3108,2.3108,2.3108,2.3108,2.3108,2.3108,2.3108,2.3083,2.2681,2.2506,2.2481,2.2108,2.1845,2.1719,2.1719,2.1619,2.1269,1.9385,1.8596,1.8429,1.8251,1.8205,1.8205,1.8205,1.807,1.7895,1.7895,1.7759,1.7605,1.7605,1.7605,1.7605,1.7605,1.7605,1.7468,1.6922,1.6782,1.6595,1.5864,1.5853,1.594,1.5748,1.5864,1.5997,1.5997,1.5997,1.594,1.5719,1.569,1.5633,1.5439,1.541,1.541,1.541,1.541,1.541,1.541,1.4874,1.454,1.454,1.3965,1.3545,1.3342,1.3334,1.294,1.2143,1.2696,1.2428,1.1264,1.1841,1.1841,1.1264,1.1021,1.0926,0.0,0.0,2.5342,2.537,2.4823,2.4408,2.4902,2.4497,2.4117,2.4625,2.475,2.4763,2.4763,2.4775,2.4788,2.4788,2.4788,2.4788,2.4788,2.4775,2.4763,2.4763,2.475,2.4525,2.4017,2.3434,2.3108,2.3108,2.3108,2.3108,2.3108,2.3108,2.3108,2.3108,2.3108,2.3108,2.3108,2.3108,2.3108,2.3108,2.3108,2.3108,2.3108,2.3108,2.3108,2.3108,2.3083,2.3083,2.3083,2.3058,2.2744,2.2284,2.2284,2.1958,2.1481,2.1415,2.1037,2.0525,1.9935,1.9721,1.9721,1.9721,1.9254,1.8661,1.8661,1.8178,1.7605,1.7605,1.7605,1.7605,1.7605,1.7605,1.7594,1.7578,1.7578,1.7357,1.6624,1.7034,1.733,1.6595,1.7034,1.7523,1.7523,1.7523,1.7302,1.6567,1.6464,1.6208,1.5497,1.541,1.541,1.541,1.541,1.541,1.541,1.5381,1.5352,1.5352,1.5352,1.4991,1.4213,1.4154,1.3795,1.2978,1.2978,1.2978,1.2917,1.2948,1.2948,1.2917,1.2143,1.1772,0.0,0.0,2.5508,2.6014,2.5476,2.4883,2.505,2.4805,2.4562,2.475,2.5096,2.5335,2.5335,2.5649,2.5946,2.5946,2.6376,2.6528,2.6001,2.6089,2.6187,2.6187,2.5881,0.0,0.0,2.4358,2.3521,2.3133,2.3108,2.3108,2.3108,2.3108,2.3108,2.3108,2.3108,2.3108,2.3108,2.3108,2.3108,2.3108,2.3108,2.3108,2.3108,2.3108,2.3108,2.3108,2.3108,2.3108,2.3108,2.3108,2.2995,2.2832,2.2832,2.2719,2.2506,2.2171,2.192,2.1631,2.0717,2.0402,2.0339,1.9924,1.9631,1.9423,1.9423,1.9267,1.9071,1.9071,1.9071,1.9071,1.9071,1.9071,1.8939,1.8447,1.834,1.8124,1.7385,1.7413,1.7523,1.7274,1.744,1.7605,1.7605,1.7605,1.7523,1.7274,1.6397,1.569,1.5439,1.541,1.541,1.541,1.541,1.541,1.541,1.541,1.541,1.541,1.541,1.5294,1.5021,1.4991,1.4628,1.3816,1.4332,1.4064,1.3009,1.3545,1.3515,1.2978,1.2734,1.2297,0.0,2.6549,2.6353,2.7065,2.6344,2.5614,2.6059,2.5604,2.5159,2.536,2.5674,2.59,2.59,2.6248,2.6499,2.6499,2.6939,2.7196,2.6973,2.6819,2.6987,2.7586,2.7075,2.6612,0.0,0.0,2.4677,2.3778,2.371,2.3622,2.3421,2.3409,2.3321,2.3108,2.3108,2.3108,2.3108,2.3108,2.3108,2.3108,2.3108,2.3108,2.3108,2.3108,2.3108,2.3108,2.3108,2.3108,2.3108,2.3108,2.3108,2.3108,2.3108,2.3108,2.3058,2.2706,2.2581,2.2418,2.137,2.0993,2.093,2.0526,2.0275,2.0112,2.0112,1.9962,1.9798,1.9798,1.9798,1.9798,1.9798,1.9798,1.9669,1.9202,1.9097,1.8874,1.814,1.8194,1.8301,1.8031,1.8205,1.8394,1.8394,1.8178,1.7977,1.7977,1.6743,1.5777,1.5777,1.5555,1.541,1.541,1.541,1.541,1.541,1.541,1.541,1.541,1.541,1.541,1.541,1.541,1.5167,1.4628,1.5138,1.4894,1.3846,1.4392,1.4362,1.3846,1.3545,1.3152,2.76,2.763,2.7809,2.8442,2.7449,2.6608,2.7751,2.6782,2.5799,2.6386,2.6499,2.6499,0.0,0.0,2.6499,2.6499,2.6555,2.6871,2.7604,2.7129,2.7263,0.0,0.0,0.0,0.0,0.0,2.6502,2.5127,2.4877,2.4594,2.4067,2.4042,2.3778,2.317,2.3145,2.3133,2.3108,2.3108,2.3108,2.3108,2.3108,2.3108,2.3108,2.3108,2.3108,2.3108,2.3108,2.3108,2.3108,2.3108,2.3108,2.3108,2.3108,2.3108,2.3108,2.3108,2.3108,2.2957,2.1933,2.1556,2.1531,2.1493,2.1169,2.0729,2.0729,2.0352,1.9886,1.9886,1.9886,1.9874,1.9849,1.9849,1.9836,1.9811,1.9798,1.9618,1.89,1.9319,1.9579,1.8874,1.9307,1.9798,1.9798,1.9228,1.8768,1.8768,1.7523,1.6606,1.651,1.5864,1.541,1.541,1.541,1.541,1.541,1.541,1.541,1.541,1.541,1.541,1.541,1.541,1.541,1.541,1.541,1.541,1.541,1.541,1.541,1.5381,1.4628,1.4243,2.76,2.7974,2.8382,2.8562,2.8067,2.7627,2.7944,2.7111,2.6311,2.6461,2.6499,2.6499,0.0,0.0,0.0,2.6499,2.7537,0.0,2.7769,2.8652,0.0,2.9034,0.0,2.9324,2.8529,2.9049,0.0,2.7994,2.5981,2.4725,2.4587,2.4587,2.4324,2.3803,2.3778,2.3547,2.3108,2.3108,2.3108,2.3108,2.3108,2.3108,2.3108,2.3108,2.3108,2.3108,2.3108,2.3108,2.3108,2.3108,2.3108,2.3108,2.3108,2.3108,2.3108,2.3108,2.3108,2.3058,2.2782,2.2447,2.2033,2.1619,2.1421,2.1307,2.1307,2.1179,2.1054,2.1054,2.1054,2.0966,2.0578,2.0478,2.0365,1.9911,1.9798,1.9747,1.9553,1.9669,1.9747,1.9553,1.9669,1.9798,1.9798,1.9631,1.9527,1.9527,1.8741,1.7743,1.6652,1.5864,1.541,1.541,1.541,1.541,1.541,1.541,1.541,1.541,1.541,1.541,1.541,1.541,1.541,1.541,1.541,1.541,1.541,1.541,1.541,1.541,1.5206,1.4776,2.7959,2.8308,2.8727,2.9295,2.8699,2.8081,2.8374,2.7433,2.6499,2.6499,2.6499,0.0,2.6499,2.6499,2.6499,0.0,0.0,0.0,2.8298,2.9097,2.9827,0.0,3.0238,0.0,2.9628,3.0011,2.995,2.9066,2.7194,2.5954,2.573,2.5342,2.4921,2.4381,2.4117,2.3715,2.3108,2.3108,2.3108,2.3108,2.3108,2.3108,2.3108,2.3108,2.3108,2.3108,2.3108,2.3108,2.3108,2.3108,2.3108,2.3108,2.3108,2.3108,2.3108,2.3108,2.3108,2.3108,2.3108,2.2895,2.2594,2.2309,2.2046,2.1845,2.1845,2.1681,2.1493,2.1493,2.1493,2.1446,2.1131,2.1056,2.0918,2.0339,2.0175,2.0112,1.9861,1.9798,1.9798,1.9798,1.9798,1.9798,1.9798,1.9798,1.9798,1.9798,1.8912,1.7934,1.709,1.634,1.5892,1.5892,1.5584,1.541,1.541,1.541,1.541,1.541,1.541,1.541,1.541,1.541,1.541,1.541,1.541,1.541,1.541,1.541,1.541,1.541,1.541,1.5167,2.8297,2.858,2.8955,3.0056,2.9155,2.8105,2.8688,2.7604,2.6499,2.6499,0.0,2.6499,2.6499,2.6589,2.6624,2.6521,0.0,2.8266,2.8907,2.9192,2.9827,3.119,3.0807,3.0419,3.0299,3.0389,3.0133,2.938,2.8524,2.774,2.7042,2.6197,2.5473,2.4913,2.4393,2.3828,2.3233,2.3221,2.3183,2.3108,2.3108,2.3108,2.3108,2.3108,2.3108,2.3108,2.3108,2.3108,2.3108,2.3108,2.3108,2.3108,2.3108,2.3108,2.3108,2.3108,2.3108,2.3108,2.3108,2.3108,2.3108,2.3108,2.2782,2.2422,2.2422,2.2083,2.1707,2.1707,2.1707,2.1694,2.1619,2.1594,2.1455,2.093,2.0805,2.0641,2.0037,1.9861,1.9798,1.9798,1.9798,1.9798,1.9798,1.9798,1.9773,1.9669,1.8581,1.7715,1.7605,1.6866,1.634,1.634,1.5864,1.5497,1.541,1.5497,1.5497,1.541,1.541,1.541,1.541,1.541,1.541,1.541,1.541,1.541,1.541,1.541,1.541,1.541,1.541,1.541,2.765,2.842,2.9233,2.945,2.8619,2.7768,2.7894,2.7196,0.0,0.0,2.6499,2.6499,2.6499,2.704,2.7263,2.6624,2.8363,2.9659,2.9097,3.0208,3.0925,0.0,3.097,3.1029,3.0359,3.0896,0.0,3.1087,3.0299,2.9181,2.7657,2.6798,2.6084,2.5473,2.4958,2.4406,2.3853,2.3853,2.3572,2.3108,2.3108,2.3108,2.3108,2.3108,2.3108,2.3108,2.3108,2.3108,2.3108,2.3108,2.3108,2.3108,2.3108,2.3108,2.3108,2.3108,2.3108,2.3108,2.3108,2.3108,2.3108,2.3108,2.3045,2.2957,2.2957,2.2895,2.2819,2.2819,2.2819,2.2719,2.2284,2.2171,2.2033,2.1481,2.1343,2.1219,2.0666,2.0137,1.9798,1.9798,1.9798,1.9798,1.9798,1.9798,1.9579,1.898,1.8661,1.8286,1.7688,1.6415,1.5584,1.5584,1.6036,1.6065,1.5439,1.595,1.6036,1.5439,1.541,1.541,1.541,1.541,1.541,1.541,1.541,1.541,1.541,1.541,1.541,1.541,1.541,1.541,2.7595,2.8171,2.8691,2.9045,2.8416,2.7703,2.7703,0.0,0.0,0.0,2.6499,2.6499,2.6499,2.6816,0.0,2.7129,2.8524,2.9628,2.9659,3.0748,3.1351,3.097,3.1278,3.1351,3.097,3.1278,3.1511,3.1511,3.0748,2.9735,2.846,2.7196,2.6426,2.6291,2.5577,2.4971,2.4431,2.4431,2.4142,2.359,2.359,2.3396,2.3108,2.3108,2.3108,2.3108,2.3108,2.3108,2.3108,2.3108,2.3108,2.3108,2.3108,2.3108,2.3108,2.3108,2.3108,2.3108,2.3108,2.3108,2.3108,2.3108,2.3108,2.3108,2.3108,2.3108,2.3108,2.3108,2.3108,2.3045,2.2782,2.2706,2.2569,2.2046,2.1694,2.1446,2.1182,2.0878,2.0589,2.0313,2.0277,2.0189,1.9849,1.9798,1.9553,1.8821,1.8367,1.7841,1.7118,1.6083,1.5555,1.5921,1.595,1.5777,1.5439,1.5719,1.5777,1.541,1.541,1.541,1.541,1.541,1.541,1.541,1.541,1.541,1.541,1.541,1.541,1.541,1.541,1.541,2.7506,2.7861,2.8066,2.8593,2.8084,2.7451,2.7451,2.6939,0.0,0.0,2.6499,2.6499,2.6499,0.0,2.6905,0.0,2.8492,2.9442,2.995,3.0866,3.1511,0.0,3.1511,0.0,3.1511,3.1511,0.0,3.1511,3.0748,2.9919,2.9066,2.7571,2.6868,2.7063,2.6228,2.5523,2.4996,2.4983,2.4707,2.4167,2.4167,2.391,2.3459,2.3346,2.3283,2.3283,2.3158,2.3108,2.3108,2.3108,2.3108,2.3108,2.3108,2.3108,2.3108,2.3108,2.3108,2.3108,2.3108,2.3108,2.3108,2.3108,2.3108,2.3108,2.3108,2.3108,2.3108,2.3108,2.3108,2.3108,2.3108,2.3108,2.2995,2.2556,2.2071,2.1656,2.1656,2.1568,2.1383,2.0955,2.0867,2.0679,2.0087,1.9987,1.9702,1.8845,1.807,1.733,1.6595,1.5864,1.5613,1.6208,1.5892,1.5584,1.541,1.5555,1.5584,1.541,1.541,1.541,1.541,1.541,1.541,1.541,1.541,1.541,1.541,1.541,1.541,1.541,1.541,1.541,2.6966,2.7345,2.7736,2.7808,2.7196,2.6624,2.6624,0.0,0.0,2.6499,2.6499,2.6499,2.6499,0.0,0.0,0.0,0.0,2.9919,2.9223,3.0494,3.1511,3.1511,0.0,0.0,3.1511,3.1511,3.1511,3.1511,3.0748,2.9919,2.9066,2.8117,2.7611,2.7624,2.6828,2.6135,2.5523,2.5523,2.5259,2.4713,2.4713,2.4687,2.4625,2.4155,2.3916,2.3891,2.3333,2.3108,2.3108,2.3108,2.3108,2.3108,2.3108,2.3108,2.3108,2.3108,2.3108,2.3108,2.3108,2.3108,2.3108,2.3108,2.3108,2.3108,2.3108,2.3108,2.3108,2.3108,2.3108,2.3108,2.3108,2.3108,2.3095,2.3045,2.2606,2.2234,2.2234,2.1845,2.1509,2.1458,2.1446,2.1242,2.0704,2.0616,2.0176,1.8893,1.807,1.733,1.6595,1.5864,1.5439,1.5497,1.6036,1.6122,1.5468,1.6007,1.6122,1.5439,1.541,1.541,1.541,1.541,1.541,1.541,1.541,1.541,1.541,1.541,1.541,1.541,1.541,1.541,2.657,2.6806,2.6973,2.6973,2.6748,2.6499,2.6499,0.0,2.6499,2.6499,2.6499,2.6499,2.6499,0.0,0.0,0.0,0.0,0.0,3.0419,3.1087,3.1511,3.1511,3.1511,0.0,0.0,0.0,3.1511,3.1511,3.119,3.0866,3.0524,2.9223,2.8716,2.9254,2.7953,2.7113,2.688,2.6371,2.5837,2.5285,2.5285,2.5121,2.4775,2.4594,2.4494,2.4456,2.3904,2.3653,2.3597,2.3246,2.3108,2.3108,2.3108,2.3108,2.3108,2.3108,2.3108,2.3108,2.3108,2.3108,2.3108,2.3108,2.3108,2.3108,2.3108,2.3108,2.3108,2.3108,2.3108,2.3108,2.3108,2.3108,2.3108,2.3108,2.2945,2.2782,2.2782,2.2606,2.2385,2.2046,2.1983,2.1807,2.1282,2.1182,2.0735,1.9449,1.8624,1.7727,1.6637,1.5864,1.541,1.541,1.5661,1.5729,1.541,1.5671,1.5719,1.541,1.541,1.541,1.541,1.541,1.541,1.541,1.541,1.541,1.541,1.541,1.541,1.541,1.541,1.541,2.6386,2.6499,2.6499,2.6499,2.6499,2.6499,0.0,0.0,0.0,2.6499,2.6499,2.6499,2.6499,0.0,0.0,0.0,0.0,2.9797,3.097,3.1351,3.1511,3.1511,0.0,3.1511,3.1511,3.1511,3.1511,3.1511,3.1278,3.1161,3.1161,2.9797,2.9286,2.9889,2.846,2.7571,2.7351,2.6782,2.6285,2.585,2.585,2.5661,2.531,2.5134,2.5059,2.5021,2.4481,2.4243,2.4205,2.3772,2.3509,2.3358,2.3358,2.3258,2.3108,2.3108,2.3108,2.3108,2.3108,2.3108,2.3108,2.3108,2.3108,2.3108,2.3108,2.3108,2.3108,2.3108,2.3108,2.3108,2.3108,2.3108,2.3108,2.3108,2.3108,2.3108,2.3108,2.3108,2.2995,2.2606,2.2531,2.2385,2.1832,2.1732,2.1375,2.032,1.9406,1.8414,1.7237,1.628,1.5642,1.541,1.541,1.541,1.541,1.541,1.541,1.541,1.541,1.541,1.541,1.541,1.541,1.541,1.541,1.541,1.541,1.541,1.541,1.541,1.541,1.541,2.6499,2.6499,2.6499,2.6499,2.6499,2.6499,0.0,0.0,0.0,2.6499,2.6499,2.6499,2.6499,0.0,0.0,0.0,0.0,0.0,3.0299,3.0999,3.1511,0.0,0.0,3.1511,3.1511,3.1511,3.1511,3.1511,3.0777,3.0299,3.0299,2.9473,2.9002,2.9002,2.8149,2.7317,2.6521,2.6499,2.6499,2.6487,2.6487,2.6487,2.6461,2.585,2.5586,2.5561,2.5034,2.4775,2.4775,2.4775,2.4481,2.3991,2.3991,2.364,2.3108,2.3108,2.3108,2.3108,2.3108,2.3108,2.3108,2.3108,2.3108,2.3108,2.3108,2.3108,2.3108,2.3108,2.3108,2.3108,2.3108,2.3108,2.3108,2.3108,2.3108,2.3108,2.3108,2.3108,2.3108,2.3095,2.3095,2.292,2.2368,2.2297,2.2121,2.1568,2.0412,1.9328,1.8555,1.7309,1.6208,1.5468,1.541,1.541,1.541,1.541,1.541,1.541,1.541,1.541,1.541,1.541,1.541,1.541,1.541,1.541,1.541,1.541,1.541,1.541,1.541,1.541,2.6499,2.6499,2.6499,2.6499,2.6499,2.6499,2.6499,0.0,0.0,2.6499,2.6499,2.6499,2.6499,0.0,0.0,0.0,0.0,0.0,0.0,0.0,0.0,3.1511,3.1511,3.1511,3.1511,3.1511,3.1511,3.1511,3.1248,3.0866,3.0329,3.0042,2.9628,2.9034,2.8149,2.7571,2.7317,2.6782,2.6499,2.6499,2.6499,2.6499,2.6487,2.6298,2.6223,2.6185,2.5598,2.536,2.5322,2.4938,2.4687,2.4556,2.4556,2.4412,2.4261,2.4261,2.4023,2.3728,2.3728,2.3434,2.3108,2.3108,2.3108,2.3108,2.3108,2.3108,2.3108,2.3108,2.3108,2.3108,2.3108,2.3108,2.3108,2.3108,2.3108,2.3108,2.3108,2.3108,2.3108,2.3108,2.3108,2.3045,2.2882,2.2844,2.2656,2.2133,2.1267,2.0258,1.905,1.8105,1.7203,1.637,1.6035,1.5732,1.5439,1.541,1.541,1.541,1.541,1.541,1.541,1.541,1.541,1.541,1.541,1.541,1.541,1.541,1.541,1.541,1.541,1.541,0.0,2.6499,2.6499,2.6499,2.6499,0.0,0.0,0.0,0.0,0.0,0.0,0.0,0.0,0.0,0.0,0.0,0.0,0.0,0.0,0.0,0.0,3.1511,3.1511,0.0,3.1511,3.1511,3.1511,3.1511,3.1219,3.0837,3.0329,2.9659,2.9066,2.8524,2.7986,2.7537,2.7263,2.6748,2.6499,2.6499,2.6499,2.6499,2.6499,2.6499,2.6499,2.6474,2.6109,2.5925,0.0,2.5573,2.531,2.5109,2.5109,2.4996,2.4788,2.4788,2.4575,2.428,2.4067,2.3766,2.3396,2.317,2.3108,2.3108,2.3108,2.3108,2.3108,2.3108,2.3108,2.3108,2.3108,2.3108,2.3108,2.3108,2.3108,2.3108,2.3108,2.3108,2.3108,2.3108,2.2854,2.2641,2.2641,2.2372,2.2036,2.1711,2.1079,2.0228,1.9061,1.8326,1.7595,1.6792,1.6484,1.6211,1.5907,1.5605,1.541,1.541,1.541,1.541,1.541,1.541,1.541,1.541,1.541,1.541,1.541,1.541,1.541,1.541,1.541,1.541,0.0,0.0,0.0,0.0,0.0,0.0,0.0,0.0,0.0,0.0,0.0,0.0,0.0,0.0,0.0,0.0,0.0,0.0,0.0,3.1511,0.0,0.0,3.1511,3.1511,3.1511,3.1511,3.1511,3.1511,3.0748,3.0269,3.0208,2.862,2.767,2.7604,2.7604,2.7263,2.6499,2.6499,2.6499,2.6499,2.6499,2.6499,2.6499,2.6499,2.6499,2.6499,2.6499,2.6499,2.6499,2.6499,2.6172,2.5649,2.5649,2.536,2.4913,2.4913,2.4876,2.4808,2.4293,2.4067,2.3904,2.3235,2.2975,2.2914,2.2914,2.3017,2.3108,2.3108,2.3108,2.3108,2.3108,2.3108,2.3108,2.3108,2.3108,2.3108,2.3108,2.3108,2.3108,2.3108,2.2445,2.1908,2.1908,2.1175,2.059,2.059,2.0124,1.948,1.8744,1.8218,1.7626,1.688,1.6765,1.6746,1.6746,1.5966,1.5508,1.5508,1.5478,1.5459,1.5459,1.543,1.541,1.541,1.541,1.541,1.541,1.541,1.541,1.541,1.541,1.541,0.0,0.0,0.0,0.0,0.0,0.0,0.0,0.0,0.0,0.0,0.0,0.0,0.0,0.0,0.0,0.0,0.0,3.1511,3.1511,3.1511,0.0,3.1511,3.1511,3.1511,3.1511,3.1511,3.1511,3.1511,3.0748,3.0011,2.9348,2.8266,2.7417,2.6816,2.6782,2.6679,2.6499,2.6499,2.6499,2.6499,2.6499,2.6499,2.6499,2.6499,2.6499,2.6499,2.6499,2.6499,2.6499,2.6499,2.6411,2.6285,2.6285,2.6223,2.6109,2.6109,2.5799,2.5398,2.5272,2.4682,2.381,2.2566,2.1741,2.1195,2.1195,2.2082,2.3108,2.3108,2.3108,2.3108,2.3108,2.3108,2.3108,2.3108,2.3108,2.3108,2.3108,2.3108,2.3108,2.3108,2.2445,2.1908,2.1908,2.1175,2.059,2.059,2.049,2.0092,1.9229,1.9047,1.8625,1.7772,1.7422,1.7227,1.7227,1.6728,1.6395,1.6395,1.6103,1.5938,1.5938,1.5586,1.541,1.541,1.541,1.541,1.541,1.541,1.541,1.541,1.541,1.541,0.0,0.0,0.0,0.0,0.0,0.0,0.0,0.0,0.0,0.0,0.0,0.0,0.0,0.0,0.0,0.0,3.0103,0.0,0.0,0.0,3.1511,3.1511,3.1511,3.1511,3.1511,3.1511,3.1351,3.097,3.0554,2.9919,2.9066,2.8182,2.7517,2.7074,2.6679,2.6499,2.6499,2.6499,2.6499,2.6499,2.6499,2.6499,2.6499,2.6499,2.6499,2.6499,2.6499,2.6499,2.6499,2.6499,2.6499,2.6499,2.6499,2.6499,2.6499,2.6499,2.6298,2.5984,2.5686,2.4656,2.3276,2.2519,2.1519,2.0655,2.108,2.1542,2.1959,2.1959,2.1959,2.1959,2.1959,2.2249,2.2445,2.2051,2.2249,2.2445,2.2021,2.1959,2.1959,2.1959,2.129,2.0719,2.0719,1.9977,1.9398,1.9398,1.9398,1.9233,1.8754,1.8687,1.8529,1.8042,1.7803,1.7666,1.7666,1.7451,1.7116,1.6726,1.6504,1.6367,1.6367,1.6143,1.5918,1.5713,1.5508,1.541,1.541,1.541,1.541,1.541,1.541,1.541,0.0,0.0,0.0,0.0,0.0,0.0,0.0,0.0,0.0,0.0,0.0,0.0,0.0,2.7263,0.0,0.0,0.0,0.0,3.1409,3.1511,3.1511,3.1511,3.1511,3.1511,3.1511,3.1511,3.1161,3.0359,3.0178,2.9721,2.8844,2.7986,2.7517,2.7517,2.685,2.6499,2.6499,2.6499,2.6499,2.6499,2.6499,2.6499,2.6499,2.6499,2.6499,2.6499,2.6499,2.6499,2.6499,2.6499,2.6499,2.6499,2.6499,2.6499,2.6499,2.6499,2.6499,2.6411,2.5799,2.4435,2.2909,2.2663,2.1719,2.075,2.133,2.092,2.0281,2.0281,2.0453,2.059,2.059,2.1144,2.1534,2.0782,2.1164,2.1491,2.0751,2.059,2.059,2.059,1.989,1.9299,1.9299,1.8596,1.8008,1.8008,1.8008,1.8008,1.8008,1.8008,1.8008,1.8008,1.8008,1.8008,1.8008,1.8008,1.7672,1.6941,1.6833,1.6775,1.6697,1.6697,1.6553,1.6202,1.5732,1.5508,1.5508,1.5439,1.541,1.541,1.541,1.541,2.6452,2.6499,2.6499,0.0,0.0,0.0,0.0,0.0,0.0,0.0,0.0,0.0,0.0,2.7769,2.8844,0.0,0.0,3.1351,0.0,0.0,3.1511,3.1511,3.1511,3.1511,3.1511,3.1511,3.1161,3.0359,2.9628,2.8812,2.7953,2.7129,2.6692,2.6692,2.6555,2.6499,2.6499,2.6499,2.6499,2.6499,2.6499,2.6499,2.6499,2.6499,2.6499,2.6499,2.6499,2.6499,2.6499,2.6499,2.6499,2.6499,2.6499,2.6499,2.6499,2.6499,2.6499,2.6411,2.5799,2.4915,2.3829,2.2536,2.1513,2.0649,1.992,1.9339,1.8899,1.8899,1.9727,2.059,2.059,2.0687,2.0751,2.0623,2.0687,2.0751,2.0623,2.059,2.059,2.059,1.989,1.9299,1.9299,1.8596,1.8008,1.8008,1.8008,1.8008,1.8008,1.8008,1.8008,1.8008,1.8008,1.8008,1.8008,1.8008,1.7949,1.7822,1.748,1.7119,1.6716,1.6697,1.6668,1.6599,1.6191,1.5987,1.5987,1.5586,1.541,1.541,1.541,1.541,2.6499,2.6499,2.6499,0.0,0.0,0.0,0.0,0.0,0.0,0.0,0.0,0.0,0.0,0.0,2.862,2.9535,0.0,3.1511,3.1511,3.1511,3.1511,3.1511,3.1511,3.1511,3.1511,3.1511,3.1161,3.0359,2.9473,2.862,2.7769,2.6939,2.6499,2.6499,2.6499,2.6499,2.6499,2.6499,2.6499,2.6499,2.6499,2.6499,2.6499,2.6499,2.6499,2.6499,2.6499,2.6499,2.6499,2.6499,2.6499,2.6499,2.6499,2.6499,2.6499,2.6499,2.6499,2.6461,2.6185,2.5317,2.4171,2.3477,2.2121,2.079,2.0779,1.9936,1.9092,1.9535,1.9445,1.921,1.921,1.9529,1.9792,1.9309,1.9562,1.9759,1.9299,1.921,1.921,1.921,1.8888,1.8596,1.8596,1.8269,1.8008,1.8008,1.8008,1.8008,1.8008,1.8008,1.8008,1.8008,1.8008,1.8008,1.8008,1.8008,1.8008,1.8008,1.7832,1.7627,1.7399,1.7207,1.708,1.708,1.665,1.6339,1.6095,1.5889,1.5644,1.541,1.541,1.541,2.643,2.6499,2.6499,2.6499,0.0,0.0,0.0,0.0,0.0,0.0,0.0,0.0,0.0,2.8019,0.0,3.0329,3.1087,3.1511,3.1511,3.1511,3.1511,3.1511,3.1511,3.1511,3.1511,3.1511,3.1087,3.0072,2.938,2.8524,2.7484,2.685,2.6499,2.6499,2.6499,2.6499,2.6499,2.6499,2.6499,2.6499,2.6499,2.6499,2.6499,2.6499,2.6499,2.6499,2.6499,2.6499,2.6499,2.6499,2.6499,2.6499,2.6499,2.6499,2.6452,2.6245,2.6129,2.6129,2.5873,2.5069,2.4073,2.3851,2.2544,2.1142,2.1549,2.0627,1.957,2.0241,1.9399,1.8311,1.8311,1.8727,1.8974,1.8291,1.8566,1.8821,1.8134,1.8008,1.8008,1.8008,1.8008,1.8008,1.8008,1.8008,1.8008,1.8008,1.8008,1.8008,1.8008,1.8008,1.8008,1.8008,1.8008,1.8008,1.8008,1.8008,1.8008,1.8008,1.8008,1.8008,1.8008,1.7705,1.7529,1.7529,1.7109,1.6709,1.6398,1.63,1.6026,1.5566,1.5566,1.5508,2.6245,2.6499,2.6499,2.6499,2.6499,0.0,2.6499,2.6499,0.0,2.6499,0.0,0.0,0.0,2.9034,3.0389,3.1278,3.1467,3.1511,3.1511,3.1511,3.1511,3.1511,3.1511,3.1511,3.1511,3.1511,3.0837,2.9223,2.9034,2.8298,2.6692,2.6521,2.6499,2.6499,2.6499,2.6499,2.6499,2.6499,2.6499,2.6499,2.6499,2.6499,2.6499,2.6499,2.6499,2.6499,2.6499,2.6499,2.6499,2.6499,2.6499,2.6499,2.6499,2.6499,2.6383,2.5441,2.5123,2.4969,2.4036,2.3638,2.3385,2.2462,2.2066,2.1755,2.0949,2.03,1.9863,1.9938,1.9578,1.9199,1.9199,1.8932,1.8619,1.8559,1.8326,1.8076,1.8008,1.8008,1.8008,1.8008,1.8008,1.8008,1.8008,1.8008,1.8008,1.8008,1.8008,1.8008,1.8008,1.8008,1.8008,1.8008,1.8008,1.8008,1.8008,1.8008,1.8008,1.8008,1.8008,1.8008,1.8008,1.7978,1.7969,1.7969,1.7549,1.7357,1.7318,1.6885,1.6455,1.6046,1.6046,1.5831,2.6245,2.6499,2.6499,2.6499,2.6499,0.0,0.0,2.6499,2.6658,2.7129,2.685,0.0,0.0,0.0,3.1161,3.1438,3.1511,3.1511,3.1511,3.1511,3.1511,3.1511,3.1511,3.1511,3.1511,3.1511,3.1029,2.9889,2.9317,2.8492,2.7317,2.6782,2.6499,2.6499,2.6499,2.6499,2.6499,2.6499,2.6499,2.6499,2.6499,2.6499,2.6499,2.6499,2.6499,2.6499,2.6499,2.6499,2.6499,2.6499,2.6499,2.6499,2.6499,2.6499,2.6452,2.606,2.5558,2.4933,2.4564,2.4036,2.3441,2.3073,2.2515,2.1924,2.1593,2.0919,2.0361,2.0361,2.0243,1.9999,1.9424,1.916,1.9043,1.9043,1.8916,1.8809,1.8809,1.8809,1.8809,1.8809,1.8809,1.8809,1.8809,1.8809,1.8809,1.8809,1.8809,1.8809,1.8809,1.8564,1.8364,1.8364,1.8164,1.8008,1.8008,1.8008,1.8008,1.8008,1.8008,1.8008,1.8008,1.8008,1.8008,1.8008,1.7852,1.7646,1.7383,1.7217,1.6914,1.6484,1.6484,1.6396,2.6179,2.6499,2.6499,0.0,0.0,0.0,2.6499,2.6499,2.6658,2.7196,2.7284,2.7637,2.878,0.0,0.0,3.1511,3.1511,3.1511,3.1511,3.1511,3.1511,3.1511,3.1511,3.1511,3.1511,3.1511,3.1161,3.0359,2.9473,2.862,2.7769,2.6939,2.6499,2.6499,2.6499,2.6499,2.6499,2.6499,2.6499,2.6499,2.6499,2.6499,2.6499,2.6499,2.6499,2.6499,2.6499,2.6499,2.6499,2.6499,2.6499,2.6499,2.6499,2.6314,2.599,2.5687,2.4921,2.4,2.3708,2.3158,2.2601,2.2601,2.2113,2.1555,2.1555,2.1116,2.0605,2.0605,2.0605,2.0468,1.9881,1.959,1.9482,1.9482,1.9385,1.9287,1.9287,1.9287,1.9287,1.9287,1.9287,1.9287,1.9287,1.9287,1.9287,1.9287,1.9287,1.9287,1.9287,1.9023,1.8812,1.8812,1.8432,1.8178,1.8178,1.8086,1.8008,1.8008,1.8008,1.8008,1.8008,1.8008,1.8008,1.8008,1.8008,1.7871,1.7578,1.7578,1.7363,1.6911,1.6911,1.6833,2.6056,2.6499,2.6499,0.0,0.0,0.0,2.6499,2.6499,2.6499,2.6499,2.7855,2.9002,2.9002,3.0389,0.0,3.1511,3.1511,3.1511,3.1511,3.1511,3.1511,3.1511,3.1525,3.1525,3.1525,3.1525,3.1176,3.0388,2.9518,2.8634,2.7749,2.6952,2.6512,2.6512,2.6499,2.6499,2.6499,2.6499,2.6499,2.6499,2.6499,2.6499,2.6499,2.6499,2.6499,2.6499,2.6499,2.6499,2.6499,2.6499,2.6499,2.6499,2.6499,2.5886,2.4898,2.3854,2.285,2.1886,2.0934,2.0605,2.0605,2.0605,2.0605,2.0605,2.0605,2.0605,2.0605,2.0605,2.0605,2.0605,2.0605,2.0244,1.9922,1.9922,1.96,1.9297,1.9297,1.9297,1.9297,1.9297,1.9297,1.9297,1.9297,1.9297,1.9297,1.9297,1.9297,1.9297,1.9297,1.9297,1.9287,1.9287,1.8861,1.8607,1.8607,1.8227,1.8018,1.8018,1.8018,1.8018,1.8008,1.8008,1.8008,1.8008,1.8008,1.8008,1.8008,1.8008,1.7793,1.7425,1.7425,1.7158,2.5539,2.6191,0.0,2.6499,0.0,0.0,0.0,2.6499,0.0,0.0,2.8716,2.9919,2.9919,3.0777,0.0,3.1511,3.1511,3.1511,3.1511,3.1899,3.2183,3.2183,3.2632,3.2916,3.2916,3.2916,3.2553,3.1688,3.0797,2.9874,2.9006,2.8116,2.762,2.762,2.7278,2.7065,2.7065,2.6688,2.6499,2.6499,2.6499,2.6499,2.6499,2.6499,2.6499,2.6499,2.6499,2.6499,2.6499,2.6499,2.6499,2.6418,2.5734,2.5264,2.4898,2.3854,2.285,2.1952,2.1669,2.1155,2.0605,2.0605,2.0605,2.0605,2.0605,2.0605,2.0605,2.0605,2.0605,2.0605,2.0605,2.0507,2.041,2.041,2.0312,2.0224,2.0224,2.0224,2.0224,2.0224,2.0224,2.0224,2.0224,2.0224,2.0224,2.0224,2.0224,2.0116,1.9766,1.9727,1.9619,1.9316,1.917,1.9092,1.9092,1.8975,1.8779,1.8432,1.8412,1.8286,1.8018,1.8008,1.8008,1.8008,1.8008,1.8008,1.8008,1.8008,1.7949,1.7822,1.7822,1.7754,2.5466,2.6212,0.0,2.6549,2.6499,2.6589,2.6905,0.0,0.0,0.0,2.9317,3.0299,3.0299,3.097,3.1511,3.1511,3.1511,3.1585,3.1854,3.2243,3.2617,3.2871,3.3245,3.3499,3.3499,3.3499,3.3285,3.2757,3.1542,3.0562,3.0029,2.8818,2.8109,2.8109,2.7783,2.7607,2.7607,2.7102,2.6826,2.6813,2.66,2.6499,2.6499,2.6499,2.6499,2.6499,2.6499,2.6499,2.6499,2.6499,2.6499,2.6452,2.5838,2.5111,2.4337,2.3708,2.2627,2.1441,2.1441,2.1078,2.0605,2.0605,2.0605,2.0605,2.0605,2.0605,2.0605,2.0605,2.0605,2.0605,2.0605,2.0605,2.0605,2.0605,2.0605,2.0605,2.0605,2.0605,2.0605,2.0605,2.0605,2.0605,2.0605,2.0605,2.0605,2.0605,2.0605,2.0507,2.0205,2.0176,2.0078,1.9862,1.9639,1.9541,1.9541,1.9385,1.918,1.8916,1.8695,1.849,1.8237,1.8061,1.8008,1.8008,1.8008,1.8008,1.8008,1.8008,1.8008,1.8008,1.8008,1.8008,2.5596,2.6445,0.0,2.6688,2.6537,0.0,2.7604,2.7835,2.8084,2.8939,0.0,3.0329,3.0389,3.0999,3.1511,3.1511,3.1555,3.1795,3.2392,3.2617,3.2916,3.3514,3.3649,3.3679,3.3679,3.3679,3.3679,3.3679,3.1974,3.0963,3.0963,2.9246,2.826,2.826,2.821,2.8185,2.8185,2.7632,2.7331,2.7268,2.6813,2.6549,2.6499,2.6499,2.6499,2.6499,2.6499,2.6499,2.6499,2.6499,2.6499,2.6499,2.6383,2.5205,2.3478,2.3404,2.2188,2.0605,2.0605,2.0605,2.0605,2.0605,2.0605,2.0605,2.0605,2.0605,2.0605,2.0605,2.0605,2.0605,2.0605,2.0605,2.0605,2.0605,2.0605,2.0605,2.0605,2.0605,2.0605,2.0605,2.0605,2.0605,2.0605,2.0605,2.0605,2.0605,2.0605,2.0605,2.0605,2.0605,2.0605,2.0605,2.0215,1.9971,1.9971,1.9629,1.9385,1.9346,1.8939,1.8695,1.8666,1.8252,1.8008,1.8008,1.8008,1.8008,1.8008,1.8008,1.8008,1.8008,1.8008,1.8008,2.5611,2.6421,0.0,0.0,2.6813,2.6871,2.8363,2.8716,2.8971,2.9858,3.0178,3.0494,3.1117,3.138,3.1511,3.1511,3.1929,3.2333,3.2497,3.341,3.4098,3.4279,3.4741,3.507,3.507,3.507,3.507,3.507,3.3286,3.2206,3.2206,3.0444,2.9428,2.9428,2.8988,2.8712,2.8712,2.821,2.7708,2.7281,2.719,2.6914,2.6499,2.6499,2.6499,2.6499,2.6499,2.6499,2.6499,2.6499,2.6499,2.6418,2.5629,2.4588,2.3404,2.2627,2.1593,2.0605,2.0605,2.0605,2.0605,2.0605,2.0605,2.0605,2.0605,2.0605,2.0605,2.0605,2.0605,2.0605,2.0605,2.0605,2.0605,2.0605,2.0605,2.0605,2.0605,2.0605,2.0605,2.0605,2.0605,2.0605,2.0605,2.0605,2.0605,2.0605,2.0605,2.0605,2.0605,2.0605,2.0605,2.0605,2.0517,2.0458,2.0458,2.038,2.0146,1.9805,1.9687,1.9492,1.916,1.8418,1.8008,1.8008,1.8008,1.8008,1.8008,1.8008,1.8008,1.8008,1.8008,1.8008,2.5536,0.0,0.0,2.7299,0.0,2.685,2.8084,2.8363,2.8748,3.0042,3.0614,3.0999,3.1409,3.1511,3.1511,3.1511,3.2049,3.2617,3.2946,3.3844,3.4638,3.4936,3.5295,3.5504,3.5504,3.5504,3.5504,3.5504,3.4109,3.3066,3.2629,3.1267,3.0279,2.983,2.9503,2.934,2.934,2.8787,2.8348,2.8059,2.7808,2.7394,2.6876,2.6612,2.6499,2.6499,2.6499,2.6499,2.6499,2.6499,2.6499,2.6465,2.5908,2.5099,2.4145,2.3624,2.2526,2.126,2.126,2.0972,2.0605,2.0605,2.0605,2.0605,2.0605,2.0605,2.0605,2.0605,2.0605,2.0605,2.0605,2.0605,2.0605,2.0605,2.0605,2.0605,2.0605,2.0605,2.0605,2.0605,2.0605,2.0605,2.0605,2.0605,2.0605,2.0605,2.0605,2.0605,2.0605,2.0605,2.0605,2.0605,2.0605,2.0605,2.0605,2.0605,2.0507,2.0244,2.0029,1.9814,1.96,1.8965,1.8525,1.8276,1.8115,1.8008,1.8008,1.8008,1.8008,1.8008,1.8008,1.8008,2.5336,0.0,2.7304,2.7293,2.6977,0.0,2.753,2.7703,2.8149,2.9766,3.0718,3.1351,3.1467,3.1511,3.1511,3.1511,3.2153,3.2871,3.3425,3.4158,3.4861,3.5429,3.5504,3.5504,3.5504,3.5504,3.5504,3.5504,3.4442,3.3415,3.2629,3.1573,3.0582,2.983,2.9792,2.9792,2.9792,2.9315,2.8988,2.8888,2.8373,2.7871,2.7406,2.6989,2.6675,2.6499,2.6499,2.6499,2.6499,2.6499,2.6499,2.6487,2.6314,2.5616,2.4707,2.4564,2.3441,2.2,2.1811,2.1375,2.0828,2.0634,2.0605,2.0605,2.0605,2.0605,2.0605,2.0605,2.0605,2.0605,2.0605,2.0605,2.0605,2.0605,2.0605,2.0605,2.0605,2.0605,2.0605,2.0605,2.0605,2.0605,2.0605,2.0605,2.0605,2.0605,2.0605,2.0605,2.0605,2.0605,2.0605,2.0605,2.0605,2.0605,2.0605,2.0605,2.0605,2.0605,2.0225,2.0029,2.0029,1.9619,1.9228,1.8831,1.8334,1.8086,1.8008,1.8008,1.8008,1.8008,1.8008,1.8008,0.0,0.0,2.7304,0.0,2.7266,2.7275,0.0,0.0,2.7986,0.0,2.9858,3.0673,3.138,3.1511,3.1511,3.1511,3.2557,3.3395,3.3484,3.4577,3.54,3.5489,3.5504,3.5504,3.5504,3.5504,3.5504,3.5504,3.3822,3.2749,3.2593,3.0959,2.9934,2.9792,2.9792,2.9792,2.9792,2.9716,2.9428,2.8888,2.8373,2.8059,2.7996,2.7921,2.7369,2.6499,2.6499,2.6499,2.6499,2.6499,2.6499,2.6418,2.5546,2.46,2.3588,2.2739,2.2215,2.1876,2.1078,2.1221,2.1669,2.0857,2.0605,2.0605,2.0605,2.0605,2.0605,2.0605,2.0605,2.0605,2.0605,2.0605,2.0605,2.0605,2.0605,2.0605,2.0605,2.0605,2.0605,2.0605,2.0605,2.0605,2.0605,2.0605,2.0605,2.0605,2.0605,2.0605,2.0605,2.0605,2.0605,2.0605,2.0605,2.0605,2.0605,2.0605,2.0605,2.0605,2.0546,2.0517,2.0517,2.0059,1.9805,1.9746,1.8919,1.8344,1.8008,1.8008,1.8008,1.8008,1.8008,1.8008,2.4628,2.6039,2.7281,0.0,2.7309,2.7311,2.7464,2.7225,2.7263,2.8117,2.8588,2.9254,3.0584,3.0837,3.097,3.1438,3.2647,3.3499,3.3499,3.4651,3.5504,3.5504,3.5504,3.5504,3.5504,3.5504,3.5279,3.4691,3.3856,3.2925,3.1852,3.1007,3.0343,2.983,2.9792,2.9792,2.9792,2.9792,2.9666,2.9402,2.8837,2.8561,2.8561,2.8247,2.767,2.6952,2.6952,2.6788,2.6499,2.6499,2.6499,2.6383,2.5406,2.4743,2.4228,2.322,2.2478,2.1952,2.1517,2.1298,2.1155,2.075,2.0605,2.0605,2.0605,2.0605,2.0605,2.0605,2.0605,2.0605,2.0605,2.0605,2.0605,2.0605,2.0605,2.0605,2.0605,2.0605,2.0605,2.0605,2.0605,2.0605,2.0605,2.0605,2.0605,2.0605,2.0605,2.0605,2.0605,2.0605,2.0605,2.0605,2.0605,2.0605,2.0605,2.0605,2.0605,2.0605,2.0605,2.0605,2.0605,2.0381,2.0166,1.9922,1.9316,1.8916,1.8721,1.8442,1.8325,1.8325,1.8081,1.8008,0.0,0.0,2.6785,2.7179,2.7319,2.7356,0.0,0.0,2.686,0.0,2.7488,2.7855,2.9348,3.0011,3.0538,3.1294,3.2571,3.3559,3.3724,3.4756,3.5504,3.5504,3.5504,3.5504,3.5504,3.5279,3.4806,3.4061,3.3567,3.2664,3.1278,3.097,3.052,2.983,2.9792,2.9792,2.9792,2.9792,2.9792,2.9779,2.9352,2.9151,2.9139,2.8725,2.8222,2.7695,2.7557,2.7291,2.6914,2.6914,2.6914,2.6809,2.5804,2.5252,2.4865,2.3761,2.2848,2.2119,2.1776,2.1336,2.0934,2.0673,2.0605,2.0605,2.0605,2.0605,2.0605,2.0605,2.0605,2.0605,2.0605,2.0605,2.0605,2.0605,2.0605,2.0605,2.0605,2.0605,2.0605,2.0605,2.0605,2.0605,2.0605,2.0605,2.0605,2.0605,2.0605,2.0605,2.0605,2.0605,2.0605,2.0605,2.0605,2.0605,2.0605,2.0605,2.0605,2.0605,2.0605,2.0605,2.0605,2.0605,2.0449,2.0088,1.9775,1.9502,1.9287,1.8965,1.8763,1.8754,1.8197,1.7903,0.0,2.4851,0.0,2.6909,2.7314,0.0,0.0,0.0,2.7278,2.7301,2.6921,2.6816,2.767,2.9192,3.0517,3.111,3.2488,3.3709,3.4369,3.5055,3.5504,3.5504,3.5504,3.5504,3.5504,3.4643,3.4061,3.3993,3.2357,3.1278,3.1217,3.0343,2.9869,2.9792,2.9792,2.9792,2.9792,2.9792,2.9792,2.9792,2.9767,2.9741,2.9741,2.9716,2.939,2.8775,2.8285,2.8047,2.8021,2.8021,2.8021,2.79,2.6916,2.5914,2.4831,2.344,2.2815,2.2481,2.1161,2.1221,2.1773,2.0895,2.0605,2.0605,2.0605,2.0605,2.0605,2.0605,2.0605,2.0605,2.0605,2.0605,2.0605,2.0605,2.0605,2.0605,2.0605,2.0605,2.0605,2.0605,2.0605,2.0605,2.0605,2.0605,2.0605,2.0605,2.0605,2.0605,2.0605,2.0605,2.0605,2.0605,2.0605,2.0605,2.0605,2.0605,2.0605,2.0605,2.0605,2.0605,2.0605,2.0605,2.0595,2.0566,2.0546,2.0136,1.9287,1.9268,1.9248,1.9248,1.8212,1.7721,0.0,0.0,0.0,2.5568,2.6508,2.7341,2.7557,2.7693,2.7808,2.7808,2.7369,2.7198,2.7844,2.8338,2.9004,3.0113,3.1628,3.2881,3.3506,3.4149,3.4543,3.4543,3.4007,3.365,3.365,3.331,3.2855,3.2249,3.1573,3.0932,3.0317,2.996,2.9792,2.9792,2.9792,2.9792,2.9792,2.9792,2.9792,2.9792,2.9792,2.9792,2.9792,2.9792,2.9679,2.9427,2.8513,2.811,2.8109,2.8109,2.7681,2.6962,2.5969,2.4904,2.378,2.2675,2.2231,2.209,2.1252,2.1224,2.14,2.081,2.0605,2.0605,2.0605,2.0605,2.0605,2.0605,2.0605,2.0605,2.0605,2.0605,2.0605,2.0605,2.0605,2.0683,2.0937,2.0762,2.0605,2.0605,2.0605,2.0605,2.0605,2.0605,2.0605,2.0605,2.0605,2.0605,2.0605,2.0605,2.0605,2.0605,2.0605,2.0605,2.0605,2.0605,2.0605,2.0605,2.0605,2.0605,2.0605,2.0605,2.0605,2.0605,2.0605,2.0458,2.0145,1.9824,1.9697,1.9687,1.9036,1.835,2.3091,0.0,0.0,0.0,0.0,2.7139,2.7494,2.7971,2.8386,2.8386,2.7946,2.767,2.8034,2.7943,2.831,2.9767,3.1401,3.259,3.2885,3.3565,3.3876,3.3567,3.2996,3.2593,3.2593,3.2321,3.1852,3.1254,3.0895,3.0457,2.983,2.9792,2.9792,2.9792,2.9792,2.9792,2.9792,2.9792,2.9792,2.9792,2.9792,2.9792,2.9792,2.9792,2.9792,2.9753,2.8988,2.8443,2.8062,2.7709,2.7124,2.6426,2.5775,2.4807,2.373,2.2929,2.2413,2.2031,2.1602,2.1414,2.1406,2.1103,2.0948,2.0791,2.0791,2.0723,2.0605,2.0605,2.0605,2.0605,2.0605,2.0713,2.0791,2.0791,2.0898,2.1094,2.1387,2.1103,2.084,2.1016,2.1045,2.1045,2.1045,2.1045,2.1045,2.1045,2.0879,2.0791,2.0791,2.0693,2.0605,2.0605,2.0605,2.0605,2.0605,2.0605,2.0605,2.0605,2.0605,2.0605,2.0605,2.0605,2.0605,2.0605,2.0605,2.0605,2.0605,2.0273,2.0127,2.0127,1.9496,1.8835,0.0,0.0,0.0,0.0,0.0,0.0,2.7804,0.0,2.8875,2.8913,2.8511,2.8134,2.816,2.8147,2.8627,3.0151,3.1868,3.2919,3.2595,3.3345,3.3602,3.2664,3.2522,3.2536,3.2536,3.1669,3.118,3.118,3.0317,2.9792,2.9792,2.9792,2.9792,2.9792,2.9792,2.9792,2.9792,2.9792,2.9792,2.9792,2.9792,2.9792,2.9792,2.9792,2.9792,2.9792,2.9753,2.9106,2.8004,2.6964,2.6513,2.6431,2.6431,2.5755,2.4692,2.4294,2.345,2.2471,2.2051,2.1904,2.1904,2.1894,2.1602,2.121,2.121,2.0937,2.0625,2.0625,2.0625,2.0625,2.0635,2.0928,2.121,2.121,2.1582,2.1894,2.1904,2.1572,2.1356,2.1807,2.1885,2.1885,2.1885,2.1885,2.1885,2.1885,2.1523,2.121,2.121,2.0869,2.0635,2.0625,2.0625,2.0615,2.0605,2.0605,2.0605,2.0605,2.0605,2.0605,2.0605,2.0605,2.0605,2.0605,2.0605,2.0605,2.0605,2.0605,2.0605,2.0566,1.9481,1.8997,2.3091,0.0,0.0,0.0,0.0,0.0,0.0,0.0,2.8548,2.9387,2.9101,2.8825,2.9252,2.8988,2.8963,2.9834,3.0639,3.1253,3.1566,3.1815,3.1888,3.1609,3.0983,3.057,3.057,3.0355,3.0177,3.0177,2.9934,2.9792,2.9792,2.9792,2.9792,2.9792,2.9792,2.9792,2.9792,2.9792,2.9792,2.9792,2.9792,2.9792,2.9792,2.9792,2.9792,2.9753,2.8937,2.8386,2.8096,2.7763,2.6696,2.5252,2.5252,2.4585,2.3574,2.3464,2.3209,2.2867,2.248,2.2344,2.2295,2.1982,2.1807,2.1709,2.1709,2.1396,2.1045,2.1045,2.1045,2.1123,2.1435,2.1611,2.1709,2.1709,2.1797,2.1973,2.2275,2.2246,2.21,2.1924,2.1885,2.1885,2.1885,2.1885,2.1885,2.1885,2.1787,2.1709,2.1709,2.1602,2.1396,2.1084,2.1045,2.0918,2.0635,2.0605,2.0605,2.0605,2.0605,2.0605,2.0605,2.0605,2.0605,2.0605,2.0605,2.0605,2.0605,2.0605,2.0605,2.0566,1.9481,1.8997,0.0,0.0,0.0,0.0,0.0,0.0,2.563,2.6982,2.8307,2.8937,2.9183,2.939,2.9729,2.9515,2.9402,2.9741,2.9986,3.0271,3.0581,3.097,3.1044,3.0658,3.0139,2.9792,2.9792,2.9792,2.9792,2.9792,2.9792,2.9792,2.9792,2.9792,2.9792,2.9792,2.9792,2.9792,2.9792,2.9792,2.9792,2.9792,2.9792,2.9792,2.9792,2.9792,2.9792,2.9753,2.9106,2.8279,2.7441,2.7441,2.6408,2.4745,2.4296,2.3671,2.3091,2.3091,2.3091,2.3062,2.2818,2.273,2.2691,2.249,2.2295,2.2148,2.2148,2.1846,2.1504,2.1504,2.1504,2.1562,2.1816,2.2012,2.2148,2.2148,2.2275,2.248,2.2682,2.273,2.2705,2.2461,2.2412,2.2412,2.2412,2.2412,2.2412,2.2412,2.2266,2.2148,2.2148,2.1992,2.1787,2.1533,2.1504,2.1328,2.0889,2.084,2.0762,2.0615,2.0605,2.0605,2.0605,2.0605,2.0605,2.0605,2.0605,2.0605,2.0605,2.0605,2.0605,2.0566,1.9962,1.9687,0.0,0.0,0.0,0.0,2.3877,0.0,2.4787,2.6315,2.7763,2.7884,2.874,2.9417,2.9417,2.9417,2.9417,2.9417,2.9534,2.9663,2.9792,3.052,3.0733,2.9895,2.9792,2.9792,2.9792,2.9792,2.9792,2.9792,2.9792,2.9792,2.9792,2.9792,2.9792,2.9792,2.9792,2.9792,2.9792,2.9792,2.9792,2.9792,2.9792,2.9792,2.9792,2.9663,2.9624,2.9585,2.9507,2.8343,2.6483,2.6348,2.563,2.45,2.3507,2.3091,2.3091,2.3091,2.3091,2.3091,2.3091,2.3091,2.3091,2.3091,2.2847,2.2578,2.2578,2.2295,2.1953,2.1953,2.1953,2.1963,2.2012,2.2305,2.2578,2.2578,2.2818,2.3091,2.3091,2.3091,2.3091,2.3091,2.3091,2.3091,2.3091,2.3091,2.3091,2.3091,2.2822,2.2578,2.2578,2.2256,2.2012,2.1963,2.1953,2.1777,2.1307,2.1268,2.1113,2.0703,2.0674,2.0654,2.0605,2.0605,2.0605,2.0605,2.0605,2.0605,2.0605,2.0605,2.0605,2.0605,2.0605,2.0605,0.0,0.0,0.0,0.0,2.3256,0.0,2.4585,2.5115,2.5703,2.6637,2.6976,2.7139,2.7139,2.7139,2.7139,2.7139,2.7867,2.8767,2.9663,2.9972,2.9998,2.983,2.9792,2.9792,2.9792,2.9792,2.9792,2.9792,2.9792,2.9792,2.9792,2.9792,2.9792,2.9792,2.9792,2.9792,2.9792,2.9792,2.9792,2.9792,2.9792,2.9792,2.9753,2.8846,2.8426,2.8386,2.7504,2.6894,2.6442,2.5504,2.4467,2.343,2.3178,2.3091,2.3091,2.3091,2.3091,2.3091,2.3091,2.3091,2.3091,2.3091,2.3042,2.2974,2.2974,2.2682,2.2393,2.2393,2.2393,2.2471,2.2769,2.2916,2.2974,2.2974,2.3033,2.3091,2.3091,2.3091,2.3091,2.3091,2.3091,2.3091,2.3091,2.3091,2.3091,2.3091,2.3023,2.2974,2.2974,2.2896,2.2721,2.2432,2.2393,2.2217,2.1797,2.1758,2.1572,2.1093,2.1064,2.0947,2.0615,2.0605,2.0605,2.0605,2.0605,2.0605,2.0605,2.0605,2.0605,2.0605,2.0605,2.0605,0.0,0.0,2.3091,2.3091,2.3091,0.0,0.0,2.4372,2.4957,2.5546,2.6099,2.6524,2.6524,2.6524,2.6524,2.6524,2.6964,2.7493,2.8091,2.9079,2.9792,2.9792,2.9792,2.9792,2.9792,2.9792,2.9792,2.9792,2.9792,2.9792,2.9792,2.9792,2.9792,2.9792,2.9792,2.9792,2.9792,2.9792,2.9792,2.9792,2.9792,2.9792,2.9792,2.9197,2.8937,2.8897,2.7787,2.7005,2.6389,2.5252,2.4125,2.3091,2.3091,2.3091,2.3091,2.3091,2.3091,2.3091,2.3091,2.3091,2.3091,2.3091,2.3091,2.3091,2.3091,2.2945,2.2779,2.2779,2.2779,2.2828,2.3042,2.3091,2.3091,2.3091,2.3091,2.3091,2.3091,2.3091,2.3091,2.3091,2.3091,2.3091,2.3091,2.3091,2.3091,2.3091,2.3091,2.3091,2.3091,2.3091,2.3013,2.2808,2.2779,2.2656,2.2236,2.2197,2.2012,2.1592,2.1562,2.1357,2.0918,2.0898,2.0791,2.0605,2.0605,2.0605,2.0605,2.0605,2.0605,2.0605,2.0605,2.0605,2.3091,2.3091,2.3091,2.3091,2.3091,2.3091,0.0,0.0,0.0,2.4457,2.5221,2.585,0.0,2.585,2.5828,2.5729,2.6003,2.6149,2.6061,2.786,2.917,2.917,2.917,2.9248,2.9456,2.9663,2.9792,2.9792,2.9792,2.9792,2.9792,2.9792,2.9792,2.9792,2.9792,2.9792,2.9792,2.9792,2.9792,2.9792,2.9792,2.9792,2.9792,2.9573,2.9495,2.9404,2.8056,2.6982,2.6099,2.4957,2.392,2.3091,2.3091,2.3091,2.3091,2.3091,2.3091,2.3091,2.3091,2.3091,2.3091,2.3091,2.3091,2.3091,2.3091,2.3091,2.3091,2.3091,2.3091,2.3091,2.3091,2.3091,2.3091,2.3091,2.3091,2.3091,2.3091,2.3091,2.3091,2.3091,2.3091,2.3091,2.3091,2.3091,2.3091,2.3091,2.3091,2.3091,2.3091,2.3091,2.3091,2.3091,2.3091,2.2955,2.2656,2.2637,2.2451,2.2031,2.2012,2.1816,2.1337,2.1239,2.1064,2.0742,2.0644,2.0605,2.0605,2.0605,2.0605,2.0605,2.0605,2.0605,2.3091,2.3091,2.3091,2.3091,2.3091,2.3091,2.3091,0.0,2.3299,2.3299,0.0,2.3474,0.0,0.0,0.0,0.0,2.4082,2.4861,2.449,2.5864,2.6894,2.6894,2.6894,2.725,2.8215,2.9197,2.9792,2.9792,2.9792,2.9792,2.9792,2.9792,2.9792,2.9792,2.9792,2.9792,2.9792,2.9792,2.9792,2.9792,2.9792,2.9792,2.9753,2.8767,2.8307,2.8176,2.6066,2.5126,2.4914,2.3757,2.3222,2.3091,2.3091,2.3091,2.3091,2.3091,2.3091,2.3091,2.3091,2.3091,2.3091,2.3091,2.3091,2.3091,2.3091,2.3091,2.3091,2.3091,2.3091,2.3091,2.3091,2.3091,2.3091,2.3091,2.3091,2.3091,2.3091,2.3091,2.3091,2.3091,2.3091,2.3091,2.3091,2.3091,2.3091,2.3091,2.3091,2.3091,2.3091,2.3091,2.3091,2.3091,2.3091,2.3081,2.3033,2.3023,2.2847,2.2471,2.2441,2.2246,2.1836,2.1405,2.1171,2.1122,2.0762,2.0605,2.0605,2.0605,2.0605,2.0605,2.0605,2.0605,2.3091,2.3091,2.3091,2.3091,2.3091,2.3091,2.3091,2.3091,2.3091,2.3091,0.0,0.0,0.0,0.0,0.0,0.0,2.3388,2.373,2.3602,2.4098,2.502,2.6359,2.6524,2.6924,2.8016,2.7988,2.8422,2.9714,2.9197,2.9106,2.9753,2.9792,2.9792,2.9792,2.9792,2.9792,2.9792,2.9792,2.9792,2.9792,2.9792,2.9792,2.9792,2.9314,2.9106,2.8988,2.74,2.6367,2.5714,2.4553,2.3714,2.3091,2.3091,2.3091,2.3091,2.3091,2.3091,2.3091,2.3091,2.3091,2.3091,2.3091,2.3091,2.3091,2.3091,2.3091,2.3091,2.3091,2.3091,2.3091,2.3091,2.3091,2.3091,2.3091,2.3091,2.3091,2.3091,2.3091,2.3091,2.3091,2.3091,2.3091,2.3091,2.3091,2.3091,2.3091,2.3091,2.3091,2.3091,2.3091,2.3091,2.3091,2.3091,2.3091,2.3091,2.3091,2.3023,2.2847,2.2646,2.2432,2.2256,2.1836,2.1611,2.1611,2.1182,2.0957,2.0957,2.0693,2.0605,2.0605,2.0605,2.0605,2.3091,0.0,2.3091,2.3091,2.3091,2.3091,2.3091,2.3091,2.3091,2.3091,2.3091,0.0,0.0,0.0,0.0,0.0,0.0,2.3052,0.0,2.3023,2.3724,2.5347,2.585,2.6337,2.7105,2.6748,2.7302,2.9197,2.8557,2.8597,2.9753,2.9792,2.9792,2.9792,2.9792,2.9792,2.9792,2.9792,2.9792,2.9792,2.9792,2.9792,2.9792,2.9792,2.9792,2.9753,2.8597,2.7493,2.6431,2.5588,2.4425,2.3135,2.343,2.3387,2.3091,2.3091,2.3091,2.3091,2.3091,2.3091,2.3091,2.3091,2.3091,2.3091,2.3091,2.3091,2.3091,2.3091,2.3091,2.3091,2.3091,2.3091,2.3091,2.3091,2.3091,2.3091,2.3091,2.3091,2.3091,2.3091,2.3091,2.3091,2.3091,2.3091,2.3091,2.3091,2.3091,2.3091,2.3091,2.3091,2.3091,2.3091,2.3091,2.3091,2.3091,2.3091,2.3091,2.3091,2.2808,2.2643,2.2643,2.2275,2.206,2.206,2.1631,2.1375,2.1375,2.0967,2.0752,2.0742,2.0664,2.0605,0.0,0.0,0.0,2.3091,2.3091,2.3091,2.3091,2.3091,2.3091,2.3091,2.3091,2.3091,0.0,0.0,0.0,0.0,0.0,0.0,0.0,0.0,2.3135,2.3222,2.4168,2.4872,2.4914,2.588,2.6964,2.8056,2.8136,2.8597,2.9753,2.9792,2.9792,2.9792,2.9792,2.9792,2.9792,2.9792,2.9792,2.9792,2.9792,2.9792,2.9792,2.9792,2.9792,2.9753,2.8597,2.7493,2.6524,2.6483,2.5105,2.3222,2.4286,2.4082,2.3091,2.3091,2.3091,2.3091,2.3091,2.3091,2.3091,2.3091,2.3091,2.3091,2.3091,2.3091,2.3091,2.3091,2.3091,2.3091,2.3091,2.3091,2.3091,2.3091,2.3091,2.3091,2.3091,2.3091,2.3091,2.3091,2.3091,2.3091,2.3091,2.3091,2.3091,2.3091,2.3091,2.3091,2.3091,2.3091,2.3091,2.3091,2.3091,2.3091,2.3091,2.3091,2.3091,2.3091,2.3081,2.3071,2.3071,2.2672,2.249,2.249,2.208,2.1865,2.1865,2.1426,2.1171,2.1161,2.0762,2.0605,0.0,0.0,2.3091,2.3091,0.0,0.0,2.3091,2.3091,2.3091,2.3091,2.3091,2.3091,0.0,0.0,0.0,0.0,0.0,0.0,0.0,0.0,2.3091,2.3091,2.343,2.3963,2.4745,2.4467,2.502,2.6912,2.6326,2.6726,2.8557,2.8688,2.9028,2.9792,2.9792,2.9792,2.9792,2.9792,2.9792,2.9792,2.9792,2.9792,2.9792,2.9792,2.9792,2.9792,2.9404,2.8211,2.6524,2.6524,2.5147,2.3135,2.3507,2.343,2.3091,2.3091,2.3091,2.3091,2.3091,2.3091,2.3091,2.3091,2.3091,2.3091,2.3091,2.3091,2.3091,2.3091,2.3091,2.3091,2.3091,2.3091,2.3091,2.3091,2.3091,2.3091,2.3091,2.3091,2.3091,2.3091,2.3091,2.3091,2.3091,2.3091,2.3091,2.3091,2.3091,2.3091,2.3091,2.3091,2.3091,2.3091,2.3091,2.3091,2.3091,2.3091,2.3091,2.3091,2.3091,2.3091,2.3091,2.2955,2.2886,2.2886,2.251,2.2305,2.2305,2.1875,2.167,2.166,2.1514,2.1163,2.3714,2.343,0.0,2.3091,2.3091,0.0,2.3091,0.0,2.3091,2.3091,2.3091,2.3091,0.0,0.0,0.0,0.0,0.0,0.0,0.0,2.3091,0.0,2.3091,2.3091,2.3387,2.4125,2.3507,2.3887,2.5766,2.521,2.5619,2.7441,2.7896,2.8426,2.9157,2.9585,2.9792,2.9792,2.9792,2.9792,2.9792,2.9792,2.9792,2.9792,2.9792,2.9573,2.9197,2.9197,2.7947,2.5933,2.6348,2.5147,2.3135,2.3551,2.3474,2.3091,2.3091,2.3091,2.3091,2.3091,2.3091,2.3091,2.3091,2.3091,2.3091,2.3091,2.3091,2.3091,2.3091,2.3091,2.3091,2.3091,2.3091,2.3091,2.3091,2.3091,2.3091,2.3091,2.3091,2.3091,2.3091,2.3091,2.3091,2.3091,2.3091,2.3091,2.3091,2.3091,2.3091,2.3091,2.3091,2.3091,2.3091,2.3091,2.3091,2.3091,2.3091,2.3091,2.3091,2.3091,2.3091,2.3091,2.3091,2.3091,2.3091,2.2828,2.2691,2.2691,2.2314,2.2109,2.21,2.1953,2.1582]}]]